<?xml version="1.0" encoding="UTF-8" standalone="no" ?>
<gpx xmlns="http://www.topografix.com/GPX/1/1" xmlns:xsi="http://www.w3.org/2001/XMLSchema-instance" xsi:schemaLocation="http://www.topografix.com/GPX/1/1 http://www.topografix.com/GPX/1/1/gpx.xsd" version="1.1" creator="VisuGPX - https://www.visugpx.com">
  <metadata>
    <name>2017-12-21 Venelles - Vallon Figuiere - Ligoures 3...</name>
    <desc><![CDATA[Sortie VTT à la journée, départ de venelle (centre sportif)
de beaux singles.
Compter un bon 1000m de dénivelé
Eviter par grosses chaleur et en temps de Pluie.]]></desc>
  </metadata>
  <trk>
    <name><![CDATA[2017-12-21 Venelles - Vallon Figuiere - Ligoures 3...]]></name>
    <trkseg>
      <trkpt lat="43.59518" lon="5.49263">
        <ele>231</ele>
        <time>2017-12-21T08:58:42Z</time>
      </trkpt>
      <trkpt lat="43.59521" lon="5.49263">
        <ele>231</ele>
        <time>2017-12-21T08:58:44Z</time>
      </trkpt>
      <trkpt lat="43.59519" lon="5.49251">
        <ele>236</ele>
        <time>2017-12-21T08:59:04Z</time>
      </trkpt>
      <trkpt lat="43.59519" lon="5.49251">
        <ele>241</ele>
        <time>2017-12-21T08:59:05Z</time>
      </trkpt>
      <trkpt lat="43.59519" lon="5.49251">
        <ele>246</ele>
        <time>2017-12-21T08:59:06Z</time>
      </trkpt>
      <trkpt lat="43.59519" lon="5.49251">
        <ele>251</ele>
        <time>2017-12-21T08:59:07Z</time>
      </trkpt>
      <trkpt lat="43.59519" lon="5.49251">
        <ele>255</ele>
        <time>2017-12-21T08:59:08Z</time>
      </trkpt>
      <trkpt lat="43.5952" lon="5.49252">
        <ele>264</ele>
        <time>2017-12-21T08:59:09Z</time>
      </trkpt>
      <trkpt lat="43.5952" lon="5.49252">
        <ele>264</ele>
        <time>2017-12-21T08:59:10Z</time>
      </trkpt>
      <trkpt lat="43.5952" lon="5.49252">
        <ele>267</ele>
        <time>2017-12-21T08:59:11Z</time>
      </trkpt>
      <trkpt lat="43.5952" lon="5.49253">
        <ele>271</ele>
        <time>2017-12-21T08:59:12Z</time>
      </trkpt>
      <trkpt lat="43.5952" lon="5.49253">
        <ele>275</ele>
        <time>2017-12-21T08:59:13Z</time>
      </trkpt>
      <trkpt lat="43.5952" lon="5.49253">
        <ele>279</ele>
        <time>2017-12-21T08:59:14Z</time>
      </trkpt>
      <trkpt lat="43.59521" lon="5.49253">
        <ele>282</ele>
        <time>2017-12-21T08:59:15Z</time>
      </trkpt>
      <trkpt lat="43.59521" lon="5.49254">
        <ele>286</ele>
        <time>2017-12-21T08:59:16Z</time>
      </trkpt>
      <trkpt lat="43.59521" lon="5.49254">
        <ele>289</ele>
        <time>2017-12-21T08:59:17Z</time>
      </trkpt>
      <trkpt lat="43.59521" lon="5.49254">
        <ele>292</ele>
        <time>2017-12-21T08:59:18Z</time>
      </trkpt>
      <trkpt lat="43.59521" lon="5.49254">
        <ele>295</ele>
        <time>2017-12-21T08:59:19Z</time>
      </trkpt>
      <trkpt lat="43.59521" lon="5.49255">
        <ele>301</ele>
        <time>2017-12-21T08:59:21Z</time>
      </trkpt>
      <trkpt lat="43.59522" lon="5.49255">
        <ele>307</ele>
        <time>2017-12-21T08:59:23Z</time>
      </trkpt>
      <trkpt lat="43.59522" lon="5.49255">
        <ele>312</ele>
        <time>2017-12-21T08:59:25Z</time>
      </trkpt>
      <trkpt lat="43.59522" lon="5.49255">
        <ele>317</ele>
        <time>2017-12-21T08:59:27Z</time>
      </trkpt>
      <trkpt lat="43.59522" lon="5.49255">
        <ele>321</ele>
        <time>2017-12-21T08:59:29Z</time>
      </trkpt>
      <trkpt lat="43.59522" lon="5.49255">
        <ele>326</ele>
        <time>2017-12-21T08:59:31Z</time>
      </trkpt>
      <trkpt lat="43.59522" lon="5.49255">
        <ele>332</ele>
        <time>2017-12-21T08:59:33Z</time>
      </trkpt>
      <trkpt lat="43.59522" lon="5.49255">
        <ele>332</ele>
        <time>2017-12-21T08:59:34Z</time>
      </trkpt>
      <trkpt lat="43.59522" lon="5.49255">
        <ele>335</ele>
        <time>2017-12-21T08:59:35Z</time>
      </trkpt>
      <trkpt lat="43.59522" lon="5.49255">
        <ele>335</ele>
        <time>2017-12-21T08:59:36Z</time>
      </trkpt>
      <trkpt lat="43.59522" lon="5.49255">
        <ele>339</ele>
        <time>2017-12-21T08:59:38Z</time>
      </trkpt>
      <trkpt lat="43.59522" lon="5.49254">
        <ele>342</ele>
        <time>2017-12-21T08:59:40Z</time>
      </trkpt>
      <trkpt lat="43.59522" lon="5.49254">
        <ele>345</ele>
        <time>2017-12-21T08:59:42Z</time>
      </trkpt>
      <trkpt lat="43.59522" lon="5.49254">
        <ele>349</ele>
        <time>2017-12-21T08:59:45Z</time>
      </trkpt>
      <trkpt lat="43.59522" lon="5.49254">
        <ele>353</ele>
        <time>2017-12-21T08:59:48Z</time>
      </trkpt>
      <trkpt lat="43.59521" lon="5.49254">
        <ele>357</ele>
        <time>2017-12-21T08:59:51Z</time>
      </trkpt>
      <trkpt lat="43.59521" lon="5.49254">
        <ele>360</ele>
        <time>2017-12-21T08:59:54Z</time>
      </trkpt>
      <trkpt lat="43.59521" lon="5.49254">
        <ele>363</ele>
        <time>2017-12-21T08:59:57Z</time>
      </trkpt>
      <trkpt lat="43.59521" lon="5.49254">
        <ele>365</ele>
        <time>2017-12-21T09:00:00Z</time>
      </trkpt>
      <trkpt lat="43.5952" lon="5.49254">
        <ele>367</ele>
        <time>2017-12-21T09:00:02Z</time>
      </trkpt>
      <trkpt lat="43.5952" lon="5.49253">
        <ele>371</ele>
        <time>2017-12-21T09:00:07Z</time>
      </trkpt>
      <trkpt lat="43.59519" lon="5.49254">
        <ele>372</ele>
        <time>2017-12-21T09:00:09Z</time>
      </trkpt>
      <trkpt lat="43.59519" lon="5.49255">
        <ele>376</ele>
        <time>2017-12-21T09:00:15Z</time>
      </trkpt>
      <trkpt lat="43.59519" lon="5.49255">
        <ele>379</ele>
        <time>2017-12-21T09:00:22Z</time>
      </trkpt>
      <trkpt lat="43.5952" lon="5.49255">
        <ele>382</ele>
        <time>2017-12-21T09:00:31Z</time>
      </trkpt>
      <trkpt lat="43.59519" lon="5.49257">
        <ele>543</ele>
        <time>2017-12-21T09:00:39Z</time>
      </trkpt>
      <trkpt lat="43.59519" lon="5.49256">
        <ele>391</ele>
        <time>2017-12-21T09:00:42Z</time>
      </trkpt>
      <trkpt lat="43.59518" lon="5.49256">
        <ele>389</ele>
        <time>2017-12-21T09:00:44Z</time>
      </trkpt>
      <trkpt lat="43.59519" lon="5.49253">
        <ele>389</ele>
        <time>2017-12-21T09:01:15Z</time>
      </trkpt>
      <trkpt lat="43.5952" lon="5.49255">
        <ele>389</ele>
        <time>2017-12-21T09:01:41Z</time>
      </trkpt>
      <trkpt lat="43.59517" lon="5.49253">
        <ele>389</ele>
        <time>2017-12-21T09:02:18Z</time>
      </trkpt>
      <trkpt lat="43.59521" lon="5.49253">
        <ele>389</ele>
        <time>2017-12-21T09:02:47Z</time>
      </trkpt>
      <trkpt lat="43.59517" lon="5.49254">
        <ele>390</ele>
        <time>2017-12-21T09:03:17Z</time>
      </trkpt>
      <trkpt lat="43.59517" lon="5.49255">
        <ele>390</ele>
        <time>2017-12-21T09:03:25Z</time>
      </trkpt>
      <trkpt lat="43.59507" lon="5.49251">
        <ele>390</ele>
        <time>2017-12-21T09:03:33Z</time>
      </trkpt>
      <trkpt lat="43.59504" lon="5.49251">
        <ele>390</ele>
        <time>2017-12-21T09:03:35Z</time>
      </trkpt>
      <trkpt lat="43.59486" lon="5.49235">
        <ele>387</ele>
        <time>2017-12-21T09:03:45Z</time>
      </trkpt>
      <trkpt lat="43.59477" lon="5.4924">
        <ele>386</ele>
        <time>2017-12-21T09:03:49Z</time>
      </trkpt>
      <trkpt lat="43.59475" lon="5.49244">
        <ele>386</ele>
        <time>2017-12-21T09:03:50Z</time>
      </trkpt>
      <trkpt lat="43.5946" lon="5.49284">
        <ele>385</ele>
        <time>2017-12-21T09:04:01Z</time>
      </trkpt>
      <trkpt lat="43.59444" lon="5.49324">
        <ele>386</ele>
        <time>2017-12-21T09:04:12Z</time>
      </trkpt>
      <trkpt lat="43.59434" lon="5.49359">
        <ele>386</ele>
        <time>2017-12-21T09:04:20Z</time>
      </trkpt>
      <trkpt lat="43.5943" lon="5.49372">
        <ele>387</ele>
        <time>2017-12-21T09:04:23Z</time>
      </trkpt>
      <trkpt lat="43.5942" lon="5.49413">
        <ele>388</ele>
        <time>2017-12-21T09:04:33Z</time>
      </trkpt>
      <trkpt lat="43.59405" lon="5.49464">
        <ele>388</ele>
        <time>2017-12-21T09:04:43Z</time>
      </trkpt>
      <trkpt lat="43.59383" lon="5.49515">
        <ele>388</ele>
        <time>2017-12-21T09:04:54Z</time>
      </trkpt>
      <trkpt lat="43.59369" lon="5.49533">
        <ele>387</ele>
        <time>2017-12-21T09:04:58Z</time>
      </trkpt>
      <trkpt lat="43.5935" lon="5.49557">
        <ele>385</ele>
        <time>2017-12-21T09:05:03Z</time>
      </trkpt>
      <trkpt lat="43.59316" lon="5.49602">
        <ele>382</ele>
        <time>2017-12-21T09:05:11Z</time>
      </trkpt>
      <trkpt lat="43.59312" lon="5.49608">
        <ele>382</ele>
        <time>2017-12-21T09:05:12Z</time>
      </trkpt>
      <trkpt lat="43.59304" lon="5.49621">
        <ele>382</ele>
        <time>2017-12-21T09:05:14Z</time>
      </trkpt>
      <trkpt lat="43.59301" lon="5.49628">
        <ele>381</ele>
        <time>2017-12-21T09:05:15Z</time>
      </trkpt>
      <trkpt lat="43.59298" lon="5.49635">
        <ele>380</ele>
        <time>2017-12-21T09:05:16Z</time>
      </trkpt>
      <trkpt lat="43.59291" lon="5.49651">
        <ele>378</ele>
        <time>2017-12-21T09:05:18Z</time>
      </trkpt>
      <trkpt lat="43.59277" lon="5.49684">
        <ele>376</ele>
        <time>2017-12-21T09:05:22Z</time>
      </trkpt>
      <trkpt lat="43.59276" lon="5.49693">
        <ele>376</ele>
        <time>2017-12-21T09:05:23Z</time>
      </trkpt>
      <trkpt lat="43.59275" lon="5.49702">
        <ele>376</ele>
        <time>2017-12-21T09:05:24Z</time>
      </trkpt>
      <trkpt lat="43.59276" lon="5.4971">
        <ele>376</ele>
        <time>2017-12-21T09:05:25Z</time>
      </trkpt>
      <trkpt lat="43.59278" lon="5.49718">
        <ele>375</ele>
        <time>2017-12-21T09:05:26Z</time>
      </trkpt>
      <trkpt lat="43.59279" lon="5.49726">
        <ele>375</ele>
        <time>2017-12-21T09:05:27Z</time>
      </trkpt>
      <trkpt lat="43.5928" lon="5.49735">
        <ele>374</ele>
        <time>2017-12-21T09:05:28Z</time>
      </trkpt>
      <trkpt lat="43.59279" lon="5.49744">
        <ele>373</ele>
        <time>2017-12-21T09:05:29Z</time>
      </trkpt>
      <trkpt lat="43.59276" lon="5.49751">
        <ele>373</ele>
        <time>2017-12-21T09:05:30Z</time>
      </trkpt>
      <trkpt lat="43.59273" lon="5.49759">
        <ele>372</ele>
        <time>2017-12-21T09:05:31Z</time>
      </trkpt>
      <trkpt lat="43.59269" lon="5.49767">
        <ele>371</ele>
        <time>2017-12-21T09:05:32Z</time>
      </trkpt>
      <trkpt lat="43.59265" lon="5.49777">
        <ele>371</ele>
        <time>2017-12-21T09:05:33Z</time>
      </trkpt>
      <trkpt lat="43.59262" lon="5.49786">
        <ele>370</ele>
        <time>2017-12-21T09:05:34Z</time>
      </trkpt>
      <trkpt lat="43.5926" lon="5.49796">
        <ele>370</ele>
        <time>2017-12-21T09:05:35Z</time>
      </trkpt>
      <trkpt lat="43.59258" lon="5.49806">
        <ele>370</ele>
        <time>2017-12-21T09:05:36Z</time>
      </trkpt>
      <trkpt lat="43.59258" lon="5.49816">
        <ele>370</ele>
        <time>2017-12-21T09:05:37Z</time>
      </trkpt>
      <trkpt lat="43.59258" lon="5.49824">
        <ele>370</ele>
        <time>2017-12-21T09:05:38Z</time>
      </trkpt>
      <trkpt lat="43.59258" lon="5.49833">
        <ele>369</ele>
        <time>2017-12-21T09:05:39Z</time>
      </trkpt>
      <trkpt lat="43.5926" lon="5.4984">
        <ele>369</ele>
        <time>2017-12-21T09:05:40Z</time>
      </trkpt>
      <trkpt lat="43.59261" lon="5.49847">
        <ele>369</ele>
        <time>2017-12-21T09:05:41Z</time>
      </trkpt>
      <trkpt lat="43.59263" lon="5.49853">
        <ele>369</ele>
        <time>2017-12-21T09:05:42Z</time>
      </trkpt>
      <trkpt lat="43.59266" lon="5.49864">
        <ele>371</ele>
        <time>2017-12-21T09:05:44Z</time>
      </trkpt>
      <trkpt lat="43.59268" lon="5.49875">
        <ele>371</ele>
        <time>2017-12-21T09:05:46Z</time>
      </trkpt>
      <trkpt lat="43.59273" lon="5.49905">
        <ele>372</ele>
        <time>2017-12-21T09:05:51Z</time>
      </trkpt>
      <trkpt lat="43.59273" lon="5.49922">
        <ele>372</ele>
        <time>2017-12-21T09:05:54Z</time>
      </trkpt>
      <trkpt lat="43.5927" lon="5.49952">
        <ele>372</ele>
        <time>2017-12-21T09:05:59Z</time>
      </trkpt>
      <trkpt lat="43.59269" lon="5.50026">
        <ele>372</ele>
        <time>2017-12-21T09:06:13Z</time>
      </trkpt>
      <trkpt lat="43.59267" lon="5.50032">
        <ele>373</ele>
        <time>2017-12-21T09:06:15Z</time>
      </trkpt>
      <trkpt lat="43.59265" lon="5.50033">
        <ele>373</ele>
        <time>2017-12-21T09:06:16Z</time>
      </trkpt>
      <trkpt lat="43.59261" lon="5.50033">
        <ele>373</ele>
        <time>2017-12-21T09:06:17Z</time>
      </trkpt>
      <trkpt lat="43.59246" lon="5.5003">
        <ele>371</ele>
        <time>2017-12-21T09:06:21Z</time>
      </trkpt>
      <trkpt lat="43.59241" lon="5.5003">
        <ele>370</ele>
        <time>2017-12-21T09:06:22Z</time>
      </trkpt>
      <trkpt lat="43.59218" lon="5.50029">
        <ele>368</ele>
        <time>2017-12-21T09:06:26Z</time>
      </trkpt>
      <trkpt lat="43.59162" lon="5.50028">
        <ele>364</ele>
        <time>2017-12-21T09:06:34Z</time>
      </trkpt>
      <trkpt lat="43.59102" lon="5.50026">
        <ele>364</ele>
        <time>2017-12-21T09:06:44Z</time>
      </trkpt>
      <trkpt lat="43.59097" lon="5.50028">
        <ele>364</ele>
        <time>2017-12-21T09:06:45Z</time>
      </trkpt>
      <trkpt lat="43.59093" lon="5.5003">
        <ele>365</ele>
        <time>2017-12-21T09:06:46Z</time>
      </trkpt>
      <trkpt lat="43.59088" lon="5.50034">
        <ele>366</ele>
        <time>2017-12-21T09:06:48Z</time>
      </trkpt>
      <trkpt lat="43.59067" lon="5.50062">
        <ele>369</ele>
        <time>2017-12-21T09:06:58Z</time>
      </trkpt>
      <trkpt lat="43.59054" lon="5.50092">
        <ele>371</ele>
        <time>2017-12-21T09:07:07Z</time>
      </trkpt>
      <trkpt lat="43.59041" lon="5.50137">
        <ele>371</ele>
        <time>2017-12-21T09:07:17Z</time>
      </trkpt>
      <trkpt lat="43.59039" lon="5.50141">
        <ele>369</ele>
        <time>2017-12-21T09:07:18Z</time>
      </trkpt>
      <trkpt lat="43.59036" lon="5.50147">
        <ele>369</ele>
        <time>2017-12-21T09:07:19Z</time>
      </trkpt>
      <trkpt lat="43.59024" lon="5.50167">
        <ele>366</ele>
        <time>2017-12-21T09:07:23Z</time>
      </trkpt>
      <trkpt lat="43.59022" lon="5.50173">
        <ele>365</ele>
        <time>2017-12-21T09:07:24Z</time>
      </trkpt>
      <trkpt lat="43.59019" lon="5.5018">
        <ele>364</ele>
        <time>2017-12-21T09:07:25Z</time>
      </trkpt>
      <trkpt lat="43.5901" lon="5.50213">
        <ele>362</ele>
        <time>2017-12-21T09:07:29Z</time>
      </trkpt>
      <trkpt lat="43.59005" lon="5.5023">
        <ele>360</ele>
        <time>2017-12-21T09:07:31Z</time>
      </trkpt>
      <trkpt lat="43.59002" lon="5.50239">
        <ele>360</ele>
        <time>2017-12-21T09:07:32Z</time>
      </trkpt>
      <trkpt lat="43.59" lon="5.50247">
        <ele>360</ele>
        <time>2017-12-21T09:07:33Z</time>
      </trkpt>
      <trkpt lat="43.58995" lon="5.50271">
        <ele>358</ele>
        <time>2017-12-21T09:07:36Z</time>
      </trkpt>
      <trkpt lat="43.58995" lon="5.50279">
        <ele>357</ele>
        <time>2017-12-21T09:07:37Z</time>
      </trkpt>
      <trkpt lat="43.58999" lon="5.50326">
        <ele>354</ele>
        <time>2017-12-21T09:07:42Z</time>
      </trkpt>
      <trkpt lat="43.58996" lon="5.50386">
        <ele>351</ele>
        <time>2017-12-21T09:07:48Z</time>
      </trkpt>
      <trkpt lat="43.58983" lon="5.50432">
        <ele>348</ele>
        <time>2017-12-21T09:07:53Z</time>
      </trkpt>
      <trkpt lat="43.5897" lon="5.50475">
        <ele>345</ele>
        <time>2017-12-21T09:07:58Z</time>
      </trkpt>
      <trkpt lat="43.58969" lon="5.50485">
        <ele>344</ele>
        <time>2017-12-21T09:07:59Z</time>
      </trkpt>
      <trkpt lat="43.58958" lon="5.50544">
        <ele>340</ele>
        <time>2017-12-21T09:08:05Z</time>
      </trkpt>
      <trkpt lat="43.58957" lon="5.50563">
        <ele>340</ele>
        <time>2017-12-21T09:08:07Z</time>
      </trkpt>
      <trkpt lat="43.58956" lon="5.50572">
        <ele>339</ele>
        <time>2017-12-21T09:08:08Z</time>
      </trkpt>
      <trkpt lat="43.58955" lon="5.50581">
        <ele>339</ele>
        <time>2017-12-21T09:08:09Z</time>
      </trkpt>
      <trkpt lat="43.58953" lon="5.50589">
        <ele>339</ele>
        <time>2017-12-21T09:08:10Z</time>
      </trkpt>
      <trkpt lat="43.58951" lon="5.50598">
        <ele>339</ele>
        <time>2017-12-21T09:08:11Z</time>
      </trkpt>
      <trkpt lat="43.58948" lon="5.50606">
        <ele>338</ele>
        <time>2017-12-21T09:08:12Z</time>
      </trkpt>
      <trkpt lat="43.58944" lon="5.50613">
        <ele>337</ele>
        <time>2017-12-21T09:08:13Z</time>
      </trkpt>
      <trkpt lat="43.5894" lon="5.5062">
        <ele>337</ele>
        <time>2017-12-21T09:08:14Z</time>
      </trkpt>
      <trkpt lat="43.58935" lon="5.50626">
        <ele>337</ele>
        <time>2017-12-21T09:08:15Z</time>
      </trkpt>
      <trkpt lat="43.5893" lon="5.50632">
        <ele>336</ele>
        <time>2017-12-21T09:08:16Z</time>
      </trkpt>
      <trkpt lat="43.58895" lon="5.5068">
        <ele>332</ele>
        <time>2017-12-21T09:08:23Z</time>
      </trkpt>
      <trkpt lat="43.58891" lon="5.50688">
        <ele>332</ele>
        <time>2017-12-21T09:08:24Z</time>
      </trkpt>
      <trkpt lat="43.58888" lon="5.50697">
        <ele>331</ele>
        <time>2017-12-21T09:08:25Z</time>
      </trkpt>
      <trkpt lat="43.58876" lon="5.50734">
        <ele>327</ele>
        <time>2017-12-21T09:08:29Z</time>
      </trkpt>
      <trkpt lat="43.58861" lon="5.50767">
        <ele>326</ele>
        <time>2017-12-21T09:08:33Z</time>
      </trkpt>
      <trkpt lat="43.58852" lon="5.50786">
        <ele>324</ele>
        <time>2017-12-21T09:08:36Z</time>
      </trkpt>
      <trkpt lat="43.5885" lon="5.50792">
        <ele>324</ele>
        <time>2017-12-21T09:08:37Z</time>
      </trkpt>
      <trkpt lat="43.58851" lon="5.50799">
        <ele>324</ele>
        <time>2017-12-21T09:08:38Z</time>
      </trkpt>
      <trkpt lat="43.58853" lon="5.50805">
        <ele>324</ele>
        <time>2017-12-21T09:08:39Z</time>
      </trkpt>
      <trkpt lat="43.58857" lon="5.50809">
        <ele>324</ele>
        <time>2017-12-21T09:08:40Z</time>
      </trkpt>
      <trkpt lat="43.58861" lon="5.50813">
        <ele>324</ele>
        <time>2017-12-21T09:08:41Z</time>
      </trkpt>
      <trkpt lat="43.58866" lon="5.50816">
        <ele>324</ele>
        <time>2017-12-21T09:08:42Z</time>
      </trkpt>
      <trkpt lat="43.58916" lon="5.50861">
        <ele>322</ele>
        <time>2017-12-21T09:08:54Z</time>
      </trkpt>
      <trkpt lat="43.58919" lon="5.50865">
        <ele>322</ele>
        <time>2017-12-21T09:08:55Z</time>
      </trkpt>
      <trkpt lat="43.58921" lon="5.5087">
        <ele>322</ele>
        <time>2017-12-21T09:08:56Z</time>
      </trkpt>
      <trkpt lat="43.58923" lon="5.50875">
        <ele>322</ele>
        <time>2017-12-21T09:08:57Z</time>
      </trkpt>
      <trkpt lat="43.58922" lon="5.50881">
        <ele>321</ele>
        <time>2017-12-21T09:08:58Z</time>
      </trkpt>
      <trkpt lat="43.58921" lon="5.50886">
        <ele>321</ele>
        <time>2017-12-21T09:08:59Z</time>
      </trkpt>
      <trkpt lat="43.58919" lon="5.5089">
        <ele>321</ele>
        <time>2017-12-21T09:09:00Z</time>
      </trkpt>
      <trkpt lat="43.58916" lon="5.50894">
        <ele>321</ele>
        <time>2017-12-21T09:09:01Z</time>
      </trkpt>
      <trkpt lat="43.58914" lon="5.50898">
        <ele>321</ele>
        <time>2017-12-21T09:09:02Z</time>
      </trkpt>
      <trkpt lat="43.58911" lon="5.50901">
        <ele>321</ele>
        <time>2017-12-21T09:09:03Z</time>
      </trkpt>
      <trkpt lat="43.58908" lon="5.50902">
        <ele>321</ele>
        <time>2017-12-21T09:09:04Z</time>
      </trkpt>
      <trkpt lat="43.58905" lon="5.50901">
        <ele>322</ele>
        <time>2017-12-21T09:09:05Z</time>
      </trkpt>
      <trkpt lat="43.58903" lon="5.50899">
        <ele>322</ele>
        <time>2017-12-21T09:09:06Z</time>
      </trkpt>
      <trkpt lat="43.58901" lon="5.50897">
        <ele>322</ele>
        <time>2017-12-21T09:09:07Z</time>
      </trkpt>
      <trkpt lat="43.58899" lon="5.50894">
        <ele>322</ele>
        <time>2017-12-21T09:09:08Z</time>
      </trkpt>
      <trkpt lat="43.58897" lon="5.50891">
        <ele>322</ele>
        <time>2017-12-21T09:09:09Z</time>
      </trkpt>
      <trkpt lat="43.58894" lon="5.50887">
        <ele>323</ele>
        <time>2017-12-21T09:09:10Z</time>
      </trkpt>
      <trkpt lat="43.58858" lon="5.50849">
        <ele>325</ele>
        <time>2017-12-21T09:09:23Z</time>
      </trkpt>
      <trkpt lat="43.58834" lon="5.50826">
        <ele>328</ele>
        <time>2017-12-21T09:09:32Z</time>
      </trkpt>
      <trkpt lat="43.58785" lon="5.5078">
        <ele>329</ele>
        <time>2017-12-21T09:09:48Z</time>
      </trkpt>
      <trkpt lat="43.58736" lon="5.50739">
        <ele>329</ele>
        <time>2017-12-21T09:10:02Z</time>
      </trkpt>
      <trkpt lat="43.58728" lon="5.50734">
        <ele>329</ele>
        <time>2017-12-21T09:10:04Z</time>
      </trkpt>
      <trkpt lat="43.58721" lon="5.50727">
        <ele>329</ele>
        <time>2017-12-21T09:10:06Z</time>
      </trkpt>
      <trkpt lat="43.58689" lon="5.50712">
        <ele>328</ele>
        <time>2017-12-21T09:10:14Z</time>
      </trkpt>
      <trkpt lat="43.58685" lon="5.50712">
        <ele>328</ele>
        <time>2017-12-21T09:10:15Z</time>
      </trkpt>
      <trkpt lat="43.58623" lon="5.50716">
        <ele>328</ele>
        <time>2017-12-21T09:10:30Z</time>
      </trkpt>
      <trkpt lat="43.58602" lon="5.50716">
        <ele>328</ele>
        <time>2017-12-21T09:10:35Z</time>
      </trkpt>
      <trkpt lat="43.58599" lon="5.50715">
        <ele>328</ele>
        <time>2017-12-21T09:10:36Z</time>
      </trkpt>
      <trkpt lat="43.58595" lon="5.50713">
        <ele>328</ele>
        <time>2017-12-21T09:10:37Z</time>
      </trkpt>
      <trkpt lat="43.5859" lon="5.5071">
        <ele>328</ele>
        <time>2017-12-21T09:10:38Z</time>
      </trkpt>
      <trkpt lat="43.58587" lon="5.50707">
        <ele>328</ele>
        <time>2017-12-21T09:10:39Z</time>
      </trkpt>
      <trkpt lat="43.58584" lon="5.50703">
        <ele>328</ele>
        <time>2017-12-21T09:10:40Z</time>
      </trkpt>
      <trkpt lat="43.5858" lon="5.50698">
        <ele>328</ele>
        <time>2017-12-21T09:10:41Z</time>
      </trkpt>
      <trkpt lat="43.58577" lon="5.50694">
        <ele>328</ele>
        <time>2017-12-21T09:10:42Z</time>
      </trkpt>
      <trkpt lat="43.58575" lon="5.50689">
        <ele>328</ele>
        <time>2017-12-21T09:10:43Z</time>
      </trkpt>
      <trkpt lat="43.58556" lon="5.50632">
        <ele>328</ele>
        <time>2017-12-21T09:10:54Z</time>
      </trkpt>
      <trkpt lat="43.58553" lon="5.50616">
        <ele>329</ele>
        <time>2017-12-21T09:10:57Z</time>
      </trkpt>
      <trkpt lat="43.5854" lon="5.50561">
        <ele>332</ele>
        <time>2017-12-21T09:11:08Z</time>
      </trkpt>
      <trkpt lat="43.58523" lon="5.50521">
        <ele>336</ele>
        <time>2017-12-21T09:11:18Z</time>
      </trkpt>
      <trkpt lat="43.58502" lon="5.50493">
        <ele>339</ele>
        <time>2017-12-21T09:11:28Z</time>
      </trkpt>
      <trkpt lat="43.58483" lon="5.50479">
        <ele>341</ele>
        <time>2017-12-21T09:11:37Z</time>
      </trkpt>
      <trkpt lat="43.58481" lon="5.50479">
        <ele>341</ele>
        <time>2017-12-21T09:11:39Z</time>
      </trkpt>
      <trkpt lat="43.58479" lon="5.5048">
        <ele>341</ele>
        <time>2017-12-21T09:11:40Z</time>
      </trkpt>
      <trkpt lat="43.58477" lon="5.50482">
        <ele>341</ele>
        <time>2017-12-21T09:11:41Z</time>
      </trkpt>
      <trkpt lat="43.58476" lon="5.50484">
        <ele>341</ele>
        <time>2017-12-21T09:11:42Z</time>
      </trkpt>
      <trkpt lat="43.58476" lon="5.50487">
        <ele>341</ele>
        <time>2017-12-21T09:11:43Z</time>
      </trkpt>
      <trkpt lat="43.58475" lon="5.50491">
        <ele>341</ele>
        <time>2017-12-21T09:11:44Z</time>
      </trkpt>
      <trkpt lat="43.58473" lon="5.50494">
        <ele>341</ele>
        <time>2017-12-21T09:11:45Z</time>
      </trkpt>
      <trkpt lat="43.58472" lon="5.50497">
        <ele>341</ele>
        <time>2017-12-21T09:11:46Z</time>
      </trkpt>
      <trkpt lat="43.58449" lon="5.5051">
        <ele>344</ele>
        <time>2017-12-21T09:11:55Z</time>
      </trkpt>
      <trkpt lat="43.58414" lon="5.50526">
        <ele>347</ele>
        <time>2017-12-21T09:12:09Z</time>
      </trkpt>
      <trkpt lat="43.58385" lon="5.50538">
        <ele>350</ele>
        <time>2017-12-21T09:12:21Z</time>
      </trkpt>
      <trkpt lat="43.58353" lon="5.50551">
        <ele>353</ele>
        <time>2017-12-21T09:12:34Z</time>
      </trkpt>
      <trkpt lat="43.58331" lon="5.50563">
        <ele>356</ele>
        <time>2017-12-21T09:12:45Z</time>
      </trkpt>
      <trkpt lat="43.58319" lon="5.50538">
        <ele>357</ele>
        <time>2017-12-21T09:12:54Z</time>
      </trkpt>
      <trkpt lat="43.58312" lon="5.50512">
        <ele>360</ele>
        <time>2017-12-21T09:13:03Z</time>
      </trkpt>
      <trkpt lat="43.58295" lon="5.505">
        <ele>362</ele>
        <time>2017-12-21T09:13:12Z</time>
      </trkpt>
      <trkpt lat="43.58273" lon="5.50518">
        <ele>364</ele>
        <time>2017-12-21T09:13:22Z</time>
      </trkpt>
      <trkpt lat="43.5825" lon="5.50541">
        <ele>365</ele>
        <time>2017-12-21T09:13:32Z</time>
      </trkpt>
      <trkpt lat="43.58225" lon="5.50572">
        <ele>366</ele>
        <time>2017-12-21T09:13:44Z</time>
      </trkpt>
      <trkpt lat="43.58194" lon="5.50613">
        <ele>367</ele>
        <time>2017-12-21T09:13:57Z</time>
      </trkpt>
      <trkpt lat="43.58166" lon="5.50668">
        <ele>368</ele>
        <time>2017-12-21T09:14:12Z</time>
      </trkpt>
      <trkpt lat="43.58149" lon="5.50705">
        <ele>369</ele>
        <time>2017-12-21T09:14:22Z</time>
      </trkpt>
      <trkpt lat="43.5813" lon="5.50746">
        <ele>370</ele>
        <time>2017-12-21T09:14:33Z</time>
      </trkpt>
      <trkpt lat="43.58115" lon="5.50783">
        <ele>372</ele>
        <time>2017-12-21T09:14:43Z</time>
      </trkpt>
      <trkpt lat="43.581" lon="5.50829">
        <ele>375</ele>
        <time>2017-12-21T09:14:55Z</time>
      </trkpt>
      <trkpt lat="43.58087" lon="5.50866">
        <ele>378</ele>
        <time>2017-12-21T09:15:06Z</time>
      </trkpt>
      <trkpt lat="43.58075" lon="5.50905">
        <ele>380</ele>
        <time>2017-12-21T09:15:18Z</time>
      </trkpt>
      <trkpt lat="43.58063" lon="5.50944">
        <ele>382</ele>
        <time>2017-12-21T09:15:30Z</time>
      </trkpt>
      <trkpt lat="43.5804" lon="5.50965">
        <ele>384</ele>
        <time>2017-12-21T09:15:41Z</time>
      </trkpt>
      <trkpt lat="43.58012" lon="5.50975">
        <ele>386</ele>
        <time>2017-12-21T09:15:52Z</time>
      </trkpt>
      <trkpt lat="43.57987" lon="5.50986">
        <ele>389</ele>
        <time>2017-12-21T09:16:04Z</time>
      </trkpt>
      <trkpt lat="43.5797" lon="5.51">
        <ele>393</ele>
        <time>2017-12-21T09:16:14Z</time>
      </trkpt>
      <trkpt lat="43.57948" lon="5.51016">
        <ele>396</ele>
        <time>2017-12-21T09:16:26Z</time>
      </trkpt>
      <trkpt lat="43.57934" lon="5.51037">
        <ele>400</ele>
        <time>2017-12-21T09:16:36Z</time>
      </trkpt>
      <trkpt lat="43.57923" lon="5.51061">
        <ele>401</ele>
        <time>2017-12-21T09:16:46Z</time>
      </trkpt>
      <trkpt lat="43.57897" lon="5.51082">
        <ele>401</ele>
        <time>2017-12-21T09:16:57Z</time>
      </trkpt>
      <trkpt lat="43.57877" lon="5.51112">
        <ele>401</ele>
        <time>2017-12-21T09:17:09Z</time>
      </trkpt>
      <trkpt lat="43.57853" lon="5.5116">
        <ele>398</ele>
        <time>2017-12-21T09:17:20Z</time>
      </trkpt>
      <trkpt lat="43.57851" lon="5.51166">
        <ele>398</ele>
        <time>2017-12-21T09:17:21Z</time>
      </trkpt>
      <trkpt lat="43.57841" lon="5.51201">
        <ele>398</ele>
        <time>2017-12-21T09:17:29Z</time>
      </trkpt>
      <trkpt lat="43.57828" lon="5.51236">
        <ele>400</ele>
        <time>2017-12-21T09:17:40Z</time>
      </trkpt>
      <trkpt lat="43.57827" lon="5.51239">
        <ele>400</ele>
        <time>2017-12-21T09:17:41Z</time>
      </trkpt>
      <trkpt lat="43.57822" lon="5.51247">
        <ele>398</ele>
        <time>2017-12-21T09:17:44Z</time>
      </trkpt>
      <trkpt lat="43.57814" lon="5.51262">
        <ele>394</ele>
        <time>2017-12-21T09:17:48Z</time>
      </trkpt>
      <trkpt lat="43.57812" lon="5.51269">
        <ele>394</ele>
        <time>2017-12-21T09:17:50Z</time>
      </trkpt>
      <trkpt lat="43.57813" lon="5.51301">
        <ele>395</ele>
        <time>2017-12-21T09:17:59Z</time>
      </trkpt>
      <trkpt lat="43.57813" lon="5.51304">
        <ele>395</ele>
        <time>2017-12-21T09:18:00Z</time>
      </trkpt>
      <trkpt lat="43.57801" lon="5.51325">
        <ele>398</ele>
        <time>2017-12-21T09:18:10Z</time>
      </trkpt>
      <trkpt lat="43.57786" lon="5.51353">
        <ele>400</ele>
        <time>2017-12-21T09:18:21Z</time>
      </trkpt>
      <trkpt lat="43.57768" lon="5.51384">
        <ele>402</ele>
        <time>2017-12-21T09:18:33Z</time>
      </trkpt>
      <trkpt lat="43.5775" lon="5.5141">
        <ele>405</ele>
        <time>2017-12-21T09:18:45Z</time>
      </trkpt>
      <trkpt lat="43.57737" lon="5.51443">
        <ele>408</ele>
        <time>2017-12-21T09:18:57Z</time>
      </trkpt>
      <trkpt lat="43.57715" lon="5.51469">
        <ele>411</ele>
        <time>2017-12-21T09:19:10Z</time>
      </trkpt>
      <trkpt lat="43.57697" lon="5.51496">
        <ele>414</ele>
        <time>2017-12-21T09:19:22Z</time>
      </trkpt>
      <trkpt lat="43.57687" lon="5.51525">
        <ele>417</ele>
        <time>2017-12-21T09:19:33Z</time>
      </trkpt>
      <trkpt lat="43.57684" lon="5.51554">
        <ele>420</ele>
        <time>2017-12-21T09:19:43Z</time>
      </trkpt>
      <trkpt lat="43.57681" lon="5.51589">
        <ele>423</ele>
        <time>2017-12-21T09:19:55Z</time>
      </trkpt>
      <trkpt lat="43.57674" lon="5.51615">
        <ele>425</ele>
        <time>2017-12-21T09:20:04Z</time>
      </trkpt>
      <trkpt lat="43.57662" lon="5.51639">
        <ele>427</ele>
        <time>2017-12-21T09:20:14Z</time>
      </trkpt>
      <trkpt lat="43.57656" lon="5.51667">
        <ele>430</ele>
        <time>2017-12-21T09:20:24Z</time>
      </trkpt>
      <trkpt lat="43.5765" lon="5.51705">
        <ele>433</ele>
        <time>2017-12-21T09:20:37Z</time>
      </trkpt>
      <trkpt lat="43.57649" lon="5.51736">
        <ele>436</ele>
        <time>2017-12-21T09:20:47Z</time>
      </trkpt>
      <trkpt lat="43.57655" lon="5.51771">
        <ele>439</ele>
        <time>2017-12-21T09:20:59Z</time>
      </trkpt>
      <trkpt lat="43.57653" lon="5.51808">
        <ele>442</ele>
        <time>2017-12-21T09:21:11Z</time>
      </trkpt>
      <trkpt lat="43.57641" lon="5.51839">
        <ele>445</ele>
        <time>2017-12-21T09:21:23Z</time>
      </trkpt>
      <trkpt lat="43.57616" lon="5.51876">
        <ele>448</ele>
        <time>2017-12-21T09:21:39Z</time>
      </trkpt>
      <trkpt lat="43.57596" lon="5.51906">
        <ele>451</ele>
        <time>2017-12-21T09:21:53Z</time>
      </trkpt>
      <trkpt lat="43.57569" lon="5.5192">
        <ele>453</ele>
        <time>2017-12-21T09:22:06Z</time>
      </trkpt>
      <trkpt lat="43.57554" lon="5.5194">
        <ele>456</ele>
        <time>2017-12-21T09:22:16Z</time>
      </trkpt>
      <trkpt lat="43.57539" lon="5.51962">
        <ele>459</ele>
        <time>2017-12-21T09:22:26Z</time>
      </trkpt>
      <trkpt lat="43.5752" lon="5.51996">
        <ele>461</ele>
        <time>2017-12-21T09:22:39Z</time>
      </trkpt>
      <trkpt lat="43.57509" lon="5.52037">
        <ele>464</ele>
        <time>2017-12-21T09:22:52Z</time>
      </trkpt>
      <trkpt lat="43.57496" lon="5.52078">
        <ele>465</ele>
        <time>2017-12-21T09:23:05Z</time>
      </trkpt>
      <trkpt lat="43.5748" lon="5.52118">
        <ele>467</ele>
        <time>2017-12-21T09:23:17Z</time>
      </trkpt>
      <trkpt lat="43.57471" lon="5.5216">
        <ele>469</ele>
        <time>2017-12-21T09:23:29Z</time>
      </trkpt>
      <trkpt lat="43.57473" lon="5.5221">
        <ele>471</ele>
        <time>2017-12-21T09:23:42Z</time>
      </trkpt>
      <trkpt lat="43.57471" lon="5.52264">
        <ele>472</ele>
        <time>2017-12-21T09:23:56Z</time>
      </trkpt>
      <trkpt lat="43.57465" lon="5.52287">
        <ele>472</ele>
        <time>2017-12-21T09:24:04Z</time>
      </trkpt>
      <trkpt lat="43.57448" lon="5.52332">
        <ele>472</ele>
        <time>2017-12-21T09:24:16Z</time>
      </trkpt>
      <trkpt lat="43.5743" lon="5.5237">
        <ele>472</ele>
        <time>2017-12-21T09:24:26Z</time>
      </trkpt>
      <trkpt lat="43.5742" lon="5.52422">
        <ele>472</ele>
        <time>2017-12-21T09:24:37Z</time>
      </trkpt>
      <trkpt lat="43.57418" lon="5.5244">
        <ele>471</ele>
        <time>2017-12-21T09:24:40Z</time>
      </trkpt>
      <trkpt lat="43.57415" lon="5.52501">
        <ele>469</ele>
        <time>2017-12-21T09:24:51Z</time>
      </trkpt>
      <trkpt lat="43.57409" lon="5.52542">
        <ele>469</ele>
        <time>2017-12-21T09:24:59Z</time>
      </trkpt>
      <trkpt lat="43.57408" lon="5.52548">
        <ele>469</ele>
        <time>2017-12-21T09:25:00Z</time>
      </trkpt>
      <trkpt lat="43.57408" lon="5.52554">
        <ele>469</ele>
        <time>2017-12-21T09:25:01Z</time>
      </trkpt>
      <trkpt lat="43.57402" lon="5.52618">
        <ele>470</ele>
        <time>2017-12-21T09:25:13Z</time>
      </trkpt>
      <trkpt lat="43.57395" lon="5.52689">
        <ele>471</ele>
        <time>2017-12-21T09:25:27Z</time>
      </trkpt>
      <trkpt lat="43.57384" lon="5.52764">
        <ele>471</ele>
        <time>2017-12-21T09:25:41Z</time>
      </trkpt>
      <trkpt lat="43.57376" lon="5.5283">
        <ele>471</ele>
        <time>2017-12-21T09:25:54Z</time>
      </trkpt>
      <trkpt lat="43.57376" lon="5.52881">
        <ele>474</ele>
        <time>2017-12-21T09:26:05Z</time>
      </trkpt>
      <trkpt lat="43.57373" lon="5.52924">
        <ele>476</ele>
        <time>2017-12-21T09:26:15Z</time>
      </trkpt>
      <trkpt lat="43.57376" lon="5.52976">
        <ele>478</ele>
        <time>2017-12-21T09:26:27Z</time>
      </trkpt>
      <trkpt lat="43.57377" lon="5.53023">
        <ele>481</ele>
        <time>2017-12-21T09:26:38Z</time>
      </trkpt>
      <trkpt lat="43.57376" lon="5.53067">
        <ele>483</ele>
        <time>2017-12-21T09:26:48Z</time>
      </trkpt>
      <trkpt lat="43.57381" lon="5.53125">
        <ele>485</ele>
        <time>2017-12-21T09:27:01Z</time>
      </trkpt>
      <trkpt lat="43.57383" lon="5.53184">
        <ele>486</ele>
        <time>2017-12-21T09:27:14Z</time>
      </trkpt>
      <trkpt lat="43.57388" lon="5.53244">
        <ele>487</ele>
        <time>2017-12-21T09:27:28Z</time>
      </trkpt>
      <trkpt lat="43.57389" lon="5.53299">
        <ele>489</ele>
        <time>2017-12-21T09:27:41Z</time>
      </trkpt>
      <trkpt lat="43.57375" lon="5.53353">
        <ele>491</ele>
        <time>2017-12-21T09:27:54Z</time>
      </trkpt>
      <trkpt lat="43.57362" lon="5.53389">
        <ele>492</ele>
        <time>2017-12-21T09:28:04Z</time>
      </trkpt>
      <trkpt lat="43.57348" lon="5.53412">
        <ele>492</ele>
        <time>2017-12-21T09:28:14Z</time>
      </trkpt>
      <trkpt lat="43.57344" lon="5.53423">
        <ele>492</ele>
        <time>2017-12-21T09:28:24Z</time>
      </trkpt>
      <trkpt lat="43.57341" lon="5.5343">
        <ele>492</ele>
        <time>2017-12-21T09:28:39Z</time>
      </trkpt>
      <trkpt lat="43.57322" lon="5.53469">
        <ele>492</ele>
        <time>2017-12-21T09:28:49Z</time>
      </trkpt>
      <trkpt lat="43.57294" lon="5.53524">
        <ele>492</ele>
        <time>2017-12-21T09:29:03Z</time>
      </trkpt>
      <trkpt lat="43.57267" lon="5.53571">
        <ele>495</ele>
        <time>2017-12-21T09:29:16Z</time>
      </trkpt>
      <trkpt lat="43.57247" lon="5.53614">
        <ele>498</ele>
        <time>2017-12-21T09:29:27Z</time>
      </trkpt>
      <trkpt lat="43.57224" lon="5.53658">
        <ele>500</ele>
        <time>2017-12-21T09:29:39Z</time>
      </trkpt>
      <trkpt lat="43.5722" lon="5.5367">
        <ele>500</ele>
        <time>2017-12-21T09:29:46Z</time>
      </trkpt>
      <trkpt lat="43.5722" lon="5.53669">
        <ele>500</ele>
        <time>2017-12-21T09:30:05Z</time>
      </trkpt>
      <trkpt lat="43.5722" lon="5.5367">
        <ele>500</ele>
        <time>2017-12-21T09:30:15Z</time>
      </trkpt>
      <trkpt lat="43.57218" lon="5.53674">
        <ele>500</ele>
        <time>2017-12-21T09:30:34Z</time>
      </trkpt>
      <trkpt lat="43.57216" lon="5.53676">
        <ele>500</ele>
        <time>2017-12-21T09:30:35Z</time>
      </trkpt>
      <trkpt lat="43.57213" lon="5.53678">
        <ele>500</ele>
        <time>2017-12-21T09:30:36Z</time>
      </trkpt>
      <trkpt lat="43.57212" lon="5.5368">
        <ele>501</ele>
        <time>2017-12-21T09:30:37Z</time>
      </trkpt>
      <trkpt lat="43.57187" lon="5.53723">
        <ele>502</ele>
        <time>2017-12-21T09:30:49Z</time>
      </trkpt>
      <trkpt lat="43.57159" lon="5.53779">
        <ele>503</ele>
        <time>2017-12-21T09:31:03Z</time>
      </trkpt>
      <trkpt lat="43.57136" lon="5.53845">
        <ele>503</ele>
        <time>2017-12-21T09:31:17Z</time>
      </trkpt>
      <trkpt lat="43.57109" lon="5.53898">
        <ele>504</ele>
        <time>2017-12-21T09:31:29Z</time>
      </trkpt>
      <trkpt lat="43.57081" lon="5.53962">
        <ele>505</ele>
        <time>2017-12-21T09:31:43Z</time>
      </trkpt>
      <trkpt lat="43.57071" lon="5.54021">
        <ele>507</ele>
        <time>2017-12-21T09:31:55Z</time>
      </trkpt>
      <trkpt lat="43.57065" lon="5.54083">
        <ele>509</ele>
        <time>2017-12-21T09:32:08Z</time>
      </trkpt>
      <trkpt lat="43.57061" lon="5.54133">
        <ele>510</ele>
        <time>2017-12-21T09:32:19Z</time>
      </trkpt>
      <trkpt lat="43.57052" lon="5.54202">
        <ele>511</ele>
        <time>2017-12-21T09:32:33Z</time>
      </trkpt>
      <trkpt lat="43.57029" lon="5.54254">
        <ele>512</ele>
        <time>2017-12-21T09:32:45Z</time>
      </trkpt>
      <trkpt lat="43.57007" lon="5.54307">
        <ele>512</ele>
        <time>2017-12-21T09:32:57Z</time>
      </trkpt>
      <trkpt lat="43.57001" lon="5.54316">
        <ele>512</ele>
        <time>2017-12-21T09:33:00Z</time>
      </trkpt>
      <trkpt lat="43.56975" lon="5.54336">
        <ele>512</ele>
        <time>2017-12-21T09:33:09Z</time>
      </trkpt>
      <trkpt lat="43.56923" lon="5.54354">
        <ele>510</ele>
        <time>2017-12-21T09:33:22Z</time>
      </trkpt>
      <trkpt lat="43.56901" lon="5.54361">
        <ele>510</ele>
        <time>2017-12-21T09:33:27Z</time>
      </trkpt>
      <trkpt lat="43.56891" lon="5.54361">
        <ele>509</ele>
        <time>2017-12-21T09:33:29Z</time>
      </trkpt>
      <trkpt lat="43.56886" lon="5.5436">
        <ele>509</ele>
        <time>2017-12-21T09:33:30Z</time>
      </trkpt>
      <trkpt lat="43.56866" lon="5.54357">
        <ele>507</ele>
        <time>2017-12-21T09:33:34Z</time>
      </trkpt>
      <trkpt lat="43.56855" lon="5.5436">
        <ele>507</ele>
        <time>2017-12-21T09:33:36Z</time>
      </trkpt>
      <trkpt lat="43.56805" lon="5.54381">
        <ele>503</ele>
        <time>2017-12-21T09:33:46Z</time>
      </trkpt>
      <trkpt lat="43.56776" lon="5.54406">
        <ele>501</ele>
        <time>2017-12-21T09:33:54Z</time>
      </trkpt>
      <trkpt lat="43.56756" lon="5.54436">
        <ele>498</ele>
        <time>2017-12-21T09:34:02Z</time>
      </trkpt>
      <trkpt lat="43.56746" lon="5.54459">
        <ele>496</ele>
        <time>2017-12-21T09:34:10Z</time>
      </trkpt>
      <trkpt lat="43.56748" lon="5.54499">
        <ele>497</ele>
        <time>2017-12-21T09:34:18Z</time>
      </trkpt>
      <trkpt lat="43.56739" lon="5.54569">
        <ele>499</ele>
        <time>2017-12-21T09:34:31Z</time>
      </trkpt>
      <trkpt lat="43.56731" lon="5.5464">
        <ele>502</ele>
        <time>2017-12-21T09:34:45Z</time>
      </trkpt>
      <trkpt lat="43.56726" lon="5.54701">
        <ele>504</ele>
        <time>2017-12-21T09:34:57Z</time>
      </trkpt>
      <trkpt lat="43.56725" lon="5.54767">
        <ele>506</ele>
        <time>2017-12-21T09:35:10Z</time>
      </trkpt>
      <trkpt lat="43.56729" lon="5.5484">
        <ele>507</ele>
        <time>2017-12-21T09:35:24Z</time>
      </trkpt>
      <trkpt lat="43.56747" lon="5.54901">
        <ele>507</ele>
        <time>2017-12-21T09:35:36Z</time>
      </trkpt>
      <trkpt lat="43.56749" lon="5.54907">
        <ele>506</ele>
        <time>2017-12-21T09:35:37Z</time>
      </trkpt>
      <trkpt lat="43.56751" lon="5.54912">
        <ele>506</ele>
        <time>2017-12-21T09:35:38Z</time>
      </trkpt>
      <trkpt lat="43.56757" lon="5.54921">
        <ele>505</ele>
        <time>2017-12-21T09:35:40Z</time>
      </trkpt>
      <trkpt lat="43.56767" lon="5.54935">
        <ele>504</ele>
        <time>2017-12-21T09:35:43Z</time>
      </trkpt>
      <trkpt lat="43.5677" lon="5.5494">
        <ele>504</ele>
        <time>2017-12-21T09:35:44Z</time>
      </trkpt>
      <trkpt lat="43.56772" lon="5.54945">
        <ele>504</ele>
        <time>2017-12-21T09:35:45Z</time>
      </trkpt>
      <trkpt lat="43.56774" lon="5.54951">
        <ele>504</ele>
        <time>2017-12-21T09:35:46Z</time>
      </trkpt>
      <trkpt lat="43.56776" lon="5.54956">
        <ele>504</ele>
        <time>2017-12-21T09:35:47Z</time>
      </trkpt>
      <trkpt lat="43.56778" lon="5.54962">
        <ele>504</ele>
        <time>2017-12-21T09:35:48Z</time>
      </trkpt>
      <trkpt lat="43.56792" lon="5.55003">
        <ele>506</ele>
        <time>2017-12-21T09:35:56Z</time>
      </trkpt>
      <trkpt lat="43.56801" lon="5.55071">
        <ele>508</ele>
        <time>2017-12-21T09:36:09Z</time>
      </trkpt>
      <trkpt lat="43.56818" lon="5.55161">
        <ele>509</ele>
        <time>2017-12-21T09:36:26Z</time>
      </trkpt>
      <trkpt lat="43.56844" lon="5.55243">
        <ele>511</ele>
        <time>2017-12-21T09:36:43Z</time>
      </trkpt>
      <trkpt lat="43.56861" lon="5.55309">
        <ele>513</ele>
        <time>2017-12-21T09:36:57Z</time>
      </trkpt>
      <trkpt lat="43.56874" lon="5.55368">
        <ele>515</ele>
        <time>2017-12-21T09:37:10Z</time>
      </trkpt>
      <trkpt lat="43.56874" lon="5.55385">
        <ele>515</ele>
        <time>2017-12-21T09:37:16Z</time>
      </trkpt>
      <trkpt lat="43.56872" lon="5.55388">
        <ele>515</ele>
        <time>2017-12-21T09:37:17Z</time>
      </trkpt>
      <trkpt lat="43.56871" lon="5.55389">
        <ele>515</ele>
        <time>2017-12-21T09:37:18Z</time>
      </trkpt>
      <trkpt lat="43.56868" lon="5.55391">
        <ele>515</ele>
        <time>2017-12-21T09:37:19Z</time>
      </trkpt>
      <trkpt lat="43.56865" lon="5.55392">
        <ele>515</ele>
        <time>2017-12-21T09:37:20Z</time>
      </trkpt>
      <trkpt lat="43.56862" lon="5.55392">
        <ele>515</ele>
        <time>2017-12-21T09:37:21Z</time>
      </trkpt>
      <trkpt lat="43.56821" lon="5.554">
        <ele>515</ele>
        <time>2017-12-21T09:37:34Z</time>
      </trkpt>
      <trkpt lat="43.56795" lon="5.55415">
        <ele>514</ele>
        <time>2017-12-21T09:37:41Z</time>
      </trkpt>
      <trkpt lat="43.5674" lon="5.55449">
        <ele>513</ele>
        <time>2017-12-21T09:37:55Z</time>
      </trkpt>
      <trkpt lat="43.56731" lon="5.55457">
        <ele>512</ele>
        <time>2017-12-21T09:38:01Z</time>
      </trkpt>
      <trkpt lat="43.5673" lon="5.55468">
        <ele>512</ele>
        <time>2017-12-21T09:38:07Z</time>
      </trkpt>
      <trkpt lat="43.56728" lon="5.55469">
        <ele>512</ele>
        <time>2017-12-21T09:38:08Z</time>
      </trkpt>
      <trkpt lat="43.56726" lon="5.55471">
        <ele>512</ele>
        <time>2017-12-21T09:38:09Z</time>
      </trkpt>
      <trkpt lat="43.56725" lon="5.55471">
        <ele>512</ele>
        <time>2017-12-21T09:38:10Z</time>
      </trkpt>
      <trkpt lat="43.56723" lon="5.55473">
        <ele>512</ele>
        <time>2017-12-21T09:38:11Z</time>
      </trkpt>
      <trkpt lat="43.56699" lon="5.55476">
        <ele>512</ele>
        <time>2017-12-21T09:38:20Z</time>
      </trkpt>
      <trkpt lat="43.56674" lon="5.55497">
        <ele>512</ele>
        <time>2017-12-21T09:38:29Z</time>
      </trkpt>
      <trkpt lat="43.56665" lon="5.55515">
        <ele>512</ele>
        <time>2017-12-21T09:38:38Z</time>
      </trkpt>
      <trkpt lat="43.56663" lon="5.55517">
        <ele>512</ele>
        <time>2017-12-21T09:38:57Z</time>
      </trkpt>
      <trkpt lat="43.56662" lon="5.55518">
        <ele>512</ele>
        <time>2017-12-21T09:38:58Z</time>
      </trkpt>
      <trkpt lat="43.56661" lon="5.5552">
        <ele>512</ele>
        <time>2017-12-21T09:38:59Z</time>
      </trkpt>
      <trkpt lat="43.56659" lon="5.55522">
        <ele>512</ele>
        <time>2017-12-21T09:39:00Z</time>
      </trkpt>
      <trkpt lat="43.56657" lon="5.55525">
        <ele>512</ele>
        <time>2017-12-21T09:39:01Z</time>
      </trkpt>
      <trkpt lat="43.56623" lon="5.55544">
        <ele>511</ele>
        <time>2017-12-21T09:39:11Z</time>
      </trkpt>
      <trkpt lat="43.56589" lon="5.5556">
        <ele>507</ele>
        <time>2017-12-21T09:39:18Z</time>
      </trkpt>
      <trkpt lat="43.56583" lon="5.55564">
        <ele>507</ele>
        <time>2017-12-21T09:39:19Z</time>
      </trkpt>
      <trkpt lat="43.56573" lon="5.55572">
        <ele>506</ele>
        <time>2017-12-21T09:39:21Z</time>
      </trkpt>
      <trkpt lat="43.56568" lon="5.55578">
        <ele>505</ele>
        <time>2017-12-21T09:39:22Z</time>
      </trkpt>
      <trkpt lat="43.56563" lon="5.55584">
        <ele>505</ele>
        <time>2017-12-21T09:39:23Z</time>
      </trkpt>
      <trkpt lat="43.56554" lon="5.55596">
        <ele>505</ele>
        <time>2017-12-21T09:39:25Z</time>
      </trkpt>
      <trkpt lat="43.56549" lon="5.55601">
        <ele>504</ele>
        <time>2017-12-21T09:39:26Z</time>
      </trkpt>
      <trkpt lat="43.56544" lon="5.55605">
        <ele>504</ele>
        <time>2017-12-21T09:39:27Z</time>
      </trkpt>
      <trkpt lat="43.56538" lon="5.55607">
        <ele>504</ele>
        <time>2017-12-21T09:39:28Z</time>
      </trkpt>
      <trkpt lat="43.56533" lon="5.5561">
        <ele>504</ele>
        <time>2017-12-21T09:39:29Z</time>
      </trkpt>
      <trkpt lat="43.56518" lon="5.55619">
        <ele>504</ele>
        <time>2017-12-21T09:39:32Z</time>
      </trkpt>
      <trkpt lat="43.56477" lon="5.55646">
        <ele>504</ele>
        <time>2017-12-21T09:39:41Z</time>
      </trkpt>
      <trkpt lat="43.56448" lon="5.55672">
        <ele>503</ele>
        <time>2017-12-21T09:39:48Z</time>
      </trkpt>
      <trkpt lat="43.56431" lon="5.55679">
        <ele>502</ele>
        <time>2017-12-21T09:39:52Z</time>
      </trkpt>
      <trkpt lat="43.56426" lon="5.55679">
        <ele>502</ele>
        <time>2017-12-21T09:39:53Z</time>
      </trkpt>
      <trkpt lat="43.56421" lon="5.55679">
        <ele>502</ele>
        <time>2017-12-21T09:39:54Z</time>
      </trkpt>
      <trkpt lat="43.56406" lon="5.55679">
        <ele>502</ele>
        <time>2017-12-21T09:39:57Z</time>
      </trkpt>
      <trkpt lat="43.56401" lon="5.55681">
        <ele>502</ele>
        <time>2017-12-21T09:39:58Z</time>
      </trkpt>
      <trkpt lat="43.56396" lon="5.55684">
        <ele>501</ele>
        <time>2017-12-21T09:39:59Z</time>
      </trkpt>
      <trkpt lat="43.56391" lon="5.55688">
        <ele>501</ele>
        <time>2017-12-21T09:40:00Z</time>
      </trkpt>
      <trkpt lat="43.56387" lon="5.55693">
        <ele>501</ele>
        <time>2017-12-21T09:40:01Z</time>
      </trkpt>
      <trkpt lat="43.56384" lon="5.55698">
        <ele>501</ele>
        <time>2017-12-21T09:40:02Z</time>
      </trkpt>
      <trkpt lat="43.56377" lon="5.55709">
        <ele>500</ele>
        <time>2017-12-21T09:40:04Z</time>
      </trkpt>
      <trkpt lat="43.56374" lon="5.55716">
        <ele>500</ele>
        <time>2017-12-21T09:40:05Z</time>
      </trkpt>
      <trkpt lat="43.56371" lon="5.55722">
        <ele>500</ele>
        <time>2017-12-21T09:40:06Z</time>
      </trkpt>
      <trkpt lat="43.56369" lon="5.55729">
        <ele>500</ele>
        <time>2017-12-21T09:40:07Z</time>
      </trkpt>
      <trkpt lat="43.56368" lon="5.55736">
        <ele>500</ele>
        <time>2017-12-21T09:40:08Z</time>
      </trkpt>
      <trkpt lat="43.56362" lon="5.55755">
        <ele>499</ele>
        <time>2017-12-21T09:40:11Z</time>
      </trkpt>
      <trkpt lat="43.56359" lon="5.55761">
        <ele>499</ele>
        <time>2017-12-21T09:40:12Z</time>
      </trkpt>
      <trkpt lat="43.56356" lon="5.55766">
        <ele>499</ele>
        <time>2017-12-21T09:40:13Z</time>
      </trkpt>
      <trkpt lat="43.56341" lon="5.55784">
        <ele>498</ele>
        <time>2017-12-21T09:40:17Z</time>
      </trkpt>
      <trkpt lat="43.56338" lon="5.5579">
        <ele>498</ele>
        <time>2017-12-21T09:40:18Z</time>
      </trkpt>
      <trkpt lat="43.56337" lon="5.55796">
        <ele>498</ele>
        <time>2017-12-21T09:40:19Z</time>
      </trkpt>
      <trkpt lat="43.56337" lon="5.55803">
        <ele>498</ele>
        <time>2017-12-21T09:40:20Z</time>
      </trkpt>
      <trkpt lat="43.56337" lon="5.55809">
        <ele>497</ele>
        <time>2017-12-21T09:40:21Z</time>
      </trkpt>
      <trkpt lat="43.56338" lon="5.55816">
        <ele>497</ele>
        <time>2017-12-21T09:40:22Z</time>
      </trkpt>
      <trkpt lat="43.56339" lon="5.55823">
        <ele>497</ele>
        <time>2017-12-21T09:40:23Z</time>
      </trkpt>
      <trkpt lat="43.56343" lon="5.55843">
        <ele>496</ele>
        <time>2017-12-21T09:40:26Z</time>
      </trkpt>
      <trkpt lat="43.56344" lon="5.55849">
        <ele>496</ele>
        <time>2017-12-21T09:40:27Z</time>
      </trkpt>
      <trkpt lat="43.56345" lon="5.55855">
        <ele>496</ele>
        <time>2017-12-21T09:40:28Z</time>
      </trkpt>
      <trkpt lat="43.56347" lon="5.55861">
        <ele>496</ele>
        <time>2017-12-21T09:40:29Z</time>
      </trkpt>
      <trkpt lat="43.56347" lon="5.55868">
        <ele>496</ele>
        <time>2017-12-21T09:40:30Z</time>
      </trkpt>
      <trkpt lat="43.56347" lon="5.55874">
        <ele>496</ele>
        <time>2017-12-21T09:40:31Z</time>
      </trkpt>
      <trkpt lat="43.56347" lon="5.5588">
        <ele>496</ele>
        <time>2017-12-21T09:40:32Z</time>
      </trkpt>
      <trkpt lat="43.56347" lon="5.55892">
        <ele>496</ele>
        <time>2017-12-21T09:40:34Z</time>
      </trkpt>
      <trkpt lat="43.56349" lon="5.55904">
        <ele>496</ele>
        <time>2017-12-21T09:40:36Z</time>
      </trkpt>
      <trkpt lat="43.56351" lon="5.5591">
        <ele>496</ele>
        <time>2017-12-21T09:40:37Z</time>
      </trkpt>
      <trkpt lat="43.56368" lon="5.55961">
        <ele>497</ele>
        <time>2017-12-21T09:40:48Z</time>
      </trkpt>
      <trkpt lat="43.56376" lon="5.56006">
        <ele>497</ele>
        <time>2017-12-21T09:40:58Z</time>
      </trkpt>
      <trkpt lat="43.56388" lon="5.56037">
        <ele>497</ele>
        <time>2017-12-21T09:41:06Z</time>
      </trkpt>
      <trkpt lat="43.56414" lon="5.5609">
        <ele>498</ele>
        <time>2017-12-21T09:41:18Z</time>
      </trkpt>
      <trkpt lat="43.5644" lon="5.56139">
        <ele>501</ele>
        <time>2017-12-21T09:41:31Z</time>
      </trkpt>
      <trkpt lat="43.5646" lon="5.56187">
        <ele>503</ele>
        <time>2017-12-21T09:41:43Z</time>
      </trkpt>
      <trkpt lat="43.56468" lon="5.56251">
        <ele>505</ele>
        <time>2017-12-21T09:41:57Z</time>
      </trkpt>
      <trkpt lat="43.56483" lon="5.56307">
        <ele>508</ele>
        <time>2017-12-21T09:42:10Z</time>
      </trkpt>
      <trkpt lat="43.56484" lon="5.56341">
        <ele>509</ele>
        <time>2017-12-21T09:42:17Z</time>
      </trkpt>
      <trkpt lat="43.56487" lon="5.56384">
        <ele>512</ele>
        <time>2017-12-21T09:42:26Z</time>
      </trkpt>
      <trkpt lat="43.56498" lon="5.56422">
        <ele>515</ele>
        <time>2017-12-21T09:42:35Z</time>
      </trkpt>
      <trkpt lat="43.56514" lon="5.56456">
        <ele>519</ele>
        <time>2017-12-21T09:42:45Z</time>
      </trkpt>
      <trkpt lat="43.5652" lon="5.56493">
        <ele>522</ele>
        <time>2017-12-21T09:42:55Z</time>
      </trkpt>
      <trkpt lat="43.5653" lon="5.56541">
        <ele>525</ele>
        <time>2017-12-21T09:43:08Z</time>
      </trkpt>
      <trkpt lat="43.56547" lon="5.5659">
        <ele>528</ele>
        <time>2017-12-21T09:43:22Z</time>
      </trkpt>
      <trkpt lat="43.56563" lon="5.56644">
        <ele>530</ele>
        <time>2017-12-21T09:43:36Z</time>
      </trkpt>
      <trkpt lat="43.56569" lon="5.56684">
        <ele>531</ele>
        <time>2017-12-21T09:43:47Z</time>
      </trkpt>
      <trkpt lat="43.56571" lon="5.56687">
        <ele>531</ele>
        <time>2017-12-21T09:43:48Z</time>
      </trkpt>
      <trkpt lat="43.56572" lon="5.5669">
        <ele>531</ele>
        <time>2017-12-21T09:43:49Z</time>
      </trkpt>
      <trkpt lat="43.56573" lon="5.56692">
        <ele>532</ele>
        <time>2017-12-21T09:43:50Z</time>
      </trkpt>
      <trkpt lat="43.56575" lon="5.56695">
        <ele>532</ele>
        <time>2017-12-21T09:43:51Z</time>
      </trkpt>
      <trkpt lat="43.56576" lon="5.56698">
        <ele>532</ele>
        <time>2017-12-21T09:43:52Z</time>
      </trkpt>
      <trkpt lat="43.56585" lon="5.56742">
        <ele>534</ele>
        <time>2017-12-21T09:44:06Z</time>
      </trkpt>
      <trkpt lat="43.56593" lon="5.56771">
        <ele>536</ele>
        <time>2017-12-21T09:44:15Z</time>
      </trkpt>
      <trkpt lat="43.56614" lon="5.56811">
        <ele>538</ele>
        <time>2017-12-21T09:44:29Z</time>
      </trkpt>
      <trkpt lat="43.56628" lon="5.56864">
        <ele>542</ele>
        <time>2017-12-21T09:44:43Z</time>
      </trkpt>
      <trkpt lat="43.56631" lon="5.56913">
        <ele>546</ele>
        <time>2017-12-21T09:44:56Z</time>
      </trkpt>
      <trkpt lat="43.56642" lon="5.56959">
        <ele>549</ele>
        <time>2017-12-21T09:45:09Z</time>
      </trkpt>
      <trkpt lat="43.56657" lon="5.57003">
        <ele>552</ele>
        <time>2017-12-21T09:45:22Z</time>
      </trkpt>
      <trkpt lat="43.56656" lon="5.57041">
        <ele>554</ele>
        <time>2017-12-21T09:45:33Z</time>
      </trkpt>
      <trkpt lat="43.56642" lon="5.57072">
        <ele>557</ele>
        <time>2017-12-21T09:45:43Z</time>
      </trkpt>
      <trkpt lat="43.56631" lon="5.57093">
        <ele>559</ele>
        <time>2017-12-21T09:45:52Z</time>
      </trkpt>
      <trkpt lat="43.56629" lon="5.57092">
        <ele>559</ele>
        <time>2017-12-21T09:46:12Z</time>
      </trkpt>
      <trkpt lat="43.56632" lon="5.57093">
        <ele>559</ele>
        <time>2017-12-21T09:46:35Z</time>
      </trkpt>
      <trkpt lat="43.56632" lon="5.57094">
        <ele>559</ele>
        <time>2017-12-21T09:46:52Z</time>
      </trkpt>
      <trkpt lat="43.56632" lon="5.57095">
        <ele>559</ele>
        <time>2017-12-21T09:46:57Z</time>
      </trkpt>
      <trkpt lat="43.56633" lon="5.57098">
        <ele>559</ele>
        <time>2017-12-21T09:46:58Z</time>
      </trkpt>
      <trkpt lat="43.56634" lon="5.57101">
        <ele>559</ele>
        <time>2017-12-21T09:46:59Z</time>
      </trkpt>
      <trkpt lat="43.56635" lon="5.57105">
        <ele>559</ele>
        <time>2017-12-21T09:47:00Z</time>
      </trkpt>
      <trkpt lat="43.56637" lon="5.57108">
        <ele>560</ele>
        <time>2017-12-21T09:47:01Z</time>
      </trkpt>
      <trkpt lat="43.56653" lon="5.57145">
        <ele>563</ele>
        <time>2017-12-21T09:47:11Z</time>
      </trkpt>
      <trkpt lat="43.56674" lon="5.5719">
        <ele>565</ele>
        <time>2017-12-21T09:47:23Z</time>
      </trkpt>
      <trkpt lat="43.56668" lon="5.57238">
        <ele>569</ele>
        <time>2017-12-21T09:47:34Z</time>
      </trkpt>
      <trkpt lat="43.56644" lon="5.57266">
        <ele>571</ele>
        <time>2017-12-21T09:47:44Z</time>
      </trkpt>
      <trkpt lat="43.56616" lon="5.57294">
        <ele>575</ele>
        <time>2017-12-21T09:47:55Z</time>
      </trkpt>
      <trkpt lat="43.56596" lon="5.57328">
        <ele>577</ele>
        <time>2017-12-21T09:48:05Z</time>
      </trkpt>
      <trkpt lat="43.56576" lon="5.5736">
        <ele>581</ele>
        <time>2017-12-21T09:48:15Z</time>
      </trkpt>
      <trkpt lat="43.5655" lon="5.5738">
        <ele>582</ele>
        <time>2017-12-21T09:48:27Z</time>
      </trkpt>
      <trkpt lat="43.56549" lon="5.57381">
        <ele>582</ele>
        <time>2017-12-21T09:48:35Z</time>
      </trkpt>
      <trkpt lat="43.56548" lon="5.57381">
        <ele>582</ele>
        <time>2017-12-21T09:48:46Z</time>
      </trkpt>
      <trkpt lat="43.56547" lon="5.57383">
        <ele>582</ele>
        <time>2017-12-21T09:48:53Z</time>
      </trkpt>
      <trkpt lat="43.56546" lon="5.57382">
        <ele>582</ele>
        <time>2017-12-21T09:49:24Z</time>
      </trkpt>
      <trkpt lat="43.56546" lon="5.57382">
        <ele>582</ele>
        <time>2017-12-21T09:49:49Z</time>
      </trkpt>
      <trkpt lat="43.56545" lon="5.57382">
        <ele>582</ele>
        <time>2017-12-21T09:50:15Z</time>
      </trkpt>
      <trkpt lat="43.5655" lon="5.57382">
        <ele>582</ele>
        <time>2017-12-21T09:50:54Z</time>
      </trkpt>
      <trkpt lat="43.56547" lon="5.57382">
        <ele>580</ele>
        <time>2017-12-21T09:51:26Z</time>
      </trkpt>
      <trkpt lat="43.56546" lon="5.57383">
        <ele>580</ele>
        <time>2017-12-21T09:52:08Z</time>
      </trkpt>
      <trkpt lat="43.56547" lon="5.57381">
        <ele>580</ele>
        <time>2017-12-21T09:52:46Z</time>
      </trkpt>
      <trkpt lat="43.56548" lon="5.57381">
        <ele>580</ele>
        <time>2017-12-21T09:53:21Z</time>
      </trkpt>
      <trkpt lat="43.56547" lon="5.57381">
        <ele>580</ele>
        <time>2017-12-21T09:53:50Z</time>
      </trkpt>
      <trkpt lat="43.56546" lon="5.57382">
        <ele>580</ele>
        <time>2017-12-21T09:54:17Z</time>
      </trkpt>
      <trkpt lat="43.56545" lon="5.5738">
        <ele>580</ele>
        <time>2017-12-21T09:54:37Z</time>
      </trkpt>
      <trkpt lat="43.56545" lon="5.5738">
        <ele>580</ele>
        <time>2017-12-21T09:54:38Z</time>
      </trkpt>
      <trkpt lat="43.56536" lon="5.57379">
        <ele>580</ele>
        <time>2017-12-21T09:54:47Z</time>
      </trkpt>
      <trkpt lat="43.56511" lon="5.57393">
        <ele>579</ele>
        <time>2017-12-21T09:54:57Z</time>
      </trkpt>
      <trkpt lat="43.56492" lon="5.5746">
        <ele>578</ele>
        <time>2017-12-21T09:55:11Z</time>
      </trkpt>
      <trkpt lat="43.56481" lon="5.57515">
        <ele>578</ele>
        <time>2017-12-21T09:55:23Z</time>
      </trkpt>
      <trkpt lat="43.56473" lon="5.57548">
        <ele>579</ele>
        <time>2017-12-21T09:55:31Z</time>
      </trkpt>
      <trkpt lat="43.56461" lon="5.5759">
        <ele>582</ele>
        <time>2017-12-21T09:55:43Z</time>
      </trkpt>
      <trkpt lat="43.56452" lon="5.57609">
        <ele>583</ele>
        <time>2017-12-21T09:55:52Z</time>
      </trkpt>
      <trkpt lat="43.56451" lon="5.57615">
        <ele>583</ele>
        <time>2017-12-21T09:56:01Z</time>
      </trkpt>
      <trkpt lat="43.5645" lon="5.57614">
        <ele>583</ele>
        <time>2017-12-21T09:56:15Z</time>
      </trkpt>
      <trkpt lat="43.56451" lon="5.57617">
        <ele>584</ele>
        <time>2017-12-21T09:56:22Z</time>
      </trkpt>
      <trkpt lat="43.56451" lon="5.57619">
        <ele>584</ele>
        <time>2017-12-21T09:56:23Z</time>
      </trkpt>
      <trkpt lat="43.56452" lon="5.57621">
        <ele>584</ele>
        <time>2017-12-21T09:56:24Z</time>
      </trkpt>
      <trkpt lat="43.56453" lon="5.57624">
        <ele>584</ele>
        <time>2017-12-21T09:56:25Z</time>
      </trkpt>
      <trkpt lat="43.56453" lon="5.57628">
        <ele>584</ele>
        <time>2017-12-21T09:56:26Z</time>
      </trkpt>
      <trkpt lat="43.56453" lon="5.57631">
        <ele>584</ele>
        <time>2017-12-21T09:56:27Z</time>
      </trkpt>
      <trkpt lat="43.56453" lon="5.57635">
        <ele>585</ele>
        <time>2017-12-21T09:56:28Z</time>
      </trkpt>
      <trkpt lat="43.56454" lon="5.57638">
        <ele>585</ele>
        <time>2017-12-21T09:56:29Z</time>
      </trkpt>
      <trkpt lat="43.56467" lon="5.5767">
        <ele>587</ele>
        <time>2017-12-21T09:56:40Z</time>
      </trkpt>
      <trkpt lat="43.56488" lon="5.5769">
        <ele>589</ele>
        <time>2017-12-21T09:56:50Z</time>
      </trkpt>
      <trkpt lat="43.56488" lon="5.57721">
        <ele>590</ele>
        <time>2017-12-21T09:56:59Z</time>
      </trkpt>
      <trkpt lat="43.5647" lon="5.57764">
        <ele>592</ele>
        <time>2017-12-21T09:57:13Z</time>
      </trkpt>
      <trkpt lat="43.56452" lon="5.57796">
        <ele>594</ele>
        <time>2017-12-21T09:57:23Z</time>
      </trkpt>
      <trkpt lat="43.56436" lon="5.57825">
        <ele>598</ele>
        <time>2017-12-21T09:57:33Z</time>
      </trkpt>
      <trkpt lat="43.56411" lon="5.57859">
        <ele>600</ele>
        <time>2017-12-21T09:57:46Z</time>
      </trkpt>
      <trkpt lat="43.56394" lon="5.57886">
        <ele>604</ele>
        <time>2017-12-21T09:57:56Z</time>
      </trkpt>
      <trkpt lat="43.56381" lon="5.57923">
        <ele>607</ele>
        <time>2017-12-21T09:58:07Z</time>
      </trkpt>
      <trkpt lat="43.56381" lon="5.57952">
        <ele>610</ele>
        <time>2017-12-21T09:58:15Z</time>
      </trkpt>
      <trkpt lat="43.56373" lon="5.57983">
        <ele>612</ele>
        <time>2017-12-21T09:58:24Z</time>
      </trkpt>
      <trkpt lat="43.56349" lon="5.58014">
        <ele>614</ele>
        <time>2017-12-21T09:58:37Z</time>
      </trkpt>
      <trkpt lat="43.56324" lon="5.58028">
        <ele>618</ele>
        <time>2017-12-21T09:58:47Z</time>
      </trkpt>
      <trkpt lat="43.56309" lon="5.58062">
        <ele>620</ele>
        <time>2017-12-21T09:58:58Z</time>
      </trkpt>
      <trkpt lat="43.56309" lon="5.58114">
        <ele>620</ele>
        <time>2017-12-21T09:59:10Z</time>
      </trkpt>
      <trkpt lat="43.56311" lon="5.5818">
        <ele>620</ele>
        <time>2017-12-21T09:59:23Z</time>
      </trkpt>
      <trkpt lat="43.56318" lon="5.58203">
        <ele>619</ele>
        <time>2017-12-21T09:59:27Z</time>
      </trkpt>
      <trkpt lat="43.56321" lon="5.5821">
        <ele>618</ele>
        <time>2017-12-21T09:59:28Z</time>
      </trkpt>
      <trkpt lat="43.56324" lon="5.58217">
        <ele>617</ele>
        <time>2017-12-21T09:59:29Z</time>
      </trkpt>
      <trkpt lat="43.56341" lon="5.58239">
        <ele>616</ele>
        <time>2017-12-21T09:59:35Z</time>
      </trkpt>
      <trkpt lat="43.56342" lon="5.58241">
        <ele>616</ele>
        <time>2017-12-21T09:59:36Z</time>
      </trkpt>
      <trkpt lat="43.56343" lon="5.58242">
        <ele>616</ele>
        <time>2017-12-21T09:59:37Z</time>
      </trkpt>
      <trkpt lat="43.56345" lon="5.58244">
        <ele>616</ele>
        <time>2017-12-21T09:59:38Z</time>
      </trkpt>
      <trkpt lat="43.56361" lon="5.5827">
        <ele>613</ele>
        <time>2017-12-21T09:59:44Z</time>
      </trkpt>
      <trkpt lat="43.56363" lon="5.58275">
        <ele>613</ele>
        <time>2017-12-21T09:59:45Z</time>
      </trkpt>
      <trkpt lat="43.5637" lon="5.58293">
        <ele>612</ele>
        <time>2017-12-21T09:59:48Z</time>
      </trkpt>
      <trkpt lat="43.56382" lon="5.58331">
        <ele>609</ele>
        <time>2017-12-21T09:59:53Z</time>
      </trkpt>
      <trkpt lat="43.56396" lon="5.58364">
        <ele>606</ele>
        <time>2017-12-21T09:59:57Z</time>
      </trkpt>
      <trkpt lat="43.56401" lon="5.58372">
        <ele>605</ele>
        <time>2017-12-21T09:59:58Z</time>
      </trkpt>
      <trkpt lat="43.56406" lon="5.58379">
        <ele>604</ele>
        <time>2017-12-21T09:59:59Z</time>
      </trkpt>
      <trkpt lat="43.56412" lon="5.58387">
        <ele>603</ele>
        <time>2017-12-21T10:00:00Z</time>
      </trkpt>
      <trkpt lat="43.56417" lon="5.58394">
        <ele>602</ele>
        <time>2017-12-21T10:00:01Z</time>
      </trkpt>
      <trkpt lat="43.56423" lon="5.58401">
        <ele>601</ele>
        <time>2017-12-21T10:00:02Z</time>
      </trkpt>
      <trkpt lat="43.56428" lon="5.5841">
        <ele>601</ele>
        <time>2017-12-21T10:00:03Z</time>
      </trkpt>
      <trkpt lat="43.56431" lon="5.58419">
        <ele>600</ele>
        <time>2017-12-21T10:00:04Z</time>
      </trkpt>
      <trkpt lat="43.56434" lon="5.58428">
        <ele>600</ele>
        <time>2017-12-21T10:00:05Z</time>
      </trkpt>
      <trkpt lat="43.56438" lon="5.58437">
        <ele>600</ele>
        <time>2017-12-21T10:00:06Z</time>
      </trkpt>
      <trkpt lat="43.56477" lon="5.58545">
        <ele>598</ele>
        <time>2017-12-21T10:00:19Z</time>
      </trkpt>
      <trkpt lat="43.56505" lon="5.58602">
        <ele>597</ele>
        <time>2017-12-21T10:00:29Z</time>
      </trkpt>
      <trkpt lat="43.56532" lon="5.58651">
        <ele>596</ele>
        <time>2017-12-21T10:00:40Z</time>
      </trkpt>
      <trkpt lat="43.56534" lon="5.58657">
        <ele>596</ele>
        <time>2017-12-21T10:00:48Z</time>
      </trkpt>
      <trkpt lat="43.56534" lon="5.58659">
        <ele>596</ele>
        <time>2017-12-21T10:01:06Z</time>
      </trkpt>
      <trkpt lat="43.56536" lon="5.58663">
        <ele>596</ele>
        <time>2017-12-21T10:01:09Z</time>
      </trkpt>
      <trkpt lat="43.56537" lon="5.58663">
        <ele>596</ele>
        <time>2017-12-21T10:01:10Z</time>
      </trkpt>
      <trkpt lat="43.56538" lon="5.58661">
        <ele>596</ele>
        <time>2017-12-21T10:01:11Z</time>
      </trkpt>
      <trkpt lat="43.56537" lon="5.58659">
        <ele>596</ele>
        <time>2017-12-21T10:01:12Z</time>
      </trkpt>
      <trkpt lat="43.56536" lon="5.58657">
        <ele>596</ele>
        <time>2017-12-21T10:01:13Z</time>
      </trkpt>
      <trkpt lat="43.56515" lon="5.5862">
        <ele>596</ele>
        <time>2017-12-21T10:01:24Z</time>
      </trkpt>
      <trkpt lat="43.56496" lon="5.58582">
        <ele>597</ele>
        <time>2017-12-21T10:01:36Z</time>
      </trkpt>
      <trkpt lat="43.56492" lon="5.58571">
        <ele>598</ele>
        <time>2017-12-21T10:01:41Z</time>
      </trkpt>
      <trkpt lat="43.56493" lon="5.58569">
        <ele>598</ele>
        <time>2017-12-21T10:01:42Z</time>
      </trkpt>
      <trkpt lat="43.56495" lon="5.58568">
        <ele>598</ele>
        <time>2017-12-21T10:01:43Z</time>
      </trkpt>
      <trkpt lat="43.56496" lon="5.58568">
        <ele>598</ele>
        <time>2017-12-21T10:01:44Z</time>
      </trkpt>
      <trkpt lat="43.56497" lon="5.58569">
        <ele>598</ele>
        <time>2017-12-21T10:01:45Z</time>
      </trkpt>
      <trkpt lat="43.56499" lon="5.58572">
        <ele>598</ele>
        <time>2017-12-21T10:01:46Z</time>
      </trkpt>
      <trkpt lat="43.56524" lon="5.58577">
        <ele>596</ele>
        <time>2017-12-21T10:01:55Z</time>
      </trkpt>
      <trkpt lat="43.56553" lon="5.58584">
        <ele>596</ele>
        <time>2017-12-21T10:02:05Z</time>
      </trkpt>
      <trkpt lat="43.5658" lon="5.58585">
        <ele>598</ele>
        <time>2017-12-21T10:02:14Z</time>
      </trkpt>
      <trkpt lat="43.56606" lon="5.58593">
        <ele>600</ele>
        <time>2017-12-21T10:02:23Z</time>
      </trkpt>
      <trkpt lat="43.56644" lon="5.58598">
        <ele>602</ele>
        <time>2017-12-21T10:02:37Z</time>
      </trkpt>
      <trkpt lat="43.56665" lon="5.58588">
        <ele>603</ele>
        <time>2017-12-21T10:02:46Z</time>
      </trkpt>
      <trkpt lat="43.56693" lon="5.58578">
        <ele>604</ele>
        <time>2017-12-21T10:02:57Z</time>
      </trkpt>
      <trkpt lat="43.5672" lon="5.58587">
        <ele>606</ele>
        <time>2017-12-21T10:03:08Z</time>
      </trkpt>
      <trkpt lat="43.56721" lon="5.58589">
        <ele>606</ele>
        <time>2017-12-21T10:03:09Z</time>
      </trkpt>
      <trkpt lat="43.56722" lon="5.5859">
        <ele>606</ele>
        <time>2017-12-21T10:03:10Z</time>
      </trkpt>
      <trkpt lat="43.56723" lon="5.58591">
        <ele>606</ele>
        <time>2017-12-21T10:03:11Z</time>
      </trkpt>
      <trkpt lat="43.56725" lon="5.58591">
        <ele>606</ele>
        <time>2017-12-21T10:03:12Z</time>
      </trkpt>
      <trkpt lat="43.56726" lon="5.5859">
        <ele>606</ele>
        <time>2017-12-21T10:03:13Z</time>
      </trkpt>
      <trkpt lat="43.56727" lon="5.58588">
        <ele>606</ele>
        <time>2017-12-21T10:03:14Z</time>
      </trkpt>
      <trkpt lat="43.56729" lon="5.58587">
        <ele>606</ele>
        <time>2017-12-21T10:03:15Z</time>
      </trkpt>
      <trkpt lat="43.56732" lon="5.58585">
        <ele>606</ele>
        <time>2017-12-21T10:03:16Z</time>
      </trkpt>
      <trkpt lat="43.56734" lon="5.58583">
        <ele>606</ele>
        <time>2017-12-21T10:03:17Z</time>
      </trkpt>
      <trkpt lat="43.56761" lon="5.58555">
        <ele>607</ele>
        <time>2017-12-21T10:03:29Z</time>
      </trkpt>
      <trkpt lat="43.56769" lon="5.58544">
        <ele>605</ele>
        <time>2017-12-21T10:03:32Z</time>
      </trkpt>
      <trkpt lat="43.56772" lon="5.58541">
        <ele>604</ele>
        <time>2017-12-21T10:03:33Z</time>
      </trkpt>
      <trkpt lat="43.56796" lon="5.58529">
        <ele>601</ele>
        <time>2017-12-21T10:03:40Z</time>
      </trkpt>
      <trkpt lat="43.56824" lon="5.58526">
        <ele>598</ele>
        <time>2017-12-21T10:03:47Z</time>
      </trkpt>
      <trkpt lat="43.56847" lon="5.58511">
        <ele>595</ele>
        <time>2017-12-21T10:03:54Z</time>
      </trkpt>
      <trkpt lat="43.56877" lon="5.58486">
        <ele>594</ele>
        <time>2017-12-21T10:04:03Z</time>
      </trkpt>
      <trkpt lat="43.5688" lon="5.58483">
        <ele>593</ele>
        <time>2017-12-21T10:04:09Z</time>
      </trkpt>
      <trkpt lat="43.56881" lon="5.58482">
        <ele>593</ele>
        <time>2017-12-21T10:04:18Z</time>
      </trkpt>
      <trkpt lat="43.5688" lon="5.58477">
        <ele>592</ele>
        <time>2017-12-21T10:04:25Z</time>
      </trkpt>
      <trkpt lat="43.56876" lon="5.58472">
        <ele>590</ele>
        <time>2017-12-21T10:04:34Z</time>
      </trkpt>
      <trkpt lat="43.56873" lon="5.58466">
        <ele>588</ele>
        <time>2017-12-21T10:04:44Z</time>
      </trkpt>
      <trkpt lat="43.56873" lon="5.58462">
        <ele>587</ele>
        <time>2017-12-21T10:04:59Z</time>
      </trkpt>
      <trkpt lat="43.56866" lon="5.5845">
        <ele>585</ele>
        <time>2017-12-21T10:05:08Z</time>
      </trkpt>
      <trkpt lat="43.56866" lon="5.58448">
        <ele>584</ele>
        <time>2017-12-21T10:05:09Z</time>
      </trkpt>
      <trkpt lat="43.56864" lon="5.58447">
        <ele>584</ele>
        <time>2017-12-21T10:05:10Z</time>
      </trkpt>
      <trkpt lat="43.56854" lon="5.58435">
        <ele>580</ele>
        <time>2017-12-21T10:05:17Z</time>
      </trkpt>
      <trkpt lat="43.56848" lon="5.58432">
        <ele>579</ele>
        <time>2017-12-21T10:05:26Z</time>
      </trkpt>
      <trkpt lat="43.56836" lon="5.58429">
        <ele>577</ele>
        <time>2017-12-21T10:05:35Z</time>
      </trkpt>
      <trkpt lat="43.56825" lon="5.58424">
        <ele>574</ele>
        <time>2017-12-21T10:05:39Z</time>
      </trkpt>
      <trkpt lat="43.56809" lon="5.58411">
        <ele>571</ele>
        <time>2017-12-21T10:05:45Z</time>
      </trkpt>
      <trkpt lat="43.56807" lon="5.5841">
        <ele>571</ele>
        <time>2017-12-21T10:05:46Z</time>
      </trkpt>
      <trkpt lat="43.568" lon="5.584">
        <ele>569</ele>
        <time>2017-12-21T10:05:50Z</time>
      </trkpt>
      <trkpt lat="43.56798" lon="5.58399">
        <ele>568</ele>
        <time>2017-12-21T10:05:51Z</time>
      </trkpt>
      <trkpt lat="43.56797" lon="5.58398">
        <ele>568</ele>
        <time>2017-12-21T10:05:52Z</time>
      </trkpt>
      <trkpt lat="43.56794" lon="5.58398">
        <ele>567</ele>
        <time>2017-12-21T10:05:53Z</time>
      </trkpt>
      <trkpt lat="43.56792" lon="5.58399">
        <ele>567</ele>
        <time>2017-12-21T10:05:54Z</time>
      </trkpt>
      <trkpt lat="43.5679" lon="5.58399">
        <ele>566</ele>
        <time>2017-12-21T10:05:55Z</time>
      </trkpt>
      <trkpt lat="43.56787" lon="5.58398">
        <ele>566</ele>
        <time>2017-12-21T10:05:56Z</time>
      </trkpt>
      <trkpt lat="43.56785" lon="5.58395">
        <ele>565</ele>
        <time>2017-12-21T10:05:57Z</time>
      </trkpt>
      <trkpt lat="43.56783" lon="5.58392">
        <ele>565</ele>
        <time>2017-12-21T10:05:58Z</time>
      </trkpt>
      <trkpt lat="43.56782" lon="5.58389">
        <ele>565</ele>
        <time>2017-12-21T10:05:59Z</time>
      </trkpt>
      <trkpt lat="43.56779" lon="5.58387">
        <ele>564</ele>
        <time>2017-12-21T10:06:00Z</time>
      </trkpt>
      <trkpt lat="43.56773" lon="5.58379">
        <ele>563</ele>
        <time>2017-12-21T10:06:03Z</time>
      </trkpt>
      <trkpt lat="43.56771" lon="5.58377">
        <ele>562</ele>
        <time>2017-12-21T10:06:04Z</time>
      </trkpt>
      <trkpt lat="43.56769" lon="5.58375">
        <ele>562</ele>
        <time>2017-12-21T10:06:05Z</time>
      </trkpt>
      <trkpt lat="43.56768" lon="5.58372">
        <ele>561</ele>
        <time>2017-12-21T10:06:06Z</time>
      </trkpt>
      <trkpt lat="43.56767" lon="5.58368">
        <ele>560</ele>
        <time>2017-12-21T10:06:07Z</time>
      </trkpt>
      <trkpt lat="43.56762" lon="5.58358">
        <ele>558</ele>
        <time>2017-12-21T10:06:10Z</time>
      </trkpt>
      <trkpt lat="43.56761" lon="5.58352">
        <ele>558</ele>
        <time>2017-12-21T10:06:12Z</time>
      </trkpt>
      <trkpt lat="43.56759" lon="5.58349">
        <ele>557</ele>
        <time>2017-12-21T10:06:13Z</time>
      </trkpt>
      <trkpt lat="43.56758" lon="5.58346">
        <ele>556</ele>
        <time>2017-12-21T10:06:14Z</time>
      </trkpt>
      <trkpt lat="43.56756" lon="5.58343">
        <ele>556</ele>
        <time>2017-12-21T10:06:15Z</time>
      </trkpt>
      <trkpt lat="43.56755" lon="5.58339">
        <ele>556</ele>
        <time>2017-12-21T10:06:16Z</time>
      </trkpt>
      <trkpt lat="43.56753" lon="5.58335">
        <ele>555</ele>
        <time>2017-12-21T10:06:23Z</time>
      </trkpt>
      <trkpt lat="43.56745" lon="5.58328">
        <ele>554</ele>
        <time>2017-12-21T10:06:38Z</time>
      </trkpt>
      <trkpt lat="43.56742" lon="5.58328">
        <ele>553</ele>
        <time>2017-12-21T10:06:39Z</time>
      </trkpt>
      <trkpt lat="43.56739" lon="5.58329">
        <ele>553</ele>
        <time>2017-12-21T10:06:40Z</time>
      </trkpt>
      <trkpt lat="43.56736" lon="5.58329">
        <ele>552</ele>
        <time>2017-12-21T10:06:41Z</time>
      </trkpt>
      <trkpt lat="43.56733" lon="5.58327">
        <ele>552</ele>
        <time>2017-12-21T10:06:42Z</time>
      </trkpt>
      <trkpt lat="43.5673" lon="5.58324">
        <ele>552</ele>
        <time>2017-12-21T10:06:43Z</time>
      </trkpt>
      <trkpt lat="43.56727" lon="5.58321">
        <ele>551</ele>
        <time>2017-12-21T10:06:44Z</time>
      </trkpt>
      <trkpt lat="43.56724" lon="5.58319">
        <ele>551</ele>
        <time>2017-12-21T10:06:45Z</time>
      </trkpt>
      <trkpt lat="43.56721" lon="5.58316">
        <ele>551</ele>
        <time>2017-12-21T10:06:46Z</time>
      </trkpt>
      <trkpt lat="43.56719" lon="5.58313">
        <ele>550</ele>
        <time>2017-12-21T10:06:47Z</time>
      </trkpt>
      <trkpt lat="43.56702" lon="5.58298">
        <ele>549</ele>
        <time>2017-12-21T10:06:53Z</time>
      </trkpt>
      <trkpt lat="43.56686" lon="5.58284">
        <ele>546</ele>
        <time>2017-12-21T10:06:59Z</time>
      </trkpt>
      <trkpt lat="43.56685" lon="5.58281">
        <ele>546</ele>
        <time>2017-12-21T10:07:00Z</time>
      </trkpt>
      <trkpt lat="43.56683" lon="5.58278">
        <ele>546</ele>
        <time>2017-12-21T10:07:01Z</time>
      </trkpt>
      <trkpt lat="43.56682" lon="5.58275">
        <ele>546</ele>
        <time>2017-12-21T10:07:02Z</time>
      </trkpt>
      <trkpt lat="43.56681" lon="5.58271">
        <ele>545</ele>
        <time>2017-12-21T10:07:03Z</time>
      </trkpt>
      <trkpt lat="43.5668" lon="5.58267">
        <ele>544</ele>
        <time>2017-12-21T10:07:04Z</time>
      </trkpt>
      <trkpt lat="43.56679" lon="5.58262">
        <ele>544</ele>
        <time>2017-12-21T10:07:05Z</time>
      </trkpt>
      <trkpt lat="43.56676" lon="5.5825">
        <ele>543</ele>
        <time>2017-12-21T10:07:08Z</time>
      </trkpt>
      <trkpt lat="43.56675" lon="5.58247">
        <ele>543</ele>
        <time>2017-12-21T10:07:09Z</time>
      </trkpt>
      <trkpt lat="43.56675" lon="5.58244">
        <ele>543</ele>
        <time>2017-12-21T10:07:10Z</time>
      </trkpt>
      <trkpt lat="43.56675" lon="5.58241">
        <ele>543</ele>
        <time>2017-12-21T10:07:11Z</time>
      </trkpt>
      <trkpt lat="43.56676" lon="5.58238">
        <ele>543</ele>
        <time>2017-12-21T10:07:12Z</time>
      </trkpt>
      <trkpt lat="43.56677" lon="5.58235">
        <ele>542</ele>
        <time>2017-12-21T10:07:13Z</time>
      </trkpt>
      <trkpt lat="43.56678" lon="5.58231">
        <ele>542</ele>
        <time>2017-12-21T10:07:14Z</time>
      </trkpt>
      <trkpt lat="43.56679" lon="5.58227">
        <ele>542</ele>
        <time>2017-12-21T10:07:15Z</time>
      </trkpt>
      <trkpt lat="43.5668" lon="5.58224">
        <ele>542</ele>
        <time>2017-12-21T10:07:16Z</time>
      </trkpt>
      <trkpt lat="43.56682" lon="5.5822">
        <ele>541</ele>
        <time>2017-12-21T10:07:17Z</time>
      </trkpt>
      <trkpt lat="43.56685" lon="5.58199">
        <ele>541</ele>
        <time>2017-12-21T10:07:23Z</time>
      </trkpt>
      <trkpt lat="43.56686" lon="5.58196">
        <ele>540</ele>
        <time>2017-12-21T10:07:24Z</time>
      </trkpt>
      <trkpt lat="43.5669" lon="5.58177">
        <ele>540</ele>
        <time>2017-12-21T10:07:33Z</time>
      </trkpt>
      <trkpt lat="43.56686" lon="5.58158">
        <ele>539</ele>
        <time>2017-12-21T10:07:43Z</time>
      </trkpt>
      <trkpt lat="43.56672" lon="5.58126">
        <ele>537</ele>
        <time>2017-12-21T10:07:51Z</time>
      </trkpt>
      <trkpt lat="43.56666" lon="5.58109">
        <ele>535</ele>
        <time>2017-12-21T10:07:55Z</time>
      </trkpt>
      <trkpt lat="43.56667" lon="5.58099">
        <ele>534</ele>
        <time>2017-12-21T10:07:57Z</time>
      </trkpt>
      <trkpt lat="43.56668" lon="5.58092">
        <ele>534</ele>
        <time>2017-12-21T10:07:58Z</time>
      </trkpt>
      <trkpt lat="43.56672" lon="5.58061">
        <ele>532</ele>
        <time>2017-12-21T10:08:03Z</time>
      </trkpt>
      <trkpt lat="43.56672" lon="5.58055">
        <ele>532</ele>
        <time>2017-12-21T10:08:04Z</time>
      </trkpt>
      <trkpt lat="43.56672" lon="5.58048">
        <ele>531</ele>
        <time>2017-12-21T10:08:05Z</time>
      </trkpt>
      <trkpt lat="43.56671" lon="5.58042">
        <ele>531</ele>
        <time>2017-12-21T10:08:06Z</time>
      </trkpt>
      <trkpt lat="43.5667" lon="5.58035">
        <ele>531</ele>
        <time>2017-12-21T10:08:07Z</time>
      </trkpt>
      <trkpt lat="43.5667" lon="5.58029">
        <ele>531</ele>
        <time>2017-12-21T10:08:08Z</time>
      </trkpt>
      <trkpt lat="43.5667" lon="5.58023">
        <ele>531</ele>
        <time>2017-12-21T10:08:09Z</time>
      </trkpt>
      <trkpt lat="43.5667" lon="5.58018">
        <ele>530</ele>
        <time>2017-12-21T10:08:10Z</time>
      </trkpt>
      <trkpt lat="43.5667" lon="5.58012">
        <ele>530</ele>
        <time>2017-12-21T10:08:11Z</time>
      </trkpt>
      <trkpt lat="43.5667" lon="5.58007">
        <ele>530</ele>
        <time>2017-12-21T10:08:12Z</time>
      </trkpt>
      <trkpt lat="43.56669" lon="5.58002">
        <ele>530</ele>
        <time>2017-12-21T10:08:13Z</time>
      </trkpt>
      <trkpt lat="43.5667" lon="5.57997">
        <ele>529</ele>
        <time>2017-12-21T10:08:14Z</time>
      </trkpt>
      <trkpt lat="43.56671" lon="5.57991">
        <ele>529</ele>
        <time>2017-12-21T10:08:15Z</time>
      </trkpt>
      <trkpt lat="43.56674" lon="5.57987">
        <ele>529</ele>
        <time>2017-12-21T10:08:16Z</time>
      </trkpt>
      <trkpt lat="43.56676" lon="5.57982">
        <ele>528</ele>
        <time>2017-12-21T10:08:17Z</time>
      </trkpt>
      <trkpt lat="43.56679" lon="5.57977">
        <ele>528</ele>
        <time>2017-12-21T10:08:18Z</time>
      </trkpt>
      <trkpt lat="43.5668" lon="5.57972">
        <ele>527</ele>
        <time>2017-12-21T10:08:19Z</time>
      </trkpt>
      <trkpt lat="43.56683" lon="5.57967">
        <ele>527</ele>
        <time>2017-12-21T10:08:20Z</time>
      </trkpt>
      <trkpt lat="43.56685" lon="5.57962">
        <ele>527</ele>
        <time>2017-12-21T10:08:21Z</time>
      </trkpt>
      <trkpt lat="43.56688" lon="5.57956">
        <ele>526</ele>
        <time>2017-12-21T10:08:22Z</time>
      </trkpt>
      <trkpt lat="43.56691" lon="5.57951">
        <ele>526</ele>
        <time>2017-12-21T10:08:23Z</time>
      </trkpt>
      <trkpt lat="43.56694" lon="5.57947">
        <ele>526</ele>
        <time>2017-12-21T10:08:24Z</time>
      </trkpt>
      <trkpt lat="43.56697" lon="5.57941">
        <ele>526</ele>
        <time>2017-12-21T10:08:25Z</time>
      </trkpt>
      <trkpt lat="43.56698" lon="5.57935">
        <ele>526</ele>
        <time>2017-12-21T10:08:26Z</time>
      </trkpt>
      <trkpt lat="43.56699" lon="5.57928">
        <ele>526</ele>
        <time>2017-12-21T10:08:27Z</time>
      </trkpt>
      <trkpt lat="43.567" lon="5.57922">
        <ele>525</ele>
        <time>2017-12-21T10:08:28Z</time>
      </trkpt>
      <trkpt lat="43.56701" lon="5.57915">
        <ele>525</ele>
        <time>2017-12-21T10:08:29Z</time>
      </trkpt>
      <trkpt lat="43.56702" lon="5.57909">
        <ele>524</ele>
        <time>2017-12-21T10:08:30Z</time>
      </trkpt>
      <trkpt lat="43.56703" lon="5.57902">
        <ele>524</ele>
        <time>2017-12-21T10:08:31Z</time>
      </trkpt>
      <trkpt lat="43.56704" lon="5.57896">
        <ele>523</ele>
        <time>2017-12-21T10:08:32Z</time>
      </trkpt>
      <trkpt lat="43.56705" lon="5.57891">
        <ele>523</ele>
        <time>2017-12-21T10:08:33Z</time>
      </trkpt>
      <trkpt lat="43.56705" lon="5.57885">
        <ele>523</ele>
        <time>2017-12-21T10:08:34Z</time>
      </trkpt>
      <trkpt lat="43.56706" lon="5.57881">
        <ele>523</ele>
        <time>2017-12-21T10:08:35Z</time>
      </trkpt>
      <trkpt lat="43.56706" lon="5.57877">
        <ele>523</ele>
        <time>2017-12-21T10:08:36Z</time>
      </trkpt>
      <trkpt lat="43.56707" lon="5.57875">
        <ele>523</ele>
        <time>2017-12-21T10:08:37Z</time>
      </trkpt>
      <trkpt lat="43.56707" lon="5.57873">
        <ele>523</ele>
        <time>2017-12-21T10:08:38Z</time>
      </trkpt>
      <trkpt lat="43.56709" lon="5.57863">
        <ele>522</ele>
        <time>2017-12-21T10:08:44Z</time>
      </trkpt>
      <trkpt lat="43.56723" lon="5.57832">
        <ele>520</ele>
        <time>2017-12-21T10:08:52Z</time>
      </trkpt>
      <trkpt lat="43.5673" lon="5.57824">
        <ele>520</ele>
        <time>2017-12-21T10:08:54Z</time>
      </trkpt>
      <trkpt lat="43.56743" lon="5.57808">
        <ele>517</ele>
        <time>2017-12-21T10:08:58Z</time>
      </trkpt>
      <trkpt lat="43.56747" lon="5.57804">
        <ele>517</ele>
        <time>2017-12-21T10:08:59Z</time>
      </trkpt>
      <trkpt lat="43.5675" lon="5.578">
        <ele>517</ele>
        <time>2017-12-21T10:09:00Z</time>
      </trkpt>
      <trkpt lat="43.56753" lon="5.57795">
        <ele>517</ele>
        <time>2017-12-21T10:09:01Z</time>
      </trkpt>
      <trkpt lat="43.56756" lon="5.5779">
        <ele>517</ele>
        <time>2017-12-21T10:09:02Z</time>
      </trkpt>
      <trkpt lat="43.56759" lon="5.57785">
        <ele>516</ele>
        <time>2017-12-21T10:09:03Z</time>
      </trkpt>
      <trkpt lat="43.56764" lon="5.57775">
        <ele>516</ele>
        <time>2017-12-21T10:09:05Z</time>
      </trkpt>
      <trkpt lat="43.56766" lon="5.57769">
        <ele>516</ele>
        <time>2017-12-21T10:09:06Z</time>
      </trkpt>
      <trkpt lat="43.56767" lon="5.57763">
        <ele>515</ele>
        <time>2017-12-21T10:09:07Z</time>
      </trkpt>
      <trkpt lat="43.56767" lon="5.57757">
        <ele>515</ele>
        <time>2017-12-21T10:09:08Z</time>
      </trkpt>
      <trkpt lat="43.56766" lon="5.57751">
        <ele>514</ele>
        <time>2017-12-21T10:09:09Z</time>
      </trkpt>
      <trkpt lat="43.56765" lon="5.57745">
        <ele>514</ele>
        <time>2017-12-21T10:09:10Z</time>
      </trkpt>
      <trkpt lat="43.56763" lon="5.57739">
        <ele>513</ele>
        <time>2017-12-21T10:09:11Z</time>
      </trkpt>
      <trkpt lat="43.56756" lon="5.57715">
        <ele>511</ele>
        <time>2017-12-21T10:09:15Z</time>
      </trkpt>
      <trkpt lat="43.56755" lon="5.5771">
        <ele>511</ele>
        <time>2017-12-21T10:09:16Z</time>
      </trkpt>
      <trkpt lat="43.56759" lon="5.57677">
        <ele>508</ele>
        <time>2017-12-21T10:09:24Z</time>
      </trkpt>
      <trkpt lat="43.56755" lon="5.57647">
        <ele>506</ele>
        <time>2017-12-21T10:09:34Z</time>
      </trkpt>
      <trkpt lat="43.56755" lon="5.57612">
        <ele>504</ele>
        <time>2017-12-21T10:09:41Z</time>
      </trkpt>
      <trkpt lat="43.56761" lon="5.57576">
        <ele>500</ele>
        <time>2017-12-21T10:09:48Z</time>
      </trkpt>
      <trkpt lat="43.56762" lon="5.57571">
        <ele>500</ele>
        <time>2017-12-21T10:09:49Z</time>
      </trkpt>
      <trkpt lat="43.56767" lon="5.57551">
        <ele>497</ele>
        <time>2017-12-21T10:09:53Z</time>
      </trkpt>
      <trkpt lat="43.56772" lon="5.57543">
        <ele>496</ele>
        <time>2017-12-21T10:09:55Z</time>
      </trkpt>
      <trkpt lat="43.56776" lon="5.57539">
        <ele>496</ele>
        <time>2017-12-21T10:09:56Z</time>
      </trkpt>
      <trkpt lat="43.5678" lon="5.57535">
        <ele>495</ele>
        <time>2017-12-21T10:09:57Z</time>
      </trkpt>
      <trkpt lat="43.56796" lon="5.57516">
        <ele>491</ele>
        <time>2017-12-21T10:10:02Z</time>
      </trkpt>
      <trkpt lat="43.56799" lon="5.57512">
        <ele>491</ele>
        <time>2017-12-21T10:10:03Z</time>
      </trkpt>
      <trkpt lat="43.56814" lon="5.57494">
        <ele>488</ele>
        <time>2017-12-21T10:10:08Z</time>
      </trkpt>
      <trkpt lat="43.56842" lon="5.57471">
        <ele>485</ele>
        <time>2017-12-21T10:10:16Z</time>
      </trkpt>
      <trkpt lat="43.56869" lon="5.57456">
        <ele>482</ele>
        <time>2017-12-21T10:10:23Z</time>
      </trkpt>
      <trkpt lat="43.56873" lon="5.57455">
        <ele>482</ele>
        <time>2017-12-21T10:10:24Z</time>
      </trkpt>
      <trkpt lat="43.56898" lon="5.57448">
        <ele>480</ele>
        <time>2017-12-21T10:10:33Z</time>
      </trkpt>
      <trkpt lat="43.56898" lon="5.57446">
        <ele>481</ele>
        <time>2017-12-21T10:10:51Z</time>
      </trkpt>
      <trkpt lat="43.56899" lon="5.57449">
        <ele>480</ele>
        <time>2017-12-21T10:11:04Z</time>
      </trkpt>
      <trkpt lat="43.569" lon="5.5745">
        <ele>480</ele>
        <time>2017-12-21T10:11:22Z</time>
      </trkpt>
      <trkpt lat="43.569" lon="5.57449">
        <ele>480</ele>
        <time>2017-12-21T10:11:39Z</time>
      </trkpt>
      <trkpt lat="43.56905" lon="5.57449">
        <ele>480</ele>
        <time>2017-12-21T10:11:48Z</time>
      </trkpt>
      <trkpt lat="43.56906" lon="5.57451">
        <ele>480</ele>
        <time>2017-12-21T10:11:49Z</time>
      </trkpt>
      <trkpt lat="43.56908" lon="5.57452">
        <ele>480</ele>
        <time>2017-12-21T10:11:50Z</time>
      </trkpt>
      <trkpt lat="43.56926" lon="5.57443">
        <ele>479</ele>
        <time>2017-12-21T10:11:57Z</time>
      </trkpt>
      <trkpt lat="43.5693" lon="5.57441">
        <ele>479</ele>
        <time>2017-12-21T10:11:58Z</time>
      </trkpt>
      <trkpt lat="43.56932" lon="5.57439">
        <ele>479</ele>
        <time>2017-12-21T10:11:59Z</time>
      </trkpt>
      <trkpt lat="43.56952" lon="5.57402">
        <ele>476</ele>
        <time>2017-12-21T10:12:09Z</time>
      </trkpt>
      <trkpt lat="43.56961" lon="5.57375">
        <ele>475</ele>
        <time>2017-12-21T10:12:14Z</time>
      </trkpt>
      <trkpt lat="43.56962" lon="5.5737">
        <ele>474</ele>
        <time>2017-12-21T10:12:15Z</time>
      </trkpt>
      <trkpt lat="43.56963" lon="5.57364">
        <ele>474</ele>
        <time>2017-12-21T10:12:16Z</time>
      </trkpt>
      <trkpt lat="43.56964" lon="5.57358">
        <ele>474</ele>
        <time>2017-12-21T10:12:17Z</time>
      </trkpt>
      <trkpt lat="43.56964" lon="5.57353">
        <ele>473</ele>
        <time>2017-12-21T10:12:18Z</time>
      </trkpt>
      <trkpt lat="43.56964" lon="5.57347">
        <ele>473</ele>
        <time>2017-12-21T10:12:19Z</time>
      </trkpt>
      <trkpt lat="43.56964" lon="5.5734">
        <ele>473</ele>
        <time>2017-12-21T10:12:20Z</time>
      </trkpt>
      <trkpt lat="43.56964" lon="5.57333">
        <ele>472</ele>
        <time>2017-12-21T10:12:21Z</time>
      </trkpt>
      <trkpt lat="43.56963" lon="5.57327">
        <ele>472</ele>
        <time>2017-12-21T10:12:22Z</time>
      </trkpt>
      <trkpt lat="43.56963" lon="5.5732">
        <ele>472</ele>
        <time>2017-12-21T10:12:23Z</time>
      </trkpt>
      <trkpt lat="43.56963" lon="5.57313">
        <ele>471</ele>
        <time>2017-12-21T10:12:24Z</time>
      </trkpt>
      <trkpt lat="43.56964" lon="5.57307">
        <ele>471</ele>
        <time>2017-12-21T10:12:25Z</time>
      </trkpt>
      <trkpt lat="43.56965" lon="5.573">
        <ele>470</ele>
        <time>2017-12-21T10:12:26Z</time>
      </trkpt>
      <trkpt lat="43.56966" lon="5.57293">
        <ele>470</ele>
        <time>2017-12-21T10:12:27Z</time>
      </trkpt>
      <trkpt lat="43.56968" lon="5.57287">
        <ele>470</ele>
        <time>2017-12-21T10:12:28Z</time>
      </trkpt>
      <trkpt lat="43.56969" lon="5.57281">
        <ele>469</ele>
        <time>2017-12-21T10:12:29Z</time>
      </trkpt>
      <trkpt lat="43.56971" lon="5.57274">
        <ele>469</ele>
        <time>2017-12-21T10:12:30Z</time>
      </trkpt>
      <trkpt lat="43.56973" lon="5.57268">
        <ele>469</ele>
        <time>2017-12-21T10:12:31Z</time>
      </trkpt>
      <trkpt lat="43.56976" lon="5.57256">
        <ele>469</ele>
        <time>2017-12-21T10:12:33Z</time>
      </trkpt>
      <trkpt lat="43.56977" lon="5.5725">
        <ele>468</ele>
        <time>2017-12-21T10:12:34Z</time>
      </trkpt>
      <trkpt lat="43.56984" lon="5.57228">
        <ele>467</ele>
        <time>2017-12-21T10:12:38Z</time>
      </trkpt>
      <trkpt lat="43.56992" lon="5.57214">
        <ele>467</ele>
        <time>2017-12-21T10:12:41Z</time>
      </trkpt>
      <trkpt lat="43.57012" lon="5.57193">
        <ele>466</ele>
        <time>2017-12-21T10:12:48Z</time>
      </trkpt>
      <trkpt lat="43.5702" lon="5.57183">
        <ele>466</ele>
        <time>2017-12-21T10:12:57Z</time>
      </trkpt>
      <trkpt lat="43.57024" lon="5.57177">
        <ele>466</ele>
        <time>2017-12-21T10:12:59Z</time>
      </trkpt>
      <trkpt lat="43.57024" lon="5.57174">
        <ele>465</ele>
        <time>2017-12-21T10:13:00Z</time>
      </trkpt>
      <trkpt lat="43.57025" lon="5.57171">
        <ele>465</ele>
        <time>2017-12-21T10:13:01Z</time>
      </trkpt>
      <trkpt lat="43.57026" lon="5.57167">
        <ele>465</ele>
        <time>2017-12-21T10:13:02Z</time>
      </trkpt>
      <trkpt lat="43.57026" lon="5.57164">
        <ele>464</ele>
        <time>2017-12-21T10:13:03Z</time>
      </trkpt>
      <trkpt lat="43.57028" lon="5.5716">
        <ele>464</ele>
        <time>2017-12-21T10:13:04Z</time>
      </trkpt>
      <trkpt lat="43.5703" lon="5.57156">
        <ele>463</ele>
        <time>2017-12-21T10:13:05Z</time>
      </trkpt>
      <trkpt lat="43.57032" lon="5.57151">
        <ele>463</ele>
        <time>2017-12-21T10:13:06Z</time>
      </trkpt>
      <trkpt lat="43.57034" lon="5.57147">
        <ele>463</ele>
        <time>2017-12-21T10:13:07Z</time>
      </trkpt>
      <trkpt lat="43.57036" lon="5.57143">
        <ele>463</ele>
        <time>2017-12-21T10:13:08Z</time>
      </trkpt>
      <trkpt lat="43.57054" lon="5.57117">
        <ele>462</ele>
        <time>2017-12-21T10:13:14Z</time>
      </trkpt>
      <trkpt lat="43.57065" lon="5.57111">
        <ele>462</ele>
        <time>2017-12-21T10:13:17Z</time>
      </trkpt>
      <trkpt lat="43.57069" lon="5.57109">
        <ele>461</ele>
        <time>2017-12-21T10:13:18Z</time>
      </trkpt>
      <trkpt lat="43.57073" lon="5.57107">
        <ele>461</ele>
        <time>2017-12-21T10:13:19Z</time>
      </trkpt>
      <trkpt lat="43.57078" lon="5.57105">
        <ele>461</ele>
        <time>2017-12-21T10:13:20Z</time>
      </trkpt>
      <trkpt lat="43.57083" lon="5.57104">
        <ele>461</ele>
        <time>2017-12-21T10:13:21Z</time>
      </trkpt>
      <trkpt lat="43.57087" lon="5.57103">
        <ele>461</ele>
        <time>2017-12-21T10:13:22Z</time>
      </trkpt>
      <trkpt lat="43.57091" lon="5.571">
        <ele>460</ele>
        <time>2017-12-21T10:13:23Z</time>
      </trkpt>
      <trkpt lat="43.57093" lon="5.57096">
        <ele>459</ele>
        <time>2017-12-21T10:13:24Z</time>
      </trkpt>
      <trkpt lat="43.57095" lon="5.57091">
        <ele>459</ele>
        <time>2017-12-21T10:13:25Z</time>
      </trkpt>
      <trkpt lat="43.57097" lon="5.57086">
        <ele>459</ele>
        <time>2017-12-21T10:13:26Z</time>
      </trkpt>
      <trkpt lat="43.57099" lon="5.57082">
        <ele>459</ele>
        <time>2017-12-21T10:13:27Z</time>
      </trkpt>
      <trkpt lat="43.57123" lon="5.57045">
        <ele>457</ele>
        <time>2017-12-21T10:13:36Z</time>
      </trkpt>
      <trkpt lat="43.57143" lon="5.57022">
        <ele>456</ele>
        <time>2017-12-21T10:13:43Z</time>
      </trkpt>
      <trkpt lat="43.57145" lon="5.57017">
        <ele>455</ele>
        <time>2017-12-21T10:13:44Z</time>
      </trkpt>
      <trkpt lat="43.57162" lon="5.56995">
        <ele>453</ele>
        <time>2017-12-21T10:13:50Z</time>
      </trkpt>
      <trkpt lat="43.57175" lon="5.56985">
        <ele>453</ele>
        <time>2017-12-21T10:13:53Z</time>
      </trkpt>
      <trkpt lat="43.5718" lon="5.56982">
        <ele>453</ele>
        <time>2017-12-21T10:13:54Z</time>
      </trkpt>
      <trkpt lat="43.57184" lon="5.5698">
        <ele>452</ele>
        <time>2017-12-21T10:13:55Z</time>
      </trkpt>
      <trkpt lat="43.57188" lon="5.56977">
        <ele>452</ele>
        <time>2017-12-21T10:13:56Z</time>
      </trkpt>
      <trkpt lat="43.57191" lon="5.56974">
        <ele>452</ele>
        <time>2017-12-21T10:13:57Z</time>
      </trkpt>
      <trkpt lat="43.57193" lon="5.5697">
        <ele>451</ele>
        <time>2017-12-21T10:13:58Z</time>
      </trkpt>
      <trkpt lat="43.57194" lon="5.56966">
        <ele>451</ele>
        <time>2017-12-21T10:13:59Z</time>
      </trkpt>
      <trkpt lat="43.57217" lon="5.56937">
        <ele>451</ele>
        <time>2017-12-21T10:14:09Z</time>
      </trkpt>
      <trkpt lat="43.57241" lon="5.56925">
        <ele>450</ele>
        <time>2017-12-21T10:14:18Z</time>
      </trkpt>
      <trkpt lat="43.57249" lon="5.56906">
        <ele>449</ele>
        <time>2017-12-21T10:14:26Z</time>
      </trkpt>
      <trkpt lat="43.57251" lon="5.56904">
        <ele>449</ele>
        <time>2017-12-21T10:14:33Z</time>
      </trkpt>
      <trkpt lat="43.57254" lon="5.56897">
        <ele>449</ele>
        <time>2017-12-21T10:14:48Z</time>
      </trkpt>
      <trkpt lat="43.57255" lon="5.5689">
        <ele>449</ele>
        <time>2017-12-21T10:14:51Z</time>
      </trkpt>
      <trkpt lat="43.57259" lon="5.56851">
        <ele>448</ele>
        <time>2017-12-21T10:15:00Z</time>
      </trkpt>
      <trkpt lat="43.57262" lon="5.56815">
        <ele>447</ele>
        <time>2017-12-21T10:15:07Z</time>
      </trkpt>
      <trkpt lat="43.57263" lon="5.56809">
        <ele>447</ele>
        <time>2017-12-21T10:15:08Z</time>
      </trkpt>
      <trkpt lat="43.57264" lon="5.56803">
        <ele>446</ele>
        <time>2017-12-21T10:15:09Z</time>
      </trkpt>
      <trkpt lat="43.57265" lon="5.56791">
        <ele>446</ele>
        <time>2017-12-21T10:15:11Z</time>
      </trkpt>
      <trkpt lat="43.57266" lon="5.56767">
        <ele>445</ele>
        <time>2017-12-21T10:15:15Z</time>
      </trkpt>
      <trkpt lat="43.57267" lon="5.56761">
        <ele>444</ele>
        <time>2017-12-21T10:15:16Z</time>
      </trkpt>
      <trkpt lat="43.57268" lon="5.56755">
        <ele>444</ele>
        <time>2017-12-21T10:15:17Z</time>
      </trkpt>
      <trkpt lat="43.57269" lon="5.56749">
        <ele>444</ele>
        <time>2017-12-21T10:15:18Z</time>
      </trkpt>
      <trkpt lat="43.5727" lon="5.56743">
        <ele>444</ele>
        <time>2017-12-21T10:15:19Z</time>
      </trkpt>
      <trkpt lat="43.57271" lon="5.56737">
        <ele>444</ele>
        <time>2017-12-21T10:15:20Z</time>
      </trkpt>
      <trkpt lat="43.57271" lon="5.56731">
        <ele>443</ele>
        <time>2017-12-21T10:15:21Z</time>
      </trkpt>
      <trkpt lat="43.5727" lon="5.56725">
        <ele>443</ele>
        <time>2017-12-21T10:15:22Z</time>
      </trkpt>
      <trkpt lat="43.5727" lon="5.56719">
        <ele>443</ele>
        <time>2017-12-21T10:15:23Z</time>
      </trkpt>
      <trkpt lat="43.57267" lon="5.5666">
        <ele>441</ele>
        <time>2017-12-21T10:15:33Z</time>
      </trkpt>
      <trkpt lat="43.57264" lon="5.56637">
        <ele>440</ele>
        <time>2017-12-21T10:15:37Z</time>
      </trkpt>
      <trkpt lat="43.57261" lon="5.56632">
        <ele>440</ele>
        <time>2017-12-21T10:15:38Z</time>
      </trkpt>
      <trkpt lat="43.5726" lon="5.56626">
        <ele>440</ele>
        <time>2017-12-21T10:15:39Z</time>
      </trkpt>
      <trkpt lat="43.57257" lon="5.56622">
        <ele>440</ele>
        <time>2017-12-21T10:15:40Z</time>
      </trkpt>
      <trkpt lat="43.57255" lon="5.56617">
        <ele>439</ele>
        <time>2017-12-21T10:15:41Z</time>
      </trkpt>
      <trkpt lat="43.57253" lon="5.56612">
        <ele>439</ele>
        <time>2017-12-21T10:15:42Z</time>
      </trkpt>
      <trkpt lat="43.57251" lon="5.56607">
        <ele>439</ele>
        <time>2017-12-21T10:15:43Z</time>
      </trkpt>
      <trkpt lat="43.57246" lon="5.56587">
        <ele>438</ele>
        <time>2017-12-21T10:15:47Z</time>
      </trkpt>
      <trkpt lat="43.57244" lon="5.56584">
        <ele>438</ele>
        <time>2017-12-21T10:15:48Z</time>
      </trkpt>
      <trkpt lat="43.57242" lon="5.5658">
        <ele>438</ele>
        <time>2017-12-21T10:15:49Z</time>
      </trkpt>
      <trkpt lat="43.57239" lon="5.56577">
        <ele>438</ele>
        <time>2017-12-21T10:15:50Z</time>
      </trkpt>
      <trkpt lat="43.57238" lon="5.56573">
        <ele>438</ele>
        <time>2017-12-21T10:15:51Z</time>
      </trkpt>
      <trkpt lat="43.57236" lon="5.56569">
        <ele>438</ele>
        <time>2017-12-21T10:15:52Z</time>
      </trkpt>
      <trkpt lat="43.57234" lon="5.56567">
        <ele>438</ele>
        <time>2017-12-21T10:15:53Z</time>
      </trkpt>
      <trkpt lat="43.5723" lon="5.56565">
        <ele>437</ele>
        <time>2017-12-21T10:15:54Z</time>
      </trkpt>
      <trkpt lat="43.57227" lon="5.56564">
        <ele>436</ele>
        <time>2017-12-21T10:15:55Z</time>
      </trkpt>
      <trkpt lat="43.57223" lon="5.56564">
        <ele>436</ele>
        <time>2017-12-21T10:15:56Z</time>
      </trkpt>
      <trkpt lat="43.57196" lon="5.56552">
        <ele>435</ele>
        <time>2017-12-21T10:16:05Z</time>
      </trkpt>
      <trkpt lat="43.57193" lon="5.56549">
        <ele>435</ele>
        <time>2017-12-21T10:16:07Z</time>
      </trkpt>
      <trkpt lat="43.57193" lon="5.56547">
        <ele>435</ele>
        <time>2017-12-21T10:16:08Z</time>
      </trkpt>
      <trkpt lat="43.57191" lon="5.56545">
        <ele>435</ele>
        <time>2017-12-21T10:16:09Z</time>
      </trkpt>
      <trkpt lat="43.57191" lon="5.56542">
        <ele>435</ele>
        <time>2017-12-21T10:16:10Z</time>
      </trkpt>
      <trkpt lat="43.5719" lon="5.56539">
        <ele>435</ele>
        <time>2017-12-21T10:16:11Z</time>
      </trkpt>
      <trkpt lat="43.5719" lon="5.56535">
        <ele>434</ele>
        <time>2017-12-21T10:16:12Z</time>
      </trkpt>
      <trkpt lat="43.5719" lon="5.56531">
        <ele>434</ele>
        <time>2017-12-21T10:16:13Z</time>
      </trkpt>
      <trkpt lat="43.57191" lon="5.56526">
        <ele>434</ele>
        <time>2017-12-21T10:16:14Z</time>
      </trkpt>
      <trkpt lat="43.57193" lon="5.56522">
        <ele>434</ele>
        <time>2017-12-21T10:16:15Z</time>
      </trkpt>
      <trkpt lat="43.57195" lon="5.56519">
        <ele>434</ele>
        <time>2017-12-21T10:16:16Z</time>
      </trkpt>
      <trkpt lat="43.57197" lon="5.56515">
        <ele>433</ele>
        <time>2017-12-21T10:16:17Z</time>
      </trkpt>
      <trkpt lat="43.57199" lon="5.56511">
        <ele>433</ele>
        <time>2017-12-21T10:16:18Z</time>
      </trkpt>
      <trkpt lat="43.57201" lon="5.56507">
        <ele>433</ele>
        <time>2017-12-21T10:16:19Z</time>
      </trkpt>
      <trkpt lat="43.57203" lon="5.56503">
        <ele>432</ele>
        <time>2017-12-21T10:16:20Z</time>
      </trkpt>
      <trkpt lat="43.57205" lon="5.56499">
        <ele>432</ele>
        <time>2017-12-21T10:16:21Z</time>
      </trkpt>
      <trkpt lat="43.57208" lon="5.56496">
        <ele>432</ele>
        <time>2017-12-21T10:16:22Z</time>
      </trkpt>
      <trkpt lat="43.5721" lon="5.56494">
        <ele>431</ele>
        <time>2017-12-21T10:16:23Z</time>
      </trkpt>
      <trkpt lat="43.57212" lon="5.56491">
        <ele>431</ele>
        <time>2017-12-21T10:16:24Z</time>
      </trkpt>
      <trkpt lat="43.57214" lon="5.56488">
        <ele>431</ele>
        <time>2017-12-21T10:16:25Z</time>
      </trkpt>
      <trkpt lat="43.57215" lon="5.56484">
        <ele>431</ele>
        <time>2017-12-21T10:16:26Z</time>
      </trkpt>
      <trkpt lat="43.57217" lon="5.56481">
        <ele>431</ele>
        <time>2017-12-21T10:16:27Z</time>
      </trkpt>
      <trkpt lat="43.57219" lon="5.56476">
        <ele>431</ele>
        <time>2017-12-21T10:16:28Z</time>
      </trkpt>
      <trkpt lat="43.57219" lon="5.56472">
        <ele>430</ele>
        <time>2017-12-21T10:16:29Z</time>
      </trkpt>
      <trkpt lat="43.57219" lon="5.56469">
        <ele>430</ele>
        <time>2017-12-21T10:16:30Z</time>
      </trkpt>
      <trkpt lat="43.5722" lon="5.56465">
        <ele>430</ele>
        <time>2017-12-21T10:16:31Z</time>
      </trkpt>
      <trkpt lat="43.57222" lon="5.56462">
        <ele>430</ele>
        <time>2017-12-21T10:16:32Z</time>
      </trkpt>
      <trkpt lat="43.57224" lon="5.56459">
        <ele>430</ele>
        <time>2017-12-21T10:16:33Z</time>
      </trkpt>
      <trkpt lat="43.57226" lon="5.56455">
        <ele>429</ele>
        <time>2017-12-21T10:16:34Z</time>
      </trkpt>
      <trkpt lat="43.57227" lon="5.56451">
        <ele>429</ele>
        <time>2017-12-21T10:16:35Z</time>
      </trkpt>
      <trkpt lat="43.57229" lon="5.56447">
        <ele>429</ele>
        <time>2017-12-21T10:16:36Z</time>
      </trkpt>
      <trkpt lat="43.5723" lon="5.56443">
        <ele>429</ele>
        <time>2017-12-21T10:16:37Z</time>
      </trkpt>
      <trkpt lat="43.57239" lon="5.56403">
        <ele>428</ele>
        <time>2017-12-21T10:16:46Z</time>
      </trkpt>
      <trkpt lat="43.57238" lon="5.56401">
        <ele>428</ele>
        <time>2017-12-21T10:16:47Z</time>
      </trkpt>
      <trkpt lat="43.57237" lon="5.56397">
        <ele>427</ele>
        <time>2017-12-21T10:16:48Z</time>
      </trkpt>
      <trkpt lat="43.57238" lon="5.56393">
        <ele>427</ele>
        <time>2017-12-21T10:16:49Z</time>
      </trkpt>
      <trkpt lat="43.57237" lon="5.56388">
        <ele>427</ele>
        <time>2017-12-21T10:16:50Z</time>
      </trkpt>
      <trkpt lat="43.57237" lon="5.56385">
        <ele>427</ele>
        <time>2017-12-21T10:16:51Z</time>
      </trkpt>
      <trkpt lat="43.57237" lon="5.56366">
        <ele>427</ele>
        <time>2017-12-21T10:16:56Z</time>
      </trkpt>
      <trkpt lat="43.57237" lon="5.56335">
        <ele>424</ele>
        <time>2017-12-21T10:17:04Z</time>
      </trkpt>
      <trkpt lat="43.57238" lon="5.56324">
        <ele>422</ele>
        <time>2017-12-21T10:17:07Z</time>
      </trkpt>
      <trkpt lat="43.57238" lon="5.5632">
        <ele>422</ele>
        <time>2017-12-21T10:17:08Z</time>
      </trkpt>
      <trkpt lat="43.57239" lon="5.56316">
        <ele>422</ele>
        <time>2017-12-21T10:17:09Z</time>
      </trkpt>
      <trkpt lat="43.57239" lon="5.56312">
        <ele>422</ele>
        <time>2017-12-21T10:17:10Z</time>
      </trkpt>
      <trkpt lat="43.57241" lon="5.56308">
        <ele>421</ele>
        <time>2017-12-21T10:17:11Z</time>
      </trkpt>
      <trkpt lat="43.57243" lon="5.56305">
        <ele>421</ele>
        <time>2017-12-21T10:17:12Z</time>
      </trkpt>
      <trkpt lat="43.57245" lon="5.56302">
        <ele>421</ele>
        <time>2017-12-21T10:17:13Z</time>
      </trkpt>
      <trkpt lat="43.57247" lon="5.563">
        <ele>421</ele>
        <time>2017-12-21T10:17:14Z</time>
      </trkpt>
      <trkpt lat="43.57254" lon="5.56289">
        <ele>421</ele>
        <time>2017-12-21T10:17:21Z</time>
      </trkpt>
      <trkpt lat="43.57259" lon="5.56281">
        <ele>421</ele>
        <time>2017-12-21T10:17:31Z</time>
      </trkpt>
      <trkpt lat="43.57259" lon="5.5628">
        <ele>421</ele>
        <time>2017-12-21T10:17:40Z</time>
      </trkpt>
      <trkpt lat="43.57262" lon="5.5628">
        <ele>422</ele>
        <time>2017-12-21T10:18:01Z</time>
      </trkpt>
      <trkpt lat="43.57264" lon="5.56279">
        <ele>422</ele>
        <time>2017-12-21T10:18:02Z</time>
      </trkpt>
      <trkpt lat="43.57266" lon="5.56278">
        <ele>422</ele>
        <time>2017-12-21T10:18:03Z</time>
      </trkpt>
      <trkpt lat="43.57269" lon="5.56277">
        <ele>422</ele>
        <time>2017-12-21T10:18:04Z</time>
      </trkpt>
      <trkpt lat="43.57272" lon="5.56276">
        <ele>420</ele>
        <time>2017-12-21T10:18:05Z</time>
      </trkpt>
      <trkpt lat="43.57276" lon="5.56275">
        <ele>419</ele>
        <time>2017-12-21T10:18:06Z</time>
      </trkpt>
      <trkpt lat="43.5728" lon="5.56273">
        <ele>418</ele>
        <time>2017-12-21T10:18:07Z</time>
      </trkpt>
      <trkpt lat="43.57295" lon="5.56267">
        <ele>417</ele>
        <time>2017-12-21T10:18:11Z</time>
      </trkpt>
      <trkpt lat="43.57299" lon="5.56268">
        <ele>417</ele>
        <time>2017-12-21T10:18:12Z</time>
      </trkpt>
      <trkpt lat="43.57315" lon="5.56271">
        <ele>416</ele>
        <time>2017-12-21T10:18:17Z</time>
      </trkpt>
      <trkpt lat="43.57317" lon="5.56269">
        <ele>416</ele>
        <time>2017-12-21T10:18:18Z</time>
      </trkpt>
      <trkpt lat="43.57319" lon="5.56266">
        <ele>416</ele>
        <time>2017-12-21T10:18:19Z</time>
      </trkpt>
      <trkpt lat="43.57319" lon="5.56263">
        <ele>416</ele>
        <time>2017-12-21T10:18:20Z</time>
      </trkpt>
      <trkpt lat="43.5732" lon="5.56259">
        <ele>416</ele>
        <time>2017-12-21T10:18:21Z</time>
      </trkpt>
      <trkpt lat="43.57321" lon="5.56254">
        <ele>415</ele>
        <time>2017-12-21T10:18:22Z</time>
      </trkpt>
      <trkpt lat="43.57321" lon="5.5625">
        <ele>415</ele>
        <time>2017-12-21T10:18:23Z</time>
      </trkpt>
      <trkpt lat="43.57321" lon="5.56246">
        <ele>414</ele>
        <time>2017-12-21T10:18:24Z</time>
      </trkpt>
      <trkpt lat="43.57322" lon="5.56242">
        <ele>414</ele>
        <time>2017-12-21T10:18:25Z</time>
      </trkpt>
      <trkpt lat="43.57329" lon="5.56207">
        <ele>413</ele>
        <time>2017-12-21T10:18:33Z</time>
      </trkpt>
      <trkpt lat="43.57332" lon="5.56205">
        <ele>413</ele>
        <time>2017-12-21T10:18:34Z</time>
      </trkpt>
      <trkpt lat="43.57336" lon="5.56204">
        <ele>413</ele>
        <time>2017-12-21T10:18:35Z</time>
      </trkpt>
      <trkpt lat="43.57354" lon="5.56202">
        <ele>411</ele>
        <time>2017-12-21T10:18:39Z</time>
      </trkpt>
      <trkpt lat="43.57358" lon="5.56203">
        <ele>411</ele>
        <time>2017-12-21T10:18:40Z</time>
      </trkpt>
      <trkpt lat="43.57362" lon="5.56204">
        <ele>411</ele>
        <time>2017-12-21T10:18:41Z</time>
      </trkpt>
      <trkpt lat="43.57366" lon="5.56204">
        <ele>411</ele>
        <time>2017-12-21T10:18:42Z</time>
      </trkpt>
      <trkpt lat="43.5737" lon="5.56203">
        <ele>410</ele>
        <time>2017-12-21T10:18:43Z</time>
      </trkpt>
      <trkpt lat="43.57385" lon="5.56203">
        <ele>410</ele>
        <time>2017-12-21T10:18:50Z</time>
      </trkpt>
      <trkpt lat="43.57386" lon="5.56201">
        <ele>410</ele>
        <time>2017-12-21T10:19:12Z</time>
      </trkpt>
      <trkpt lat="43.5739" lon="5.562">
        <ele>411</ele>
        <time>2017-12-21T10:19:19Z</time>
      </trkpt>
      <trkpt lat="43.57391" lon="5.56198">
        <ele>410</ele>
        <time>2017-12-21T10:19:20Z</time>
      </trkpt>
      <trkpt lat="43.57393" lon="5.56196">
        <ele>410</ele>
        <time>2017-12-21T10:19:21Z</time>
      </trkpt>
      <trkpt lat="43.57395" lon="5.56192">
        <ele>410</ele>
        <time>2017-12-21T10:19:22Z</time>
      </trkpt>
      <trkpt lat="43.57396" lon="5.56189">
        <ele>410</ele>
        <time>2017-12-21T10:19:23Z</time>
      </trkpt>
      <trkpt lat="43.57397" lon="5.56185">
        <ele>410</ele>
        <time>2017-12-21T10:19:24Z</time>
      </trkpt>
      <trkpt lat="43.574" lon="5.56154">
        <ele>409</ele>
        <time>2017-12-21T10:19:30Z</time>
      </trkpt>
      <trkpt lat="43.57402" lon="5.56149">
        <ele>408</ele>
        <time>2017-12-21T10:19:31Z</time>
      </trkpt>
      <trkpt lat="43.57404" lon="5.56144">
        <ele>408</ele>
        <time>2017-12-21T10:19:32Z</time>
      </trkpt>
      <trkpt lat="43.57407" lon="5.56139">
        <ele>407</ele>
        <time>2017-12-21T10:19:33Z</time>
      </trkpt>
      <trkpt lat="43.57411" lon="5.56135">
        <ele>407</ele>
        <time>2017-12-21T10:19:34Z</time>
      </trkpt>
      <trkpt lat="43.57415" lon="5.56132">
        <ele>407</ele>
        <time>2017-12-21T10:19:35Z</time>
      </trkpt>
      <trkpt lat="43.57419" lon="5.5613">
        <ele>407</ele>
        <time>2017-12-21T10:19:36Z</time>
      </trkpt>
      <trkpt lat="43.57424" lon="5.56128">
        <ele>406</ele>
        <time>2017-12-21T10:19:37Z</time>
      </trkpt>
      <trkpt lat="43.57429" lon="5.56127">
        <ele>406</ele>
        <time>2017-12-21T10:19:38Z</time>
      </trkpt>
      <trkpt lat="43.57438" lon="5.56126">
        <ele>406</ele>
        <time>2017-12-21T10:19:40Z</time>
      </trkpt>
      <trkpt lat="43.57444" lon="5.56127">
        <ele>405</ele>
        <time>2017-12-21T10:19:41Z</time>
      </trkpt>
      <trkpt lat="43.57454" lon="5.5613">
        <ele>405</ele>
        <time>2017-12-21T10:19:43Z</time>
      </trkpt>
      <trkpt lat="43.57459" lon="5.5613">
        <ele>405</ele>
        <time>2017-12-21T10:19:44Z</time>
      </trkpt>
      <trkpt lat="43.57463" lon="5.56129">
        <ele>404</ele>
        <time>2017-12-21T10:19:45Z</time>
      </trkpt>
      <trkpt lat="43.57478" lon="5.56123">
        <ele>403</ele>
        <time>2017-12-21T10:19:48Z</time>
      </trkpt>
      <trkpt lat="43.57482" lon="5.56119">
        <ele>403</ele>
        <time>2017-12-21T10:19:49Z</time>
      </trkpt>
      <trkpt lat="43.57508" lon="5.56093">
        <ele>401</ele>
        <time>2017-12-21T10:19:56Z</time>
      </trkpt>
      <trkpt lat="43.5751" lon="5.56088">
        <ele>401</ele>
        <time>2017-12-21T10:19:57Z</time>
      </trkpt>
      <trkpt lat="43.57514" lon="5.56083">
        <ele>401</ele>
        <time>2017-12-21T10:19:58Z</time>
      </trkpt>
      <trkpt lat="43.57527" lon="5.56065">
        <ele>401</ele>
        <time>2017-12-21T10:20:02Z</time>
      </trkpt>
      <trkpt lat="43.57531" lon="5.56062">
        <ele>401</ele>
        <time>2017-12-21T10:20:03Z</time>
      </trkpt>
      <trkpt lat="43.57552" lon="5.5605">
        <ele>400</ele>
        <time>2017-12-21T10:20:08Z</time>
      </trkpt>
      <trkpt lat="43.57556" lon="5.56048">
        <ele>400</ele>
        <time>2017-12-21T10:20:09Z</time>
      </trkpt>
      <trkpt lat="43.5756" lon="5.56047">
        <ele>400</ele>
        <time>2017-12-21T10:20:10Z</time>
      </trkpt>
      <trkpt lat="43.57565" lon="5.56047">
        <ele>399</ele>
        <time>2017-12-21T10:20:11Z</time>
      </trkpt>
      <trkpt lat="43.57569" lon="5.56047">
        <ele>399</ele>
        <time>2017-12-21T10:20:12Z</time>
      </trkpt>
      <trkpt lat="43.57617" lon="5.56041">
        <ele>397</ele>
        <time>2017-12-21T10:20:25Z</time>
      </trkpt>
      <trkpt lat="43.57629" lon="5.56037">
        <ele>397</ele>
        <time>2017-12-21T10:20:32Z</time>
      </trkpt>
      <trkpt lat="43.57634" lon="5.56036">
        <ele>397</ele>
        <time>2017-12-21T10:20:48Z</time>
      </trkpt>
      <trkpt lat="43.57655" lon="5.56025">
        <ele>396</ele>
        <time>2017-12-21T10:20:55Z</time>
      </trkpt>
      <trkpt lat="43.57678" lon="5.56014">
        <ele>395</ele>
        <time>2017-12-21T10:21:01Z</time>
      </trkpt>
      <trkpt lat="43.57681" lon="5.56011">
        <ele>395</ele>
        <time>2017-12-21T10:21:02Z</time>
      </trkpt>
      <trkpt lat="43.57685" lon="5.56008">
        <ele>395</ele>
        <time>2017-12-21T10:21:03Z</time>
      </trkpt>
      <trkpt lat="43.57714" lon="5.55981">
        <ele>394</ele>
        <time>2017-12-21T10:21:11Z</time>
      </trkpt>
      <trkpt lat="43.57718" lon="5.55979">
        <ele>393</ele>
        <time>2017-12-21T10:21:12Z</time>
      </trkpt>
      <trkpt lat="43.57722" lon="5.55977">
        <ele>393</ele>
        <time>2017-12-21T10:21:13Z</time>
      </trkpt>
      <trkpt lat="43.57727" lon="5.55976">
        <ele>393</ele>
        <time>2017-12-21T10:21:14Z</time>
      </trkpt>
      <trkpt lat="43.57731" lon="5.55977">
        <ele>393</ele>
        <time>2017-12-21T10:21:15Z</time>
      </trkpt>
      <trkpt lat="43.57736" lon="5.55979">
        <ele>393</ele>
        <time>2017-12-21T10:21:16Z</time>
      </trkpt>
      <trkpt lat="43.5774" lon="5.55981">
        <ele>393</ele>
        <time>2017-12-21T10:21:17Z</time>
      </trkpt>
      <trkpt lat="43.57743" lon="5.55984">
        <ele>393</ele>
        <time>2017-12-21T10:21:18Z</time>
      </trkpt>
      <trkpt lat="43.57747" lon="5.55988">
        <ele>392</ele>
        <time>2017-12-21T10:21:19Z</time>
      </trkpt>
      <trkpt lat="43.5775" lon="5.55992">
        <ele>392</ele>
        <time>2017-12-21T10:21:20Z</time>
      </trkpt>
      <trkpt lat="43.57756" lon="5.56003">
        <ele>391</ele>
        <time>2017-12-21T10:21:22Z</time>
      </trkpt>
      <trkpt lat="43.57759" lon="5.56008">
        <ele>391</ele>
        <time>2017-12-21T10:21:23Z</time>
      </trkpt>
      <trkpt lat="43.57763" lon="5.56012">
        <ele>391</ele>
        <time>2017-12-21T10:21:24Z</time>
      </trkpt>
      <trkpt lat="43.57767" lon="5.56014">
        <ele>390</ele>
        <time>2017-12-21T10:21:25Z</time>
      </trkpt>
      <trkpt lat="43.57772" lon="5.56015">
        <ele>390</ele>
        <time>2017-12-21T10:21:26Z</time>
      </trkpt>
      <trkpt lat="43.57777" lon="5.56015">
        <ele>390</ele>
        <time>2017-12-21T10:21:27Z</time>
      </trkpt>
      <trkpt lat="43.57782" lon="5.56013">
        <ele>390</ele>
        <time>2017-12-21T10:21:28Z</time>
      </trkpt>
      <trkpt lat="43.57786" lon="5.56011">
        <ele>390</ele>
        <time>2017-12-21T10:21:29Z</time>
      </trkpt>
      <trkpt lat="43.57808" lon="5.56001">
        <ele>389</ele>
        <time>2017-12-21T10:21:34Z</time>
      </trkpt>
      <trkpt lat="43.57822" lon="5.55996">
        <ele>388</ele>
        <time>2017-12-21T10:21:38Z</time>
      </trkpt>
      <trkpt lat="43.57833" lon="5.55997">
        <ele>387</ele>
        <time>2017-12-21T10:21:44Z</time>
      </trkpt>
      <trkpt lat="43.57835" lon="5.55997">
        <ele>386</ele>
        <time>2017-12-21T10:22:03Z</time>
      </trkpt>
      <trkpt lat="43.57837" lon="5.55997">
        <ele>386</ele>
        <time>2017-12-21T10:22:11Z</time>
      </trkpt>
      <trkpt lat="43.57837" lon="5.55995">
        <ele>386</ele>
        <time>2017-12-21T10:22:12Z</time>
      </trkpt>
      <trkpt lat="43.57837" lon="5.55993">
        <ele>386</ele>
        <time>2017-12-21T10:22:13Z</time>
      </trkpt>
      <trkpt lat="43.57842" lon="5.55967">
        <ele>386</ele>
        <time>2017-12-21T10:22:22Z</time>
      </trkpt>
      <trkpt lat="43.57875" lon="5.55934">
        <ele>385</ele>
        <time>2017-12-21T10:22:32Z</time>
      </trkpt>
      <trkpt lat="43.57914" lon="5.55885">
        <ele>384</ele>
        <time>2017-12-21T10:22:44Z</time>
      </trkpt>
      <trkpt lat="43.5794" lon="5.55837">
        <ele>384</ele>
        <time>2017-12-21T10:22:53Z</time>
      </trkpt>
      <trkpt lat="43.57942" lon="5.55831">
        <ele>384</ele>
        <time>2017-12-21T10:22:54Z</time>
      </trkpt>
      <trkpt lat="43.57946" lon="5.55818">
        <ele>383</ele>
        <time>2017-12-21T10:22:56Z</time>
      </trkpt>
      <trkpt lat="43.57953" lon="5.55781">
        <ele>383</ele>
        <time>2017-12-21T10:23:02Z</time>
      </trkpt>
      <trkpt lat="43.57955" lon="5.55775">
        <ele>383</ele>
        <time>2017-12-21T10:23:03Z</time>
      </trkpt>
      <trkpt lat="43.57956" lon="5.5577">
        <ele>383</ele>
        <time>2017-12-21T10:23:04Z</time>
      </trkpt>
      <trkpt lat="43.57958" lon="5.55764">
        <ele>382</ele>
        <time>2017-12-21T10:23:05Z</time>
      </trkpt>
      <trkpt lat="43.5796" lon="5.55758">
        <ele>382</ele>
        <time>2017-12-21T10:23:06Z</time>
      </trkpt>
      <trkpt lat="43.57962" lon="5.55752">
        <ele>382</ele>
        <time>2017-12-21T10:23:07Z</time>
      </trkpt>
      <trkpt lat="43.57964" lon="5.55747">
        <ele>382</ele>
        <time>2017-12-21T10:23:08Z</time>
      </trkpt>
      <trkpt lat="43.57979" lon="5.55712">
        <ele>382</ele>
        <time>2017-12-21T10:23:14Z</time>
      </trkpt>
      <trkpt lat="43.57984" lon="5.55693">
        <ele>381</ele>
        <time>2017-12-21T10:23:17Z</time>
      </trkpt>
      <trkpt lat="43.57996" lon="5.55618">
        <ele>381</ele>
        <time>2017-12-21T10:23:29Z</time>
      </trkpt>
      <trkpt lat="43.58004" lon="5.55573">
        <ele>380</ele>
        <time>2017-12-21T10:23:38Z</time>
      </trkpt>
      <trkpt lat="43.58012" lon="5.55559">
        <ele>380</ele>
        <time>2017-12-21T10:23:43Z</time>
      </trkpt>
      <trkpt lat="43.58036" lon="5.5555">
        <ele>382</ele>
        <time>2017-12-21T10:23:52Z</time>
      </trkpt>
      <trkpt lat="43.58074" lon="5.5555">
        <ele>384</ele>
        <time>2017-12-21T10:24:05Z</time>
      </trkpt>
      <trkpt lat="43.5809" lon="5.55545">
        <ele>386</ele>
        <time>2017-12-21T10:24:11Z</time>
      </trkpt>
      <trkpt lat="43.58091" lon="5.55542">
        <ele>386</ele>
        <time>2017-12-21T10:24:12Z</time>
      </trkpt>
      <trkpt lat="43.58091" lon="5.55539">
        <ele>386</ele>
        <time>2017-12-21T10:24:13Z</time>
      </trkpt>
      <trkpt lat="43.5809" lon="5.55536">
        <ele>386</ele>
        <time>2017-12-21T10:24:14Z</time>
      </trkpt>
      <trkpt lat="43.58088" lon="5.55533">
        <ele>386</ele>
        <time>2017-12-21T10:24:15Z</time>
      </trkpt>
      <trkpt lat="43.58068" lon="5.55527">
        <ele>389</ele>
        <time>2017-12-21T10:24:25Z</time>
      </trkpt>
      <trkpt lat="43.58052" lon="5.55521">
        <ele>391</ele>
        <time>2017-12-21T10:24:33Z</time>
      </trkpt>
      <trkpt lat="43.58041" lon="5.555">
        <ele>394</ele>
        <time>2017-12-21T10:24:42Z</time>
      </trkpt>
      <trkpt lat="43.58039" lon="5.55461">
        <ele>398</ele>
        <time>2017-12-21T10:24:55Z</time>
      </trkpt>
      <trkpt lat="43.58033" lon="5.55419">
        <ele>401</ele>
        <time>2017-12-21T10:25:09Z</time>
      </trkpt>
      <trkpt lat="43.58022" lon="5.5538">
        <ele>403</ele>
        <time>2017-12-21T10:25:22Z</time>
      </trkpt>
      <trkpt lat="43.5801" lon="5.55343">
        <ele>406</ele>
        <time>2017-12-21T10:25:35Z</time>
      </trkpt>
      <trkpt lat="43.57998" lon="5.55309">
        <ele>408</ele>
        <time>2017-12-21T10:25:47Z</time>
      </trkpt>
      <trkpt lat="43.57992" lon="5.55277">
        <ele>411</ele>
        <time>2017-12-21T10:25:58Z</time>
      </trkpt>
      <trkpt lat="43.5799" lon="5.55262">
        <ele>412</ele>
        <time>2017-12-21T10:26:03Z</time>
      </trkpt>
      <trkpt lat="43.5799" lon="5.55259">
        <ele>412</ele>
        <time>2017-12-21T10:26:04Z</time>
      </trkpt>
      <trkpt lat="43.57987" lon="5.5522">
        <ele>415</ele>
        <time>2017-12-21T10:26:17Z</time>
      </trkpt>
      <trkpt lat="43.57984" lon="5.55183">
        <ele>417</ele>
        <time>2017-12-21T10:26:29Z</time>
      </trkpt>
      <trkpt lat="43.57987" lon="5.55145">
        <ele>420</ele>
        <time>2017-12-21T10:26:42Z</time>
      </trkpt>
      <trkpt lat="43.57998" lon="5.55114">
        <ele>423</ele>
        <time>2017-12-21T10:26:53Z</time>
      </trkpt>
      <trkpt lat="43.58014" lon="5.55081">
        <ele>426</ele>
        <time>2017-12-21T10:27:06Z</time>
      </trkpt>
      <trkpt lat="43.58016" lon="5.55053">
        <ele>428</ele>
        <time>2017-12-21T10:27:16Z</time>
      </trkpt>
      <trkpt lat="43.58014" lon="5.55045">
        <ele>429</ele>
        <time>2017-12-21T10:27:19Z</time>
      </trkpt>
      <trkpt lat="43.58014" lon="5.55042">
        <ele>429</ele>
        <time>2017-12-21T10:27:20Z</time>
      </trkpt>
      <trkpt lat="43.58016" lon="5.5504">
        <ele>429</ele>
        <time>2017-12-21T10:27:21Z</time>
      </trkpt>
      <trkpt lat="43.58017" lon="5.55039">
        <ele>430</ele>
        <time>2017-12-21T10:27:22Z</time>
      </trkpt>
      <trkpt lat="43.58019" lon="5.55039">
        <ele>430</ele>
        <time>2017-12-21T10:27:23Z</time>
      </trkpt>
      <trkpt lat="43.58021" lon="5.55041">
        <ele>430</ele>
        <time>2017-12-21T10:27:24Z</time>
      </trkpt>
      <trkpt lat="43.58022" lon="5.55042">
        <ele>430</ele>
        <time>2017-12-21T10:27:25Z</time>
      </trkpt>
      <trkpt lat="43.58024" lon="5.55045">
        <ele>430</ele>
        <time>2017-12-21T10:27:26Z</time>
      </trkpt>
      <trkpt lat="43.58035" lon="5.55075">
        <ele>433</ele>
        <time>2017-12-21T10:27:38Z</time>
      </trkpt>
      <trkpt lat="43.58035" lon="5.55088">
        <ele>434</ele>
        <time>2017-12-21T10:27:43Z</time>
      </trkpt>
      <trkpt lat="43.58037" lon="5.55091">
        <ele>435</ele>
        <time>2017-12-21T10:27:44Z</time>
      </trkpt>
      <trkpt lat="43.58039" lon="5.55092">
        <ele>435</ele>
        <time>2017-12-21T10:27:45Z</time>
      </trkpt>
      <trkpt lat="43.58041" lon="5.55092">
        <ele>435</ele>
        <time>2017-12-21T10:27:46Z</time>
      </trkpt>
      <trkpt lat="43.58043" lon="5.55091">
        <ele>435</ele>
        <time>2017-12-21T10:27:47Z</time>
      </trkpt>
      <trkpt lat="43.58044" lon="5.55089">
        <ele>436</ele>
        <time>2017-12-21T10:27:48Z</time>
      </trkpt>
      <trkpt lat="43.58045" lon="5.55086">
        <ele>436</ele>
        <time>2017-12-21T10:27:49Z</time>
      </trkpt>
      <trkpt lat="43.58045" lon="5.55083">
        <ele>436</ele>
        <time>2017-12-21T10:27:50Z</time>
      </trkpt>
      <trkpt lat="43.58045" lon="5.5508">
        <ele>436</ele>
        <time>2017-12-21T10:27:51Z</time>
      </trkpt>
      <trkpt lat="43.58045" lon="5.55076">
        <ele>436</ele>
        <time>2017-12-21T10:27:52Z</time>
      </trkpt>
      <trkpt lat="43.58055" lon="5.5505">
        <ele>438</ele>
        <time>2017-12-21T10:28:02Z</time>
      </trkpt>
      <trkpt lat="43.5806" lon="5.55049">
        <ele>438</ele>
        <time>2017-12-21T10:28:04Z</time>
      </trkpt>
      <trkpt lat="43.58062" lon="5.55049">
        <ele>439</ele>
        <time>2017-12-21T10:28:05Z</time>
      </trkpt>
      <trkpt lat="43.58064" lon="5.55049">
        <ele>439</ele>
        <time>2017-12-21T10:28:06Z</time>
      </trkpt>
      <trkpt lat="43.58066" lon="5.5505">
        <ele>439</ele>
        <time>2017-12-21T10:28:07Z</time>
      </trkpt>
      <trkpt lat="43.58068" lon="5.55051">
        <ele>440</ele>
        <time>2017-12-21T10:28:08Z</time>
      </trkpt>
      <trkpt lat="43.58077" lon="5.55073">
        <ele>444</ele>
        <time>2017-12-21T10:28:17Z</time>
      </trkpt>
      <trkpt lat="43.58084" lon="5.55101">
        <ele>446</ele>
        <time>2017-12-21T10:28:27Z</time>
      </trkpt>
      <trkpt lat="43.5809" lon="5.55131">
        <ele>450</ele>
        <time>2017-12-21T10:28:38Z</time>
      </trkpt>
      <trkpt lat="43.58097" lon="5.55167">
        <ele>452</ele>
        <time>2017-12-21T10:28:51Z</time>
      </trkpt>
      <trkpt lat="43.58104" lon="5.552">
        <ele>456</ele>
        <time>2017-12-21T10:29:03Z</time>
      </trkpt>
      <trkpt lat="43.5811" lon="5.55233">
        <ele>459</ele>
        <time>2017-12-21T10:29:15Z</time>
      </trkpt>
      <trkpt lat="43.58118" lon="5.55267">
        <ele>462</ele>
        <time>2017-12-21T10:29:28Z</time>
      </trkpt>
      <trkpt lat="43.58134" lon="5.55293">
        <ele>465</ele>
        <time>2017-12-21T10:29:40Z</time>
      </trkpt>
      <trkpt lat="43.58155" lon="5.55311">
        <ele>468</ele>
        <time>2017-12-21T10:29:52Z</time>
      </trkpt>
      <trkpt lat="43.58178" lon="5.55322">
        <ele>472</ele>
        <time>2017-12-21T10:30:04Z</time>
      </trkpt>
      <trkpt lat="43.58204" lon="5.55334">
        <ele>475</ele>
        <time>2017-12-21T10:30:17Z</time>
      </trkpt>
      <trkpt lat="43.58234" lon="5.55338">
        <ele>476</ele>
        <time>2017-12-21T10:30:31Z</time>
      </trkpt>
      <trkpt lat="43.58236" lon="5.55339">
        <ele>476</ele>
        <time>2017-12-21T10:30:37Z</time>
      </trkpt>
      <trkpt lat="43.58237" lon="5.5534">
        <ele>476</ele>
        <time>2017-12-21T10:31:17Z</time>
      </trkpt>
      <trkpt lat="43.58236" lon="5.55339">
        <ele>476</ele>
        <time>2017-12-21T10:31:43Z</time>
      </trkpt>
      <trkpt lat="43.58243" lon="5.55336">
        <ele>476</ele>
        <time>2017-12-21T10:31:54Z</time>
      </trkpt>
      <trkpt lat="43.58243" lon="5.55337">
        <ele>476</ele>
        <time>2017-12-21T10:32:04Z</time>
      </trkpt>
      <trkpt lat="43.58244" lon="5.55337">
        <ele>476</ele>
        <time>2017-12-21T10:32:05Z</time>
      </trkpt>
      <trkpt lat="43.58245" lon="5.55338">
        <ele>476</ele>
        <time>2017-12-21T10:32:06Z</time>
      </trkpt>
      <trkpt lat="43.58247" lon="5.55338">
        <ele>476</ele>
        <time>2017-12-21T10:32:07Z</time>
      </trkpt>
      <trkpt lat="43.5825" lon="5.55338">
        <ele>476</ele>
        <time>2017-12-21T10:32:08Z</time>
      </trkpt>
      <trkpt lat="43.58253" lon="5.55338">
        <ele>476</ele>
        <time>2017-12-21T10:32:09Z</time>
      </trkpt>
      <trkpt lat="43.58276" lon="5.55345">
        <ele>475</ele>
        <time>2017-12-21T10:32:16Z</time>
      </trkpt>
      <trkpt lat="43.58304" lon="5.55359">
        <ele>474</ele>
        <time>2017-12-21T10:32:24Z</time>
      </trkpt>
      <trkpt lat="43.58308" lon="5.5536">
        <ele>473</ele>
        <time>2017-12-21T10:32:25Z</time>
      </trkpt>
      <trkpt lat="43.58312" lon="5.5536">
        <ele>473</ele>
        <time>2017-12-21T10:32:26Z</time>
      </trkpt>
      <trkpt lat="43.58315" lon="5.55362">
        <ele>473</ele>
        <time>2017-12-21T10:32:27Z</time>
      </trkpt>
      <trkpt lat="43.58318" lon="5.55364">
        <ele>473</ele>
        <time>2017-12-21T10:32:28Z</time>
      </trkpt>
      <trkpt lat="43.5832" lon="5.55367">
        <ele>473</ele>
        <time>2017-12-21T10:32:29Z</time>
      </trkpt>
      <trkpt lat="43.58348" lon="5.55381">
        <ele>475</ele>
        <time>2017-12-21T10:32:39Z</time>
      </trkpt>
      <trkpt lat="43.58369" lon="5.55385">
        <ele>478</ele>
        <time>2017-12-21T10:32:48Z</time>
      </trkpt>
      <trkpt lat="43.58389" lon="5.55395">
        <ele>481</ele>
        <time>2017-12-21T10:32:58Z</time>
      </trkpt>
      <trkpt lat="43.58411" lon="5.5541">
        <ele>485</ele>
        <time>2017-12-21T10:33:09Z</time>
      </trkpt>
      <trkpt lat="43.58436" lon="5.55408">
        <ele>488</ele>
        <time>2017-12-21T10:33:20Z</time>
      </trkpt>
      <trkpt lat="43.58455" lon="5.55426">
        <ele>490</ele>
        <time>2017-12-21T10:33:30Z</time>
      </trkpt>
      <trkpt lat="43.58467" lon="5.55461">
        <ele>492</ele>
        <time>2017-12-21T10:33:41Z</time>
      </trkpt>
      <trkpt lat="43.58483" lon="5.55519">
        <ele>493</ele>
        <time>2017-12-21T10:33:56Z</time>
      </trkpt>
      <trkpt lat="43.58504" lon="5.55574">
        <ele>494</ele>
        <time>2017-12-21T10:34:11Z</time>
      </trkpt>
      <trkpt lat="43.58532" lon="5.556">
        <ele>492</ele>
        <time>2017-12-21T10:34:20Z</time>
      </trkpt>
      <trkpt lat="43.58544" lon="5.55607">
        <ele>492</ele>
        <time>2017-12-21T10:34:23Z</time>
      </trkpt>
      <trkpt lat="43.58548" lon="5.5561">
        <ele>491</ele>
        <time>2017-12-21T10:34:24Z</time>
      </trkpt>
      <trkpt lat="43.58552" lon="5.55612">
        <ele>491</ele>
        <time>2017-12-21T10:34:25Z</time>
      </trkpt>
      <trkpt lat="43.58557" lon="5.55614">
        <ele>491</ele>
        <time>2017-12-21T10:34:26Z</time>
      </trkpt>
      <trkpt lat="43.58562" lon="5.55616">
        <ele>490</ele>
        <time>2017-12-21T10:34:27Z</time>
      </trkpt>
      <trkpt lat="43.58597" lon="5.55635">
        <ele>489</ele>
        <time>2017-12-21T10:34:34Z</time>
      </trkpt>
      <trkpt lat="43.586" lon="5.55637">
        <ele>489</ele>
        <time>2017-12-21T10:34:35Z</time>
      </trkpt>
      <trkpt lat="43.58603" lon="5.55639">
        <ele>489</ele>
        <time>2017-12-21T10:34:36Z</time>
      </trkpt>
      <trkpt lat="43.58607" lon="5.5564">
        <ele>489</ele>
        <time>2017-12-21T10:34:37Z</time>
      </trkpt>
      <trkpt lat="43.58611" lon="5.55641">
        <ele>489</ele>
        <time>2017-12-21T10:34:38Z</time>
      </trkpt>
      <trkpt lat="43.58641" lon="5.55649">
        <ele>490</ele>
        <time>2017-12-21T10:34:47Z</time>
      </trkpt>
      <trkpt lat="43.58667" lon="5.55645">
        <ele>492</ele>
        <time>2017-12-21T10:34:55Z</time>
      </trkpt>
      <trkpt lat="43.58695" lon="5.55653">
        <ele>493</ele>
        <time>2017-12-21T10:35:04Z</time>
      </trkpt>
      <trkpt lat="43.58719" lon="5.55689">
        <ele>495</ele>
        <time>2017-12-21T10:35:14Z</time>
      </trkpt>
      <trkpt lat="43.58733" lon="5.55703">
        <ele>496</ele>
        <time>2017-12-21T10:35:19Z</time>
      </trkpt>
      <trkpt lat="43.58759" lon="5.55708">
        <ele>499</ele>
        <time>2017-12-21T10:35:28Z</time>
      </trkpt>
      <trkpt lat="43.58797" lon="5.55708">
        <ele>501</ele>
        <time>2017-12-21T10:35:39Z</time>
      </trkpt>
      <trkpt lat="43.58837" lon="5.55693">
        <ele>503</ele>
        <time>2017-12-21T10:35:51Z</time>
      </trkpt>
      <trkpt lat="43.58863" lon="5.55677">
        <ele>504</ele>
        <time>2017-12-21T10:35:59Z</time>
      </trkpt>
      <trkpt lat="43.58895" lon="5.55653">
        <ele>504</ele>
        <time>2017-12-21T10:36:09Z</time>
      </trkpt>
      <trkpt lat="43.58925" lon="5.55659">
        <ele>504</ele>
        <time>2017-12-21T10:36:18Z</time>
      </trkpt>
      <trkpt lat="43.58945" lon="5.55687">
        <ele>503</ele>
        <time>2017-12-21T10:36:26Z</time>
      </trkpt>
      <trkpt lat="43.58971" lon="5.55716">
        <ele>504</ele>
        <time>2017-12-21T10:36:36Z</time>
      </trkpt>
      <trkpt lat="43.59003" lon="5.55751">
        <ele>504</ele>
        <time>2017-12-21T10:36:48Z</time>
      </trkpt>
      <trkpt lat="43.59041" lon="5.55792">
        <ele>504</ele>
        <time>2017-12-21T10:37:01Z</time>
      </trkpt>
      <trkpt lat="43.59081" lon="5.55807">
        <ele>506</ele>
        <time>2017-12-21T10:37:13Z</time>
      </trkpt>
      <trkpt lat="43.59108" lon="5.55825">
        <ele>509</ele>
        <time>2017-12-21T10:37:23Z</time>
      </trkpt>
      <trkpt lat="43.59137" lon="5.55843">
        <ele>512</ele>
        <time>2017-12-21T10:37:35Z</time>
      </trkpt>
      <trkpt lat="43.59172" lon="5.55857">
        <ele>513</ele>
        <time>2017-12-21T10:37:48Z</time>
      </trkpt>
      <trkpt lat="43.59207" lon="5.55853">
        <ele>513</ele>
        <time>2017-12-21T10:37:58Z</time>
      </trkpt>
      <trkpt lat="43.59264" lon="5.55859">
        <ele>515</ele>
        <time>2017-12-21T10:38:14Z</time>
      </trkpt>
      <trkpt lat="43.593" lon="5.55852">
        <ele>516</ele>
        <time>2017-12-21T10:38:23Z</time>
      </trkpt>
      <trkpt lat="43.59304" lon="5.55852">
        <ele>517</ele>
        <time>2017-12-21T10:38:24Z</time>
      </trkpt>
      <trkpt lat="43.59308" lon="5.55851">
        <ele>517</ele>
        <time>2017-12-21T10:38:25Z</time>
      </trkpt>
      <trkpt lat="43.59313" lon="5.55851">
        <ele>517</ele>
        <time>2017-12-21T10:38:26Z</time>
      </trkpt>
      <trkpt lat="43.59317" lon="5.5585">
        <ele>517</ele>
        <time>2017-12-21T10:38:27Z</time>
      </trkpt>
      <trkpt lat="43.59321" lon="5.55849">
        <ele>517</ele>
        <time>2017-12-21T10:38:28Z</time>
      </trkpt>
      <trkpt lat="43.59365" lon="5.55835">
        <ele>516</ele>
        <time>2017-12-21T10:38:39Z</time>
      </trkpt>
      <trkpt lat="43.5937" lon="5.55836">
        <ele>515</ele>
        <time>2017-12-21T10:38:40Z</time>
      </trkpt>
      <trkpt lat="43.59375" lon="5.55838">
        <ele>515</ele>
        <time>2017-12-21T10:38:41Z</time>
      </trkpt>
      <trkpt lat="43.5938" lon="5.5584">
        <ele>514</ele>
        <time>2017-12-21T10:38:42Z</time>
      </trkpt>
      <trkpt lat="43.59385" lon="5.55842">
        <ele>514</ele>
        <time>2017-12-21T10:38:43Z</time>
      </trkpt>
      <trkpt lat="43.59408" lon="5.55853">
        <ele>514</ele>
        <time>2017-12-21T10:38:48Z</time>
      </trkpt>
      <trkpt lat="43.59441" lon="5.55862">
        <ele>515</ele>
        <time>2017-12-21T10:38:57Z</time>
      </trkpt>
      <trkpt lat="43.59475" lon="5.55864">
        <ele>516</ele>
        <time>2017-12-21T10:39:06Z</time>
      </trkpt>
      <trkpt lat="43.59492" lon="5.5589">
        <ele>517</ele>
        <time>2017-12-21T10:39:14Z</time>
      </trkpt>
      <trkpt lat="43.59504" lon="5.55907">
        <ele>515</ele>
        <time>2017-12-21T10:39:18Z</time>
      </trkpt>
      <trkpt lat="43.59518" lon="5.5593">
        <ele>513</ele>
        <time>2017-12-21T10:39:23Z</time>
      </trkpt>
      <trkpt lat="43.59525" lon="5.55939">
        <ele>512</ele>
        <time>2017-12-21T10:39:25Z</time>
      </trkpt>
      <trkpt lat="43.59531" lon="5.55948">
        <ele>512</ele>
        <time>2017-12-21T10:39:27Z</time>
      </trkpt>
      <trkpt lat="43.59534" lon="5.55954">
        <ele>511</ele>
        <time>2017-12-21T10:39:28Z</time>
      </trkpt>
      <trkpt lat="43.59542" lon="5.55984">
        <ele>510</ele>
        <time>2017-12-21T10:39:35Z</time>
      </trkpt>
      <trkpt lat="43.59541" lon="5.55988">
        <ele>510</ele>
        <time>2017-12-21T10:39:36Z</time>
      </trkpt>
      <trkpt lat="43.59526" lon="5.5603">
        <ele>510</ele>
        <time>2017-12-21T10:39:45Z</time>
      </trkpt>
      <trkpt lat="43.59534" lon="5.56079">
        <ele>512</ele>
        <time>2017-12-21T10:39:55Z</time>
      </trkpt>
      <trkpt lat="43.59541" lon="5.56149">
        <ele>514</ele>
        <time>2017-12-21T10:40:08Z</time>
      </trkpt>
      <trkpt lat="43.59543" lon="5.5623">
        <ele>515</ele>
        <time>2017-12-21T10:40:23Z</time>
      </trkpt>
      <trkpt lat="43.59536" lon="5.5628">
        <ele>517</ele>
        <time>2017-12-21T10:40:33Z</time>
      </trkpt>
      <trkpt lat="43.59537" lon="5.5632">
        <ele>519</ele>
        <time>2017-12-21T10:40:41Z</time>
      </trkpt>
      <trkpt lat="43.59532" lon="5.56366">
        <ele>522</ele>
        <time>2017-12-21T10:40:51Z</time>
      </trkpt>
      <trkpt lat="43.59543" lon="5.56419">
        <ele>523</ele>
        <time>2017-12-21T10:41:02Z</time>
      </trkpt>
      <trkpt lat="43.59548" lon="5.56463">
        <ele>525</ele>
        <time>2017-12-21T10:41:11Z</time>
      </trkpt>
      <trkpt lat="43.59549" lon="5.5652">
        <ele>527</ele>
        <time>2017-12-21T10:41:23Z</time>
      </trkpt>
      <trkpt lat="43.59549" lon="5.5655">
        <ele>528</ele>
        <time>2017-12-21T10:41:31Z</time>
      </trkpt>
      <trkpt lat="43.5955" lon="5.56551">
        <ele>528</ele>
        <time>2017-12-21T10:41:32Z</time>
      </trkpt>
      <trkpt lat="43.59562" lon="5.56579">
        <ele>528</ele>
        <time>2017-12-21T10:41:40Z</time>
      </trkpt>
      <trkpt lat="43.59578" lon="5.56606">
        <ele>529</ele>
        <time>2017-12-21T10:41:49Z</time>
      </trkpt>
      <trkpt lat="43.59597" lon="5.56597">
        <ele>530</ele>
        <time>2017-12-21T10:41:57Z</time>
      </trkpt>
      <trkpt lat="43.59624" lon="5.56575">
        <ele>530</ele>
        <time>2017-12-21T10:42:06Z</time>
      </trkpt>
      <trkpt lat="43.59648" lon="5.56544">
        <ele>530</ele>
        <time>2017-12-21T10:42:14Z</time>
      </trkpt>
      <trkpt lat="43.5968" lon="5.56495">
        <ele>530</ele>
        <time>2017-12-21T10:42:26Z</time>
      </trkpt>
      <trkpt lat="43.59702" lon="5.56462">
        <ele>530</ele>
        <time>2017-12-21T10:42:37Z</time>
      </trkpt>
      <trkpt lat="43.59703" lon="5.56458">
        <ele>530</ele>
        <time>2017-12-21T10:42:38Z</time>
      </trkpt>
      <trkpt lat="43.59703" lon="5.5643">
        <ele>530</ele>
        <time>2017-12-21T10:42:47Z</time>
      </trkpt>
      <trkpt lat="43.59702" lon="5.56427">
        <ele>531</ele>
        <time>2017-12-21T10:42:54Z</time>
      </trkpt>
      <trkpt lat="43.59703" lon="5.56428">
        <ele>531</ele>
        <time>2017-12-21T10:43:19Z</time>
      </trkpt>
      <trkpt lat="43.59703" lon="5.56424">
        <ele>531</ele>
        <time>2017-12-21T10:43:23Z</time>
      </trkpt>
      <trkpt lat="43.59707" lon="5.56416">
        <ele>531</ele>
        <time>2017-12-21T10:43:27Z</time>
      </trkpt>
      <trkpt lat="43.59728" lon="5.56419">
        <ele>532</ele>
        <time>2017-12-21T10:43:36Z</time>
      </trkpt>
      <trkpt lat="43.59743" lon="5.56429">
        <ele>533</ele>
        <time>2017-12-21T10:43:44Z</time>
      </trkpt>
      <trkpt lat="43.59765" lon="5.56411">
        <ele>535</ele>
        <time>2017-12-21T10:43:54Z</time>
      </trkpt>
      <trkpt lat="43.59772" lon="5.56405">
        <ele>536</ele>
        <time>2017-12-21T10:44:02Z</time>
      </trkpt>
      <trkpt lat="43.59774" lon="5.56404">
        <ele>535</ele>
        <time>2017-12-21T10:44:17Z</time>
      </trkpt>
      <trkpt lat="43.59773" lon="5.56403">
        <ele>535</ele>
        <time>2017-12-21T10:44:37Z</time>
      </trkpt>
      <trkpt lat="43.59773" lon="5.56404">
        <ele>536</ele>
        <time>2017-12-21T10:45:02Z</time>
      </trkpt>
      <trkpt lat="43.5977" lon="5.56404">
        <ele>536</ele>
        <time>2017-12-21T10:45:28Z</time>
      </trkpt>
      <trkpt lat="43.59771" lon="5.56402">
        <ele>536</ele>
        <time>2017-12-21T10:45:50Z</time>
      </trkpt>
      <trkpt lat="43.59774" lon="5.56405">
        <ele>536</ele>
        <time>2017-12-21T10:45:59Z</time>
      </trkpt>
      <trkpt lat="43.59772" lon="5.56409">
        <ele>536</ele>
        <time>2017-12-21T10:46:03Z</time>
      </trkpt>
      <trkpt lat="43.5977" lon="5.56409">
        <ele>536</ele>
        <time>2017-12-21T10:46:04Z</time>
      </trkpt>
      <trkpt lat="43.59759" lon="5.56419">
        <ele>534</ele>
        <time>2017-12-21T10:46:09Z</time>
      </trkpt>
      <trkpt lat="43.59721" lon="5.56443">
        <ele>532</ele>
        <time>2017-12-21T10:46:21Z</time>
      </trkpt>
      <trkpt lat="43.59708" lon="5.56459">
        <ele>531</ele>
        <time>2017-12-21T10:46:29Z</time>
      </trkpt>
      <trkpt lat="43.59703" lon="5.56468">
        <ele>531</ele>
        <time>2017-12-21T10:46:34Z</time>
      </trkpt>
      <trkpt lat="43.59703" lon="5.56472">
        <ele>531</ele>
        <time>2017-12-21T10:46:35Z</time>
      </trkpt>
      <trkpt lat="43.59704" lon="5.56475">
        <ele>531</ele>
        <time>2017-12-21T10:46:36Z</time>
      </trkpt>
      <trkpt lat="43.59705" lon="5.56512">
        <ele>531</ele>
        <time>2017-12-21T10:46:46Z</time>
      </trkpt>
      <trkpt lat="43.59704" lon="5.56519">
        <ele>532</ele>
        <time>2017-12-21T10:46:48Z</time>
      </trkpt>
      <trkpt lat="43.59714" lon="5.56554">
        <ele>534</ele>
        <time>2017-12-21T10:46:58Z</time>
      </trkpt>
      <trkpt lat="43.59732" lon="5.56565">
        <ele>535</ele>
        <time>2017-12-21T10:47:06Z</time>
      </trkpt>
      <trkpt lat="43.59747" lon="5.56591">
        <ele>536</ele>
        <time>2017-12-21T10:47:15Z</time>
      </trkpt>
      <trkpt lat="43.59759" lon="5.56617">
        <ele>538</ele>
        <time>2017-12-21T10:47:24Z</time>
      </trkpt>
      <trkpt lat="43.59775" lon="5.56647">
        <ele>539</ele>
        <time>2017-12-21T10:47:34Z</time>
      </trkpt>
      <trkpt lat="43.59781" lon="5.56683">
        <ele>540</ele>
        <time>2017-12-21T10:47:44Z</time>
      </trkpt>
      <trkpt lat="43.5978" lon="5.567">
        <ele>541</ele>
        <time>2017-12-21T10:47:50Z</time>
      </trkpt>
      <trkpt lat="43.59782" lon="5.56702">
        <ele>541</ele>
        <time>2017-12-21T10:47:51Z</time>
      </trkpt>
      <trkpt lat="43.59783" lon="5.56704">
        <ele>541</ele>
        <time>2017-12-21T10:47:52Z</time>
      </trkpt>
      <trkpt lat="43.59789" lon="5.56714">
        <ele>542</ele>
        <time>2017-12-21T10:47:56Z</time>
      </trkpt>
      <trkpt lat="43.59791" lon="5.56716">
        <ele>542</ele>
        <time>2017-12-21T10:47:57Z</time>
      </trkpt>
      <trkpt lat="43.59798" lon="5.56742">
        <ele>543</ele>
        <time>2017-12-21T10:48:05Z</time>
      </trkpt>
      <trkpt lat="43.59808" lon="5.56786">
        <ele>545</ele>
        <time>2017-12-21T10:48:17Z</time>
      </trkpt>
      <trkpt lat="43.59811" lon="5.56795">
        <ele>546</ele>
        <time>2017-12-21T10:48:21Z</time>
      </trkpt>
      <trkpt lat="43.59812" lon="5.56805">
        <ele>546</ele>
        <time>2017-12-21T10:48:28Z</time>
      </trkpt>
      <trkpt lat="43.59809" lon="5.56814">
        <ele>545</ele>
        <time>2017-12-21T10:48:32Z</time>
      </trkpt>
      <trkpt lat="43.59806" lon="5.56825">
        <ele>546</ele>
        <time>2017-12-21T10:48:36Z</time>
      </trkpt>
      <trkpt lat="43.59803" lon="5.56838">
        <ele>546</ele>
        <time>2017-12-21T10:48:43Z</time>
      </trkpt>
      <trkpt lat="43.59803" lon="5.56841">
        <ele>546</ele>
        <time>2017-12-21T10:48:44Z</time>
      </trkpt>
      <trkpt lat="43.59803" lon="5.56844">
        <ele>546</ele>
        <time>2017-12-21T10:48:45Z</time>
      </trkpt>
      <trkpt lat="43.59803" lon="5.56846">
        <ele>547</ele>
        <time>2017-12-21T10:48:46Z</time>
      </trkpt>
      <trkpt lat="43.59803" lon="5.56848">
        <ele>547</ele>
        <time>2017-12-21T10:48:47Z</time>
      </trkpt>
      <trkpt lat="43.59802" lon="5.56854">
        <ele>547</ele>
        <time>2017-12-21T10:48:51Z</time>
      </trkpt>
      <trkpt lat="43.59801" lon="5.56856">
        <ele>547</ele>
        <time>2017-12-21T10:48:52Z</time>
      </trkpt>
      <trkpt lat="43.59797" lon="5.56861">
        <ele>547</ele>
        <time>2017-12-21T10:49:02Z</time>
      </trkpt>
      <trkpt lat="43.59796" lon="5.56861">
        <ele>547</ele>
        <time>2017-12-21T10:49:03Z</time>
      </trkpt>
      <trkpt lat="43.59795" lon="5.56863">
        <ele>547</ele>
        <time>2017-12-21T10:49:04Z</time>
      </trkpt>
      <trkpt lat="43.59793" lon="5.5687">
        <ele>547</ele>
        <time>2017-12-21T10:49:09Z</time>
      </trkpt>
      <trkpt lat="43.59793" lon="5.56872">
        <ele>547</ele>
        <time>2017-12-21T10:49:10Z</time>
      </trkpt>
      <trkpt lat="43.59794" lon="5.56874">
        <ele>547</ele>
        <time>2017-12-21T10:49:11Z</time>
      </trkpt>
      <trkpt lat="43.59794" lon="5.56877">
        <ele>547</ele>
        <time>2017-12-21T10:49:12Z</time>
      </trkpt>
      <trkpt lat="43.59795" lon="5.5688">
        <ele>547</ele>
        <time>2017-12-21T10:49:13Z</time>
      </trkpt>
      <trkpt lat="43.59796" lon="5.56882">
        <ele>547</ele>
        <time>2017-12-21T10:49:14Z</time>
      </trkpt>
      <trkpt lat="43.59796" lon="5.56884">
        <ele>547</ele>
        <time>2017-12-21T10:49:15Z</time>
      </trkpt>
      <trkpt lat="43.59796" lon="5.56886">
        <ele>547</ele>
        <time>2017-12-21T10:49:16Z</time>
      </trkpt>
      <trkpt lat="43.59797" lon="5.56888">
        <ele>547</ele>
        <time>2017-12-21T10:49:17Z</time>
      </trkpt>
      <trkpt lat="43.59798" lon="5.56889">
        <ele>548</ele>
        <time>2017-12-21T10:49:18Z</time>
      </trkpt>
      <trkpt lat="43.59799" lon="5.5689">
        <ele>548</ele>
        <time>2017-12-21T10:49:19Z</time>
      </trkpt>
      <trkpt lat="43.59801" lon="5.56897">
        <ele>548</ele>
        <time>2017-12-21T10:49:23Z</time>
      </trkpt>
      <trkpt lat="43.598" lon="5.56899">
        <ele>548</ele>
        <time>2017-12-21T10:49:24Z</time>
      </trkpt>
      <trkpt lat="43.59788" lon="5.56921">
        <ele>548</ele>
        <time>2017-12-21T10:49:35Z</time>
      </trkpt>
      <trkpt lat="43.59787" lon="5.56923">
        <ele>548</ele>
        <time>2017-12-21T10:49:36Z</time>
      </trkpt>
      <trkpt lat="43.59787" lon="5.56925">
        <ele>548</ele>
        <time>2017-12-21T10:49:37Z</time>
      </trkpt>
      <trkpt lat="43.59786" lon="5.56928">
        <ele>548</ele>
        <time>2017-12-21T10:49:38Z</time>
      </trkpt>
      <trkpt lat="43.59785" lon="5.5693">
        <ele>548</ele>
        <time>2017-12-21T10:49:39Z</time>
      </trkpt>
      <trkpt lat="43.59783" lon="5.56931">
        <ele>549</ele>
        <time>2017-12-21T10:49:40Z</time>
      </trkpt>
      <trkpt lat="43.59782" lon="5.56933">
        <ele>549</ele>
        <time>2017-12-21T10:49:41Z</time>
      </trkpt>
      <trkpt lat="43.59781" lon="5.56935">
        <ele>549</ele>
        <time>2017-12-21T10:49:42Z</time>
      </trkpt>
      <trkpt lat="43.5978" lon="5.56938">
        <ele>549</ele>
        <time>2017-12-21T10:49:43Z</time>
      </trkpt>
      <trkpt lat="43.59778" lon="5.56943">
        <ele>549</ele>
        <time>2017-12-21T10:49:46Z</time>
      </trkpt>
      <trkpt lat="43.59776" lon="5.56944">
        <ele>549</ele>
        <time>2017-12-21T10:49:47Z</time>
      </trkpt>
      <trkpt lat="43.59775" lon="5.56946">
        <ele>549</ele>
        <time>2017-12-21T10:49:48Z</time>
      </trkpt>
      <trkpt lat="43.59773" lon="5.56947">
        <ele>549</ele>
        <time>2017-12-21T10:49:49Z</time>
      </trkpt>
      <trkpt lat="43.59772" lon="5.56949">
        <ele>549</ele>
        <time>2017-12-21T10:49:50Z</time>
      </trkpt>
      <trkpt lat="43.5977" lon="5.56951">
        <ele>549</ele>
        <time>2017-12-21T10:49:51Z</time>
      </trkpt>
      <trkpt lat="43.59769" lon="5.56953">
        <ele>549</ele>
        <time>2017-12-21T10:49:52Z</time>
      </trkpt>
      <trkpt lat="43.59766" lon="5.56956">
        <ele>549</ele>
        <time>2017-12-21T10:49:54Z</time>
      </trkpt>
      <trkpt lat="43.59765" lon="5.56957">
        <ele>549</ele>
        <time>2017-12-21T10:49:55Z</time>
      </trkpt>
      <trkpt lat="43.59761" lon="5.56959">
        <ele>549</ele>
        <time>2017-12-21T10:49:59Z</time>
      </trkpt>
      <trkpt lat="43.5976" lon="5.5696">
        <ele>549</ele>
        <time>2017-12-21T10:50:00Z</time>
      </trkpt>
      <trkpt lat="43.59759" lon="5.56961">
        <ele>549</ele>
        <time>2017-12-21T10:50:01Z</time>
      </trkpt>
      <trkpt lat="43.59757" lon="5.56963">
        <ele>549</ele>
        <time>2017-12-21T10:50:02Z</time>
      </trkpt>
      <trkpt lat="43.59755" lon="5.56964">
        <ele>549</ele>
        <time>2017-12-21T10:50:03Z</time>
      </trkpt>
      <trkpt lat="43.59754" lon="5.56964">
        <ele>549</ele>
        <time>2017-12-21T10:50:04Z</time>
      </trkpt>
      <trkpt lat="43.59752" lon="5.56968">
        <ele>549</ele>
        <time>2017-12-21T10:50:07Z</time>
      </trkpt>
      <trkpt lat="43.5975" lon="5.56971">
        <ele>549</ele>
        <time>2017-12-21T10:50:09Z</time>
      </trkpt>
      <trkpt lat="43.5975" lon="5.56972">
        <ele>549</ele>
        <time>2017-12-21T10:50:10Z</time>
      </trkpt>
      <trkpt lat="43.59749" lon="5.56974">
        <ele>549</ele>
        <time>2017-12-21T10:50:11Z</time>
      </trkpt>
      <trkpt lat="43.59743" lon="5.5698">
        <ele>549</ele>
        <time>2017-12-21T10:50:16Z</time>
      </trkpt>
      <trkpt lat="43.59742" lon="5.56982">
        <ele>549</ele>
        <time>2017-12-21T10:50:17Z</time>
      </trkpt>
      <trkpt lat="43.59727" lon="5.57005">
        <ele>549</ele>
        <time>2017-12-21T10:50:28Z</time>
      </trkpt>
      <trkpt lat="43.59722" lon="5.57013">
        <ele>549</ele>
        <time>2017-12-21T10:50:37Z</time>
      </trkpt>
      <trkpt lat="43.59722" lon="5.57015">
        <ele>549</ele>
        <time>2017-12-21T10:50:49Z</time>
      </trkpt>
      <trkpt lat="43.59723" lon="5.57016">
        <ele>549</ele>
        <time>2017-12-21T10:50:50Z</time>
      </trkpt>
      <trkpt lat="43.59724" lon="5.57017">
        <ele>548</ele>
        <time>2017-12-21T10:50:51Z</time>
      </trkpt>
      <trkpt lat="43.59725" lon="5.57018">
        <ele>548</ele>
        <time>2017-12-21T10:50:52Z</time>
      </trkpt>
      <trkpt lat="43.59727" lon="5.57019">
        <ele>548</ele>
        <time>2017-12-21T10:50:53Z</time>
      </trkpt>
      <trkpt lat="43.59754" lon="5.57035">
        <ele>547</ele>
        <time>2017-12-21T10:51:05Z</time>
      </trkpt>
      <trkpt lat="43.59775" lon="5.5706">
        <ele>547</ele>
        <time>2017-12-21T10:51:15Z</time>
      </trkpt>
      <trkpt lat="43.59786" lon="5.57067">
        <ele>547</ele>
        <time>2017-12-21T10:51:23Z</time>
      </trkpt>
      <trkpt lat="43.59787" lon="5.57068">
        <ele>547</ele>
        <time>2017-12-21T10:51:25Z</time>
      </trkpt>
      <trkpt lat="43.59788" lon="5.5707">
        <ele>547</ele>
        <time>2017-12-21T10:51:26Z</time>
      </trkpt>
      <trkpt lat="43.59791" lon="5.57073">
        <ele>547</ele>
        <time>2017-12-21T10:51:29Z</time>
      </trkpt>
      <trkpt lat="43.59792" lon="5.57072">
        <ele>547</ele>
        <time>2017-12-21T10:51:30Z</time>
      </trkpt>
      <trkpt lat="43.59793" lon="5.57071">
        <ele>547</ele>
        <time>2017-12-21T10:51:31Z</time>
      </trkpt>
      <trkpt lat="43.59789" lon="5.57067">
        <ele>547</ele>
        <time>2017-12-21T10:51:34Z</time>
      </trkpt>
      <trkpt lat="43.59768" lon="5.57053">
        <ele>547</ele>
        <time>2017-12-21T10:51:43Z</time>
      </trkpt>
      <trkpt lat="43.59766" lon="5.57049">
        <ele>547</ele>
        <time>2017-12-21T10:51:45Z</time>
      </trkpt>
      <trkpt lat="43.59765" lon="5.57046">
        <ele>548</ele>
        <time>2017-12-21T10:51:54Z</time>
      </trkpt>
      <trkpt lat="43.59764" lon="5.57045">
        <ele>548</ele>
        <time>2017-12-21T10:52:02Z</time>
      </trkpt>
      <trkpt lat="43.59763" lon="5.57044">
        <ele>548</ele>
        <time>2017-12-21T10:52:03Z</time>
      </trkpt>
      <trkpt lat="43.59762" lon="5.57042">
        <ele>548</ele>
        <time>2017-12-21T10:52:04Z</time>
      </trkpt>
      <trkpt lat="43.59761" lon="5.57036">
        <ele>548</ele>
        <time>2017-12-21T10:52:10Z</time>
      </trkpt>
      <trkpt lat="43.59763" lon="5.57029">
        <ele>549</ele>
        <time>2017-12-21T10:52:16Z</time>
      </trkpt>
      <trkpt lat="43.59763" lon="5.57023">
        <ele>549</ele>
        <time>2017-12-21T10:52:25Z</time>
      </trkpt>
      <trkpt lat="43.59763" lon="5.57024">
        <ele>550</ele>
        <time>2017-12-21T10:52:41Z</time>
      </trkpt>
      <trkpt lat="43.59762" lon="5.57024">
        <ele>550</ele>
        <time>2017-12-21T10:53:00Z</time>
      </trkpt>
      <trkpt lat="43.59762" lon="5.57024">
        <ele>550</ele>
        <time>2017-12-21T10:53:01Z</time>
      </trkpt>
      <trkpt lat="43.59758" lon="5.57018">
        <ele>548</ele>
        <time>2017-12-21T11:30:54Z</time>
      </trkpt>
      <trkpt lat="43.59758" lon="5.57018">
        <ele>548</ele>
        <time>2017-12-21T11:30:55Z</time>
      </trkpt>
      <trkpt lat="43.59763" lon="5.57023">
        <ele>550</ele>
        <time>2017-12-21T11:31:20Z</time>
      </trkpt>
      <trkpt lat="43.59766" lon="5.57021">
        <ele>550</ele>
        <time>2017-12-21T11:31:55Z</time>
      </trkpt>
      <trkpt lat="43.59766" lon="5.57022">
        <ele>550</ele>
        <time>2017-12-21T11:32:21Z</time>
      </trkpt>
      <trkpt lat="43.59766" lon="5.57021">
        <ele>550</ele>
        <time>2017-12-21T11:32:56Z</time>
      </trkpt>
      <trkpt lat="43.59766" lon="5.5702">
        <ele>550</ele>
        <time>2017-12-21T11:33:22Z</time>
      </trkpt>
      <trkpt lat="43.59767" lon="5.57018">
        <ele>550</ele>
        <time>2017-12-21T11:33:49Z</time>
      </trkpt>
      <trkpt lat="43.59764" lon="5.57015">
        <ele>550</ele>
        <time>2017-12-21T11:34:09Z</time>
      </trkpt>
      <trkpt lat="43.59763" lon="5.57019">
        <ele>550</ele>
        <time>2017-12-21T11:34:16Z</time>
      </trkpt>
      <trkpt lat="43.59762" lon="5.57019">
        <ele>550</ele>
        <time>2017-12-21T11:34:27Z</time>
      </trkpt>
      <trkpt lat="43.59764" lon="5.57032">
        <ele>550</ele>
        <time>2017-12-21T11:34:34Z</time>
      </trkpt>
      <trkpt lat="43.5976" lon="5.57043">
        <ele>550</ele>
        <time>2017-12-21T11:34:40Z</time>
      </trkpt>
      <trkpt lat="43.59761" lon="5.57046">
        <ele>549</ele>
        <time>2017-12-21T11:34:41Z</time>
      </trkpt>
      <trkpt lat="43.59762" lon="5.57049">
        <ele>549</ele>
        <time>2017-12-21T11:34:42Z</time>
      </trkpt>
      <trkpt lat="43.59764" lon="5.57052">
        <ele>549</ele>
        <time>2017-12-21T11:34:43Z</time>
      </trkpt>
      <trkpt lat="43.59765" lon="5.57054">
        <ele>549</ele>
        <time>2017-12-21T11:34:44Z</time>
      </trkpt>
      <trkpt lat="43.59767" lon="5.57056">
        <ele>549</ele>
        <time>2017-12-21T11:34:45Z</time>
      </trkpt>
      <trkpt lat="43.59769" lon="5.57057">
        <ele>549</ele>
        <time>2017-12-21T11:34:46Z</time>
      </trkpt>
      <trkpt lat="43.5977" lon="5.57059">
        <ele>549</ele>
        <time>2017-12-21T11:34:47Z</time>
      </trkpt>
      <trkpt lat="43.59772" lon="5.5706">
        <ele>549</ele>
        <time>2017-12-21T11:34:48Z</time>
      </trkpt>
      <trkpt lat="43.59792" lon="5.57072">
        <ele>548</ele>
        <time>2017-12-21T11:34:58Z</time>
      </trkpt>
      <trkpt lat="43.59828" lon="5.57086">
        <ele>547</ele>
        <time>2017-12-21T11:35:10Z</time>
      </trkpt>
      <trkpt lat="43.59859" lon="5.57105">
        <ele>545</ele>
        <time>2017-12-21T11:35:20Z</time>
      </trkpt>
      <trkpt lat="43.59888" lon="5.57131">
        <ele>542</ele>
        <time>2017-12-21T11:35:31Z</time>
      </trkpt>
      <trkpt lat="43.59903" lon="5.57133">
        <ele>538</ele>
        <time>2017-12-21T11:35:35Z</time>
      </trkpt>
      <trkpt lat="43.59924" lon="5.57128">
        <ele>536</ele>
        <time>2017-12-21T11:35:40Z</time>
      </trkpt>
      <trkpt lat="43.59946" lon="5.57126">
        <ele>533</ele>
        <time>2017-12-21T11:35:45Z</time>
      </trkpt>
      <trkpt lat="43.59968" lon="5.57131">
        <ele>529</ele>
        <time>2017-12-21T11:35:51Z</time>
      </trkpt>
      <trkpt lat="43.59981" lon="5.57131">
        <ele>527</ele>
        <time>2017-12-21T11:35:57Z</time>
      </trkpt>
      <trkpt lat="43.59982" lon="5.57129">
        <ele>526</ele>
        <time>2017-12-21T11:35:58Z</time>
      </trkpt>
      <trkpt lat="43.59982" lon="5.57126">
        <ele>526</ele>
        <time>2017-12-21T11:35:59Z</time>
      </trkpt>
      <trkpt lat="43.59982" lon="5.57123">
        <ele>526</ele>
        <time>2017-12-21T11:36:00Z</time>
      </trkpt>
      <trkpt lat="43.59982" lon="5.57121">
        <ele>526</ele>
        <time>2017-12-21T11:36:01Z</time>
      </trkpt>
      <trkpt lat="43.59982" lon="5.5712">
        <ele>526</ele>
        <time>2017-12-21T11:36:09Z</time>
      </trkpt>
      <trkpt lat="43.59981" lon="5.57114">
        <ele>526</ele>
        <time>2017-12-21T11:36:14Z</time>
      </trkpt>
      <trkpt lat="43.59979" lon="5.57112">
        <ele>526</ele>
        <time>2017-12-21T11:36:15Z</time>
      </trkpt>
      <trkpt lat="43.59977" lon="5.5711">
        <ele>526</ele>
        <time>2017-12-21T11:36:16Z</time>
      </trkpt>
      <trkpt lat="43.59976" lon="5.57107">
        <ele>526</ele>
        <time>2017-12-21T11:36:17Z</time>
      </trkpt>
      <trkpt lat="43.59974" lon="5.57104">
        <ele>526</ele>
        <time>2017-12-21T11:36:18Z</time>
      </trkpt>
      <trkpt lat="43.59973" lon="5.57101">
        <ele>526</ele>
        <time>2017-12-21T11:36:19Z</time>
      </trkpt>
      <trkpt lat="43.59972" lon="5.57097">
        <ele>526</ele>
        <time>2017-12-21T11:36:20Z</time>
      </trkpt>
      <trkpt lat="43.5996" lon="5.57056">
        <ele>526</ele>
        <time>2017-12-21T11:36:33Z</time>
      </trkpt>
      <trkpt lat="43.59959" lon="5.57051">
        <ele>527</ele>
        <time>2017-12-21T11:36:35Z</time>
      </trkpt>
      <trkpt lat="43.5996" lon="5.57049">
        <ele>527</ele>
        <time>2017-12-21T11:36:36Z</time>
      </trkpt>
      <trkpt lat="43.5996" lon="5.57046">
        <ele>528</ele>
        <time>2017-12-21T11:36:45Z</time>
      </trkpt>
      <trkpt lat="43.59961" lon="5.57049">
        <ele>527</ele>
        <time>2017-12-21T11:36:51Z</time>
      </trkpt>
      <trkpt lat="43.59965" lon="5.5705">
        <ele>525</ele>
        <time>2017-12-21T11:37:01Z</time>
      </trkpt>
      <trkpt lat="43.59968" lon="5.57053">
        <ele>524</ele>
        <time>2017-12-21T11:37:06Z</time>
      </trkpt>
      <trkpt lat="43.59971" lon="5.57056">
        <ele>523</ele>
        <time>2017-12-21T11:37:19Z</time>
      </trkpt>
      <trkpt lat="43.59977" lon="5.57057">
        <ele>521</ele>
        <time>2017-12-21T11:37:30Z</time>
      </trkpt>
      <trkpt lat="43.59982" lon="5.57058">
        <ele>518</ele>
        <time>2017-12-21T11:37:37Z</time>
      </trkpt>
      <trkpt lat="43.5999" lon="5.57059">
        <ele>515</ele>
        <time>2017-12-21T11:37:45Z</time>
      </trkpt>
      <trkpt lat="43.59997" lon="5.57061">
        <ele>512</ele>
        <time>2017-12-21T11:37:54Z</time>
      </trkpt>
      <trkpt lat="43.60003" lon="5.57061">
        <ele>511</ele>
        <time>2017-12-21T11:38:06Z</time>
      </trkpt>
      <trkpt lat="43.60009" lon="5.57066">
        <ele>509</ele>
        <time>2017-12-21T11:38:16Z</time>
      </trkpt>
      <trkpt lat="43.6002" lon="5.57069">
        <ele>506</ele>
        <time>2017-12-21T11:38:24Z</time>
      </trkpt>
      <trkpt lat="43.60021" lon="5.57069">
        <ele>506</ele>
        <time>2017-12-21T11:38:25Z</time>
      </trkpt>
      <trkpt lat="43.60022" lon="5.5707">
        <ele>506</ele>
        <time>2017-12-21T11:38:26Z</time>
      </trkpt>
      <trkpt lat="43.6004" lon="5.57073">
        <ele>503</ele>
        <time>2017-12-21T11:38:34Z</time>
      </trkpt>
      <trkpt lat="43.60041" lon="5.57075">
        <ele>500</ele>
        <time>2017-12-21T11:38:51Z</time>
      </trkpt>
      <trkpt lat="43.60041" lon="5.57075">
        <ele>504</ele>
        <time>2017-12-21T11:38:52Z</time>
      </trkpt>
      <trkpt lat="43.60042" lon="5.57073">
        <ele>503</ele>
        <time>2017-12-21T11:38:56Z</time>
      </trkpt>
      <trkpt lat="43.60044" lon="5.57072">
        <ele>503</ele>
        <time>2017-12-21T11:38:57Z</time>
      </trkpt>
      <trkpt lat="43.60056" lon="5.57057">
        <ele>500</ele>
        <time>2017-12-21T11:39:03Z</time>
      </trkpt>
      <trkpt lat="43.60059" lon="5.57055">
        <ele>499</ele>
        <time>2017-12-21T11:39:05Z</time>
      </trkpt>
      <trkpt lat="43.6006" lon="5.57052">
        <ele>499</ele>
        <time>2017-12-21T11:39:06Z</time>
      </trkpt>
      <trkpt lat="43.6006" lon="5.57049">
        <ele>498</ele>
        <time>2017-12-21T11:39:07Z</time>
      </trkpt>
      <trkpt lat="43.6006" lon="5.57046">
        <ele>498</ele>
        <time>2017-12-21T11:39:08Z</time>
      </trkpt>
      <trkpt lat="43.60062" lon="5.57044">
        <ele>498</ele>
        <time>2017-12-21T11:39:09Z</time>
      </trkpt>
      <trkpt lat="43.60064" lon="5.57042">
        <ele>497</ele>
        <time>2017-12-21T11:39:10Z</time>
      </trkpt>
      <trkpt lat="43.60066" lon="5.5704">
        <ele>497</ele>
        <time>2017-12-21T11:39:11Z</time>
      </trkpt>
      <trkpt lat="43.60068" lon="5.57038">
        <ele>496</ele>
        <time>2017-12-21T11:39:12Z</time>
      </trkpt>
      <trkpt lat="43.6007" lon="5.57036">
        <ele>496</ele>
        <time>2017-12-21T11:39:13Z</time>
      </trkpt>
      <trkpt lat="43.60072" lon="5.57033">
        <ele>496</ele>
        <time>2017-12-21T11:39:14Z</time>
      </trkpt>
      <trkpt lat="43.60073" lon="5.57031">
        <ele>495</ele>
        <time>2017-12-21T11:39:15Z</time>
      </trkpt>
      <trkpt lat="43.60076" lon="5.5703">
        <ele>495</ele>
        <time>2017-12-21T11:39:24Z</time>
      </trkpt>
      <trkpt lat="43.60077" lon="5.57027">
        <ele>495</ele>
        <time>2017-12-21T11:39:27Z</time>
      </trkpt>
      <trkpt lat="43.6008" lon="5.57013">
        <ele>495</ele>
        <time>2017-12-21T11:39:33Z</time>
      </trkpt>
      <trkpt lat="43.60082" lon="5.5701">
        <ele>495</ele>
        <time>2017-12-21T11:39:35Z</time>
      </trkpt>
      <trkpt lat="43.60094" lon="5.57012">
        <ele>492</ele>
        <time>2017-12-21T11:39:41Z</time>
      </trkpt>
      <trkpt lat="43.60101" lon="5.57014">
        <ele>491</ele>
        <time>2017-12-21T11:39:44Z</time>
      </trkpt>
      <trkpt lat="43.60102" lon="5.57016">
        <ele>490</ele>
        <time>2017-12-21T11:39:45Z</time>
      </trkpt>
      <trkpt lat="43.60103" lon="5.57018">
        <ele>490</ele>
        <time>2017-12-21T11:39:46Z</time>
      </trkpt>
      <trkpt lat="43.60105" lon="5.57019">
        <ele>490</ele>
        <time>2017-12-21T11:39:47Z</time>
      </trkpt>
      <trkpt lat="43.60106" lon="5.5702">
        <ele>490</ele>
        <time>2017-12-21T11:39:48Z</time>
      </trkpt>
      <trkpt lat="43.60108" lon="5.57021">
        <ele>490</ele>
        <time>2017-12-21T11:39:49Z</time>
      </trkpt>
      <trkpt lat="43.6011" lon="5.57021">
        <ele>490</ele>
        <time>2017-12-21T11:39:50Z</time>
      </trkpt>
      <trkpt lat="43.60112" lon="5.57021">
        <ele>489</ele>
        <time>2017-12-21T11:39:51Z</time>
      </trkpt>
      <trkpt lat="43.60114" lon="5.57021">
        <ele>489</ele>
        <time>2017-12-21T11:39:52Z</time>
      </trkpt>
      <trkpt lat="43.60116" lon="5.5702">
        <ele>489</ele>
        <time>2017-12-21T11:39:53Z</time>
      </trkpt>
      <trkpt lat="43.60117" lon="5.5702">
        <ele>488</ele>
        <time>2017-12-21T11:39:54Z</time>
      </trkpt>
      <trkpt lat="43.60119" lon="5.5702">
        <ele>488</ele>
        <time>2017-12-21T11:39:55Z</time>
      </trkpt>
      <trkpt lat="43.60122" lon="5.57021">
        <ele>488</ele>
        <time>2017-12-21T11:39:56Z</time>
      </trkpt>
      <trkpt lat="43.60124" lon="5.57022">
        <ele>488</ele>
        <time>2017-12-21T11:39:57Z</time>
      </trkpt>
      <trkpt lat="43.60126" lon="5.57023">
        <ele>488</ele>
        <time>2017-12-21T11:39:58Z</time>
      </trkpt>
      <trkpt lat="43.60145" lon="5.57031">
        <ele>487</ele>
        <time>2017-12-21T11:40:06Z</time>
      </trkpt>
      <trkpt lat="43.60147" lon="5.5703">
        <ele>485</ele>
        <time>2017-12-21T11:40:07Z</time>
      </trkpt>
      <trkpt lat="43.60149" lon="5.57028">
        <ele>484</ele>
        <time>2017-12-21T11:40:08Z</time>
      </trkpt>
      <trkpt lat="43.60151" lon="5.57026">
        <ele>484</ele>
        <time>2017-12-21T11:40:09Z</time>
      </trkpt>
      <trkpt lat="43.60154" lon="5.57024">
        <ele>483</ele>
        <time>2017-12-21T11:40:10Z</time>
      </trkpt>
      <trkpt lat="43.60158" lon="5.57023">
        <ele>483</ele>
        <time>2017-12-21T11:40:16Z</time>
      </trkpt>
      <trkpt lat="43.6016" lon="5.57023">
        <ele>482</ele>
        <time>2017-12-21T11:40:17Z</time>
      </trkpt>
      <trkpt lat="43.60162" lon="5.57023">
        <ele>482</ele>
        <time>2017-12-21T11:40:18Z</time>
      </trkpt>
      <trkpt lat="43.60167" lon="5.57022">
        <ele>482</ele>
        <time>2017-12-21T11:40:20Z</time>
      </trkpt>
      <trkpt lat="43.6017" lon="5.57024">
        <ele>481</ele>
        <time>2017-12-21T11:40:21Z</time>
      </trkpt>
      <trkpt lat="43.60172" lon="5.57025">
        <ele>481</ele>
        <time>2017-12-21T11:40:22Z</time>
      </trkpt>
      <trkpt lat="43.60174" lon="5.57023">
        <ele>481</ele>
        <time>2017-12-21T11:40:23Z</time>
      </trkpt>
      <trkpt lat="43.60176" lon="5.57022">
        <ele>481</ele>
        <time>2017-12-21T11:40:24Z</time>
      </trkpt>
      <trkpt lat="43.60178" lon="5.57021">
        <ele>481</ele>
        <time>2017-12-21T11:40:25Z</time>
      </trkpt>
      <trkpt lat="43.6018" lon="5.5702">
        <ele>481</ele>
        <time>2017-12-21T11:40:26Z</time>
      </trkpt>
      <trkpt lat="43.60182" lon="5.57021">
        <ele>480</ele>
        <time>2017-12-21T11:40:27Z</time>
      </trkpt>
      <trkpt lat="43.60185" lon="5.57021">
        <ele>479</ele>
        <time>2017-12-21T11:40:28Z</time>
      </trkpt>
      <trkpt lat="43.60188" lon="5.57021">
        <ele>479</ele>
        <time>2017-12-21T11:40:29Z</time>
      </trkpt>
      <trkpt lat="43.60194" lon="5.57021">
        <ele>478</ele>
        <time>2017-12-21T11:40:31Z</time>
      </trkpt>
      <trkpt lat="43.60198" lon="5.5702">
        <ele>477</ele>
        <time>2017-12-21T11:40:33Z</time>
      </trkpt>
      <trkpt lat="43.60199" lon="5.5702">
        <ele>477</ele>
        <time>2017-12-21T11:40:34Z</time>
      </trkpt>
      <trkpt lat="43.60208" lon="5.57021">
        <ele>476</ele>
        <time>2017-12-21T11:40:42Z</time>
      </trkpt>
      <trkpt lat="43.60228" lon="5.57023">
        <ele>474</ele>
        <time>2017-12-21T11:40:49Z</time>
      </trkpt>
      <trkpt lat="43.60232" lon="5.57023">
        <ele>474</ele>
        <time>2017-12-21T11:40:50Z</time>
      </trkpt>
      <trkpt lat="43.60257" lon="5.57026">
        <ele>472</ele>
        <time>2017-12-21T11:40:58Z</time>
      </trkpt>
      <trkpt lat="43.60282" lon="5.57033">
        <ele>468</ele>
        <time>2017-12-21T11:41:05Z</time>
      </trkpt>
      <trkpt lat="43.60299" lon="5.5704">
        <ele>466</ele>
        <time>2017-12-21T11:41:09Z</time>
      </trkpt>
      <trkpt lat="43.60303" lon="5.57043">
        <ele>466</ele>
        <time>2017-12-21T11:41:10Z</time>
      </trkpt>
      <trkpt lat="43.60307" lon="5.57043">
        <ele>466</ele>
        <time>2017-12-21T11:41:11Z</time>
      </trkpt>
      <trkpt lat="43.60325" lon="5.57038">
        <ele>465</ele>
        <time>2017-12-21T11:41:17Z</time>
      </trkpt>
      <trkpt lat="43.60327" lon="5.57033">
        <ele>464</ele>
        <time>2017-12-21T11:41:18Z</time>
      </trkpt>
      <trkpt lat="43.60327" lon="5.57028">
        <ele>464</ele>
        <time>2017-12-21T11:41:19Z</time>
      </trkpt>
      <trkpt lat="43.60327" lon="5.57024">
        <ele>463</ele>
        <time>2017-12-21T11:41:20Z</time>
      </trkpt>
      <trkpt lat="43.60327" lon="5.57019">
        <ele>463</ele>
        <time>2017-12-21T11:41:21Z</time>
      </trkpt>
      <trkpt lat="43.60328" lon="5.57016">
        <ele>462</ele>
        <time>2017-12-21T11:41:22Z</time>
      </trkpt>
      <trkpt lat="43.60329" lon="5.57012">
        <ele>462</ele>
        <time>2017-12-21T11:41:23Z</time>
      </trkpt>
      <trkpt lat="43.6033" lon="5.57008">
        <ele>462</ele>
        <time>2017-12-21T11:41:24Z</time>
      </trkpt>
      <trkpt lat="43.60331" lon="5.57005">
        <ele>461</ele>
        <time>2017-12-21T11:41:25Z</time>
      </trkpt>
      <trkpt lat="43.60333" lon="5.57002">
        <ele>461</ele>
        <time>2017-12-21T11:41:26Z</time>
      </trkpt>
      <trkpt lat="43.60335" lon="5.57">
        <ele>461</ele>
        <time>2017-12-21T11:41:27Z</time>
      </trkpt>
      <trkpt lat="43.60336" lon="5.56998">
        <ele>461</ele>
        <time>2017-12-21T11:41:28Z</time>
      </trkpt>
      <trkpt lat="43.60336" lon="5.56994">
        <ele>461</ele>
        <time>2017-12-21T11:41:29Z</time>
      </trkpt>
      <trkpt lat="43.60337" lon="5.5699">
        <ele>460</ele>
        <time>2017-12-21T11:41:30Z</time>
      </trkpt>
      <trkpt lat="43.60339" lon="5.56987">
        <ele>460</ele>
        <time>2017-12-21T11:41:31Z</time>
      </trkpt>
      <trkpt lat="43.60341" lon="5.56984">
        <ele>460</ele>
        <time>2017-12-21T11:41:32Z</time>
      </trkpt>
      <trkpt lat="43.60342" lon="5.56981">
        <ele>459</ele>
        <time>2017-12-21T11:41:33Z</time>
      </trkpt>
      <trkpt lat="43.60344" lon="5.5698">
        <ele>460</ele>
        <time>2017-12-21T11:41:42Z</time>
      </trkpt>
      <trkpt lat="43.60346" lon="5.56976">
        <ele>460</ele>
        <time>2017-12-21T11:41:47Z</time>
      </trkpt>
      <trkpt lat="43.60347" lon="5.56973">
        <ele>459</ele>
        <time>2017-12-21T11:41:48Z</time>
      </trkpt>
      <trkpt lat="43.60349" lon="5.56969">
        <ele>458</ele>
        <time>2017-12-21T11:41:49Z</time>
      </trkpt>
      <trkpt lat="43.60351" lon="5.56966">
        <ele>458</ele>
        <time>2017-12-21T11:41:50Z</time>
      </trkpt>
      <trkpt lat="43.60353" lon="5.56962">
        <ele>458</ele>
        <time>2017-12-21T11:41:51Z</time>
      </trkpt>
      <trkpt lat="43.60355" lon="5.56959">
        <ele>458</ele>
        <time>2017-12-21T11:41:52Z</time>
      </trkpt>
      <trkpt lat="43.60356" lon="5.56955">
        <ele>457</ele>
        <time>2017-12-21T11:41:53Z</time>
      </trkpt>
      <trkpt lat="43.60358" lon="5.56951">
        <ele>457</ele>
        <time>2017-12-21T11:41:54Z</time>
      </trkpt>
      <trkpt lat="43.60368" lon="5.56918">
        <ele>454</ele>
        <time>2017-12-21T11:42:01Z</time>
      </trkpt>
      <trkpt lat="43.60371" lon="5.56909">
        <ele>453</ele>
        <time>2017-12-21T11:42:03Z</time>
      </trkpt>
      <trkpt lat="43.60381" lon="5.56898">
        <ele>451</ele>
        <time>2017-12-21T11:42:07Z</time>
      </trkpt>
      <trkpt lat="43.60399" lon="5.56877">
        <ele>449</ele>
        <time>2017-12-21T11:42:14Z</time>
      </trkpt>
      <trkpt lat="43.60416" lon="5.56845">
        <ele>446</ele>
        <time>2017-12-21T11:42:21Z</time>
      </trkpt>
      <trkpt lat="43.60418" lon="5.56839">
        <ele>445</ele>
        <time>2017-12-21T11:42:22Z</time>
      </trkpt>
      <trkpt lat="43.60421" lon="5.56834">
        <ele>444</ele>
        <time>2017-12-21T11:42:23Z</time>
      </trkpt>
      <trkpt lat="43.60436" lon="5.56813">
        <ele>442</ele>
        <time>2017-12-21T11:42:28Z</time>
      </trkpt>
      <trkpt lat="43.6046" lon="5.568">
        <ele>439</ele>
        <time>2017-12-21T11:42:35Z</time>
      </trkpt>
      <trkpt lat="43.60464" lon="5.568">
        <ele>439</ele>
        <time>2017-12-21T11:42:42Z</time>
      </trkpt>
      <trkpt lat="43.60477" lon="5.56796">
        <ele>438</ele>
        <time>2017-12-21T11:42:50Z</time>
      </trkpt>
      <trkpt lat="43.60483" lon="5.56795">
        <ele>438</ele>
        <time>2017-12-21T11:42:52Z</time>
      </trkpt>
      <trkpt lat="43.60487" lon="5.56795">
        <ele>437</ele>
        <time>2017-12-21T11:42:53Z</time>
      </trkpt>
      <trkpt lat="43.60502" lon="5.56788">
        <ele>436</ele>
        <time>2017-12-21T11:42:58Z</time>
      </trkpt>
      <trkpt lat="43.60504" lon="5.56784">
        <ele>436</ele>
        <time>2017-12-21T11:42:59Z</time>
      </trkpt>
      <trkpt lat="43.60506" lon="5.5678">
        <ele>435</ele>
        <time>2017-12-21T11:43:00Z</time>
      </trkpt>
      <trkpt lat="43.60509" lon="5.56779">
        <ele>435</ele>
        <time>2017-12-21T11:43:01Z</time>
      </trkpt>
      <trkpt lat="43.60512" lon="5.56777">
        <ele>435</ele>
        <time>2017-12-21T11:43:02Z</time>
      </trkpt>
      <trkpt lat="43.60514" lon="5.56776">
        <ele>434</ele>
        <time>2017-12-21T11:43:03Z</time>
      </trkpt>
      <trkpt lat="43.60519" lon="5.56773">
        <ele>434</ele>
        <time>2017-12-21T11:43:05Z</time>
      </trkpt>
      <trkpt lat="43.60521" lon="5.56771">
        <ele>433</ele>
        <time>2017-12-21T11:43:06Z</time>
      </trkpt>
      <trkpt lat="43.60524" lon="5.56769">
        <ele>433</ele>
        <time>2017-12-21T11:43:07Z</time>
      </trkpt>
      <trkpt lat="43.60527" lon="5.56768">
        <ele>433</ele>
        <time>2017-12-21T11:43:08Z</time>
      </trkpt>
      <trkpt lat="43.6053" lon="5.56768">
        <ele>433</ele>
        <time>2017-12-21T11:43:09Z</time>
      </trkpt>
      <trkpt lat="43.60543" lon="5.56765">
        <ele>431</ele>
        <time>2017-12-21T11:43:16Z</time>
      </trkpt>
      <trkpt lat="43.60561" lon="5.56755">
        <ele>429</ele>
        <time>2017-12-21T11:43:22Z</time>
      </trkpt>
      <trkpt lat="43.60563" lon="5.56752">
        <ele>429</ele>
        <time>2017-12-21T11:43:23Z</time>
      </trkpt>
      <trkpt lat="43.60565" lon="5.56751">
        <ele>429</ele>
        <time>2017-12-21T11:43:24Z</time>
      </trkpt>
      <trkpt lat="43.60567" lon="5.5675">
        <ele>429</ele>
        <time>2017-12-21T11:43:25Z</time>
      </trkpt>
      <trkpt lat="43.60569" lon="5.56749">
        <ele>429</ele>
        <time>2017-12-21T11:43:26Z</time>
      </trkpt>
      <trkpt lat="43.60571" lon="5.56751">
        <ele>429</ele>
        <time>2017-12-21T11:43:27Z</time>
      </trkpt>
      <trkpt lat="43.60574" lon="5.56752">
        <ele>428</ele>
        <time>2017-12-21T11:43:28Z</time>
      </trkpt>
      <trkpt lat="43.60595" lon="5.56756">
        <ele>428</ele>
        <time>2017-12-21T11:43:35Z</time>
      </trkpt>
      <trkpt lat="43.6062" lon="5.56749">
        <ele>425</ele>
        <time>2017-12-21T11:43:42Z</time>
      </trkpt>
      <trkpt lat="43.60652" lon="5.56732">
        <ele>422</ele>
        <time>2017-12-21T11:43:50Z</time>
      </trkpt>
      <trkpt lat="43.60656" lon="5.56729">
        <ele>421</ele>
        <time>2017-12-21T11:43:51Z</time>
      </trkpt>
      <trkpt lat="43.6066" lon="5.56727">
        <ele>421</ele>
        <time>2017-12-21T11:43:52Z</time>
      </trkpt>
      <trkpt lat="43.60665" lon="5.56727">
        <ele>421</ele>
        <time>2017-12-21T11:43:53Z</time>
      </trkpt>
      <trkpt lat="43.60668" lon="5.56727">
        <ele>421</ele>
        <time>2017-12-21T11:43:54Z</time>
      </trkpt>
      <trkpt lat="43.60672" lon="5.56727">
        <ele>420</ele>
        <time>2017-12-21T11:43:55Z</time>
      </trkpt>
      <trkpt lat="43.60675" lon="5.56727">
        <ele>420</ele>
        <time>2017-12-21T11:43:56Z</time>
      </trkpt>
      <trkpt lat="43.60678" lon="5.56726">
        <ele>419</ele>
        <time>2017-12-21T11:43:57Z</time>
      </trkpt>
      <trkpt lat="43.60692" lon="5.56719">
        <ele>415</ele>
        <time>2017-12-21T11:44:02Z</time>
      </trkpt>
      <trkpt lat="43.60709" lon="5.56712">
        <ele>414</ele>
        <time>2017-12-21T11:44:11Z</time>
      </trkpt>
      <trkpt lat="43.60713" lon="5.56709">
        <ele>414</ele>
        <time>2017-12-21T11:44:17Z</time>
      </trkpt>
      <trkpt lat="43.60715" lon="5.56707">
        <ele>413</ele>
        <time>2017-12-21T11:44:18Z</time>
      </trkpt>
      <trkpt lat="43.60717" lon="5.56705">
        <ele>413</ele>
        <time>2017-12-21T11:44:19Z</time>
      </trkpt>
      <trkpt lat="43.60719" lon="5.56702">
        <ele>413</ele>
        <time>2017-12-21T11:44:20Z</time>
      </trkpt>
      <trkpt lat="43.60721" lon="5.56699">
        <ele>413</ele>
        <time>2017-12-21T11:44:21Z</time>
      </trkpt>
      <trkpt lat="43.60724" lon="5.56696">
        <ele>412</ele>
        <time>2017-12-21T11:44:22Z</time>
      </trkpt>
      <trkpt lat="43.60727" lon="5.56693">
        <ele>412</ele>
        <time>2017-12-21T11:44:23Z</time>
      </trkpt>
      <trkpt lat="43.6073" lon="5.56691">
        <ele>411</ele>
        <time>2017-12-21T11:44:24Z</time>
      </trkpt>
      <trkpt lat="43.60734" lon="5.56688">
        <ele>410</ele>
        <time>2017-12-21T11:44:25Z</time>
      </trkpt>
      <trkpt lat="43.60761" lon="5.56672">
        <ele>408</ele>
        <time>2017-12-21T11:44:35Z</time>
      </trkpt>
      <trkpt lat="43.60763" lon="5.56672">
        <ele>409</ele>
        <time>2017-12-21T11:44:53Z</time>
      </trkpt>
      <trkpt lat="43.60766" lon="5.56671">
        <ele>409</ele>
        <time>2017-12-21T11:45:06Z</time>
      </trkpt>
      <trkpt lat="43.60781" lon="5.5668">
        <ele>407</ele>
        <time>2017-12-21T11:45:13Z</time>
      </trkpt>
      <trkpt lat="43.60807" lon="5.56687">
        <ele>405</ele>
        <time>2017-12-21T11:45:21Z</time>
      </trkpt>
      <trkpt lat="43.6081" lon="5.56686">
        <ele>405</ele>
        <time>2017-12-21T11:45:22Z</time>
      </trkpt>
      <trkpt lat="43.60812" lon="5.56685">
        <ele>405</ele>
        <time>2017-12-21T11:45:23Z</time>
      </trkpt>
      <trkpt lat="43.60815" lon="5.56686">
        <ele>405</ele>
        <time>2017-12-21T11:45:24Z</time>
      </trkpt>
      <trkpt lat="43.60817" lon="5.56689">
        <ele>404</ele>
        <time>2017-12-21T11:45:25Z</time>
      </trkpt>
      <trkpt lat="43.6082" lon="5.5669">
        <ele>404</ele>
        <time>2017-12-21T11:45:26Z</time>
      </trkpt>
      <trkpt lat="43.60823" lon="5.56691">
        <ele>404</ele>
        <time>2017-12-21T11:45:27Z</time>
      </trkpt>
      <trkpt lat="43.60826" lon="5.56692">
        <ele>404</ele>
        <time>2017-12-21T11:45:28Z</time>
      </trkpt>
      <trkpt lat="43.60829" lon="5.56693">
        <ele>404</ele>
        <time>2017-12-21T11:45:29Z</time>
      </trkpt>
      <trkpt lat="43.60832" lon="5.56695">
        <ele>403</ele>
        <time>2017-12-21T11:45:30Z</time>
      </trkpt>
      <trkpt lat="43.60835" lon="5.56698">
        <ele>403</ele>
        <time>2017-12-21T11:45:31Z</time>
      </trkpt>
      <trkpt lat="43.60838" lon="5.56701">
        <ele>403</ele>
        <time>2017-12-21T11:45:32Z</time>
      </trkpt>
      <trkpt lat="43.6084" lon="5.56704">
        <ele>403</ele>
        <time>2017-12-21T11:45:33Z</time>
      </trkpt>
      <trkpt lat="43.6086" lon="5.56732">
        <ele>402</ele>
        <time>2017-12-21T11:45:42Z</time>
      </trkpt>
      <trkpt lat="43.60879" lon="5.56735">
        <ele>401</ele>
        <time>2017-12-21T11:45:50Z</time>
      </trkpt>
      <trkpt lat="43.60901" lon="5.56722">
        <ele>400</ele>
        <time>2017-12-21T11:45:59Z</time>
      </trkpt>
      <trkpt lat="43.6092" lon="5.5672">
        <ele>399</ele>
        <time>2017-12-21T11:46:08Z</time>
      </trkpt>
      <trkpt lat="43.60937" lon="5.56734">
        <ele>399</ele>
        <time>2017-12-21T11:46:17Z</time>
      </trkpt>
      <trkpt lat="43.60963" lon="5.56751">
        <ele>398</ele>
        <time>2017-12-21T11:46:27Z</time>
      </trkpt>
      <trkpt lat="43.60985" lon="5.5676">
        <ele>398</ele>
        <time>2017-12-21T11:46:35Z</time>
      </trkpt>
      <trkpt lat="43.60988" lon="5.56759">
        <ele>398</ele>
        <time>2017-12-21T11:46:36Z</time>
      </trkpt>
      <trkpt lat="43.6099" lon="5.56758">
        <ele>398</ele>
        <time>2017-12-21T11:46:37Z</time>
      </trkpt>
      <trkpt lat="43.60993" lon="5.56758">
        <ele>398</ele>
        <time>2017-12-21T11:46:38Z</time>
      </trkpt>
      <trkpt lat="43.60996" lon="5.56758">
        <ele>398</ele>
        <time>2017-12-21T11:46:39Z</time>
      </trkpt>
      <trkpt lat="43.61018" lon="5.56761">
        <ele>396</ele>
        <time>2017-12-21T11:46:45Z</time>
      </trkpt>
      <trkpt lat="43.6103" lon="5.56758">
        <ele>394</ele>
        <time>2017-12-21T11:46:48Z</time>
      </trkpt>
      <trkpt lat="43.61034" lon="5.56755">
        <ele>394</ele>
        <time>2017-12-21T11:46:49Z</time>
      </trkpt>
      <trkpt lat="43.61037" lon="5.56752">
        <ele>394</ele>
        <time>2017-12-21T11:46:50Z</time>
      </trkpt>
      <trkpt lat="43.61041" lon="5.56749">
        <ele>393</ele>
        <time>2017-12-21T11:46:51Z</time>
      </trkpt>
      <trkpt lat="43.61044" lon="5.56745">
        <ele>392</ele>
        <time>2017-12-21T11:46:52Z</time>
      </trkpt>
      <trkpt lat="43.61054" lon="5.56731">
        <ele>391</ele>
        <time>2017-12-21T11:46:55Z</time>
      </trkpt>
      <trkpt lat="43.61056" lon="5.56725">
        <ele>390</ele>
        <time>2017-12-21T11:46:56Z</time>
      </trkpt>
      <trkpt lat="43.61058" lon="5.56718">
        <ele>390</ele>
        <time>2017-12-21T11:46:57Z</time>
      </trkpt>
      <trkpt lat="43.6106" lon="5.56711">
        <ele>389</ele>
        <time>2017-12-21T11:46:58Z</time>
      </trkpt>
      <trkpt lat="43.61062" lon="5.56705">
        <ele>389</ele>
        <time>2017-12-21T11:46:59Z</time>
      </trkpt>
      <trkpt lat="43.61064" lon="5.56698">
        <ele>389</ele>
        <time>2017-12-21T11:47:00Z</time>
      </trkpt>
      <trkpt lat="43.61065" lon="5.56692">
        <ele>389</ele>
        <time>2017-12-21T11:47:01Z</time>
      </trkpt>
      <trkpt lat="43.61067" lon="5.56687">
        <ele>389</ele>
        <time>2017-12-21T11:47:02Z</time>
      </trkpt>
      <trkpt lat="43.61069" lon="5.56682">
        <ele>389</ele>
        <time>2017-12-21T11:47:03Z</time>
      </trkpt>
      <trkpt lat="43.61072" lon="5.56679">
        <ele>389</ele>
        <time>2017-12-21T11:47:04Z</time>
      </trkpt>
      <trkpt lat="43.6108" lon="5.56673">
        <ele>388</ele>
        <time>2017-12-21T11:47:06Z</time>
      </trkpt>
      <trkpt lat="43.61089" lon="5.56665">
        <ele>388</ele>
        <time>2017-12-21T11:47:08Z</time>
      </trkpt>
      <trkpt lat="43.61093" lon="5.56663">
        <ele>387</ele>
        <time>2017-12-21T11:47:09Z</time>
      </trkpt>
      <trkpt lat="43.61098" lon="5.5666">
        <ele>388</ele>
        <time>2017-12-21T11:47:10Z</time>
      </trkpt>
      <trkpt lat="43.61101" lon="5.56656">
        <ele>388</ele>
        <time>2017-12-21T11:47:11Z</time>
      </trkpt>
      <trkpt lat="43.61103" lon="5.56652">
        <ele>388</ele>
        <time>2017-12-21T11:47:12Z</time>
      </trkpt>
      <trkpt lat="43.61106" lon="5.5665">
        <ele>388</ele>
        <time>2017-12-21T11:47:13Z</time>
      </trkpt>
      <trkpt lat="43.61109" lon="5.56649">
        <ele>388</ele>
        <time>2017-12-21T11:47:14Z</time>
      </trkpt>
      <trkpt lat="43.61111" lon="5.56649">
        <ele>388</ele>
        <time>2017-12-21T11:47:15Z</time>
      </trkpt>
      <trkpt lat="43.61114" lon="5.56649">
        <ele>388</ele>
        <time>2017-12-21T11:47:16Z</time>
      </trkpt>
      <trkpt lat="43.61117" lon="5.56648">
        <ele>388</ele>
        <time>2017-12-21T11:47:17Z</time>
      </trkpt>
      <trkpt lat="43.6112" lon="5.56647">
        <ele>388</ele>
        <time>2017-12-21T11:47:18Z</time>
      </trkpt>
      <trkpt lat="43.61122" lon="5.56645">
        <ele>388</ele>
        <time>2017-12-21T11:47:19Z</time>
      </trkpt>
      <trkpt lat="43.61125" lon="5.56644">
        <ele>388</ele>
        <time>2017-12-21T11:47:25Z</time>
      </trkpt>
      <trkpt lat="43.61126" lon="5.56643">
        <ele>388</ele>
        <time>2017-12-21T11:47:26Z</time>
      </trkpt>
      <trkpt lat="43.61128" lon="5.56642">
        <ele>387</ele>
        <time>2017-12-21T11:47:27Z</time>
      </trkpt>
      <trkpt lat="43.6113" lon="5.56641">
        <ele>387</ele>
        <time>2017-12-21T11:47:28Z</time>
      </trkpt>
      <trkpt lat="43.61133" lon="5.5664">
        <ele>387</ele>
        <time>2017-12-21T11:47:29Z</time>
      </trkpt>
      <trkpt lat="43.61136" lon="5.5664">
        <ele>386</ele>
        <time>2017-12-21T11:47:30Z</time>
      </trkpt>
      <trkpt lat="43.6114" lon="5.56639">
        <ele>386</ele>
        <time>2017-12-21T11:47:31Z</time>
      </trkpt>
      <trkpt lat="43.61143" lon="5.56638">
        <ele>386</ele>
        <time>2017-12-21T11:47:32Z</time>
      </trkpt>
      <trkpt lat="43.61146" lon="5.56636">
        <ele>386</ele>
        <time>2017-12-21T11:47:33Z</time>
      </trkpt>
      <trkpt lat="43.61148" lon="5.56635">
        <ele>386</ele>
        <time>2017-12-21T11:47:34Z</time>
      </trkpt>
      <trkpt lat="43.61151" lon="5.56634">
        <ele>386</ele>
        <time>2017-12-21T11:47:35Z</time>
      </trkpt>
      <trkpt lat="43.61154" lon="5.56634">
        <ele>386</ele>
        <time>2017-12-21T11:47:36Z</time>
      </trkpt>
      <trkpt lat="43.61157" lon="5.56635">
        <ele>386</ele>
        <time>2017-12-21T11:47:37Z</time>
      </trkpt>
      <trkpt lat="43.61159" lon="5.56635">
        <ele>386</ele>
        <time>2017-12-21T11:47:38Z</time>
      </trkpt>
      <trkpt lat="43.61162" lon="5.56635">
        <ele>386</ele>
        <time>2017-12-21T11:47:39Z</time>
      </trkpt>
      <trkpt lat="43.61164" lon="5.56636">
        <ele>386</ele>
        <time>2017-12-21T11:47:40Z</time>
      </trkpt>
      <trkpt lat="43.61166" lon="5.56637">
        <ele>386</ele>
        <time>2017-12-21T11:47:41Z</time>
      </trkpt>
      <trkpt lat="43.6117" lon="5.56638">
        <ele>385</ele>
        <time>2017-12-21T11:47:42Z</time>
      </trkpt>
      <trkpt lat="43.61172" lon="5.56638">
        <ele>385</ele>
        <time>2017-12-21T11:47:43Z</time>
      </trkpt>
      <trkpt lat="43.61175" lon="5.56639">
        <ele>385</ele>
        <time>2017-12-21T11:47:44Z</time>
      </trkpt>
      <trkpt lat="43.61197" lon="5.5665">
        <ele>385</ele>
        <time>2017-12-21T11:47:53Z</time>
      </trkpt>
      <trkpt lat="43.61205" lon="5.56656">
        <ele>385</ele>
        <time>2017-12-21T11:48:08Z</time>
      </trkpt>
      <trkpt lat="43.61223" lon="5.56677">
        <ele>383</ele>
        <time>2017-12-21T11:48:16Z</time>
      </trkpt>
      <trkpt lat="43.61229" lon="5.56685">
        <ele>383</ele>
        <time>2017-12-21T11:48:19Z</time>
      </trkpt>
      <trkpt lat="43.61231" lon="5.56686">
        <ele>383</ele>
        <time>2017-12-21T11:48:20Z</time>
      </trkpt>
      <trkpt lat="43.61234" lon="5.56687">
        <ele>383</ele>
        <time>2017-12-21T11:48:21Z</time>
      </trkpt>
      <trkpt lat="43.61267" lon="5.56687">
        <ele>380</ele>
        <time>2017-12-21T11:48:30Z</time>
      </trkpt>
      <trkpt lat="43.6128" lon="5.56684">
        <ele>379</ele>
        <time>2017-12-21T11:48:33Z</time>
      </trkpt>
      <trkpt lat="43.61284" lon="5.56683">
        <ele>379</ele>
        <time>2017-12-21T11:48:34Z</time>
      </trkpt>
      <trkpt lat="43.61294" lon="5.56681">
        <ele>378</ele>
        <time>2017-12-21T11:48:36Z</time>
      </trkpt>
      <trkpt lat="43.61299" lon="5.56681">
        <ele>378</ele>
        <time>2017-12-21T11:48:37Z</time>
      </trkpt>
      <trkpt lat="43.61318" lon="5.56678">
        <ele>377</ele>
        <time>2017-12-21T11:48:41Z</time>
      </trkpt>
      <trkpt lat="43.61344" lon="5.56659">
        <ele>376</ele>
        <time>2017-12-21T11:48:48Z</time>
      </trkpt>
      <trkpt lat="43.61347" lon="5.56655">
        <ele>376</ele>
        <time>2017-12-21T11:48:49Z</time>
      </trkpt>
      <trkpt lat="43.61372" lon="5.56629">
        <ele>372</ele>
        <time>2017-12-21T11:48:57Z</time>
      </trkpt>
      <trkpt lat="43.61402" lon="5.56607">
        <ele>371</ele>
        <time>2017-12-21T11:49:06Z</time>
      </trkpt>
      <trkpt lat="43.61432" lon="5.56599">
        <ele>370</ele>
        <time>2017-12-21T11:49:15Z</time>
      </trkpt>
      <trkpt lat="43.61459" lon="5.56599">
        <ele>369</ele>
        <time>2017-12-21T11:49:23Z</time>
      </trkpt>
      <trkpt lat="43.61478" lon="5.56594">
        <ele>368</ele>
        <time>2017-12-21T11:49:30Z</time>
      </trkpt>
      <trkpt lat="43.61484" lon="5.56591">
        <ele>368</ele>
        <time>2017-12-21T11:49:37Z</time>
      </trkpt>
      <trkpt lat="43.61488" lon="5.5659">
        <ele>368</ele>
        <time>2017-12-21T11:49:39Z</time>
      </trkpt>
      <trkpt lat="43.61511" lon="5.5657">
        <ele>367</ele>
        <time>2017-12-21T11:49:48Z</time>
      </trkpt>
      <trkpt lat="43.61527" lon="5.56536">
        <ele>364</ele>
        <time>2017-12-21T11:49:56Z</time>
      </trkpt>
      <trkpt lat="43.61542" lon="5.56489">
        <ele>362</ele>
        <time>2017-12-21T11:50:06Z</time>
      </trkpt>
      <trkpt lat="43.61556" lon="5.5646">
        <ele>361</ele>
        <time>2017-12-21T11:50:14Z</time>
      </trkpt>
      <trkpt lat="43.61559" lon="5.56428">
        <ele>360</ele>
        <time>2017-12-21T11:50:22Z</time>
      </trkpt>
      <trkpt lat="43.61568" lon="5.56376">
        <ele>358</ele>
        <time>2017-12-21T11:50:33Z</time>
      </trkpt>
      <trkpt lat="43.61575" lon="5.56356">
        <ele>358</ele>
        <time>2017-12-21T11:50:40Z</time>
      </trkpt>
      <trkpt lat="43.61577" lon="5.5635">
        <ele>358</ele>
        <time>2017-12-21T11:50:48Z</time>
      </trkpt>
      <trkpt lat="43.61577" lon="5.5635">
        <ele>360</ele>
        <time>2017-12-21T11:50:54Z</time>
      </trkpt>
      <trkpt lat="43.61577" lon="5.5635">
        <ele>358</ele>
        <time>2017-12-21T11:50:55Z</time>
      </trkpt>
      <trkpt lat="43.61591" lon="5.56325">
        <ele>357</ele>
        <time>2017-12-21T11:51:05Z</time>
      </trkpt>
      <trkpt lat="43.61597" lon="5.56317">
        <ele>356</ele>
        <time>2017-12-21T11:51:07Z</time>
      </trkpt>
      <trkpt lat="43.616" lon="5.56313">
        <ele>356</ele>
        <time>2017-12-21T11:51:08Z</time>
      </trkpt>
      <trkpt lat="43.61603" lon="5.56308">
        <ele>355</ele>
        <time>2017-12-21T11:51:09Z</time>
      </trkpt>
      <trkpt lat="43.6161" lon="5.56288">
        <ele>354</ele>
        <time>2017-12-21T11:51:13Z</time>
      </trkpt>
      <trkpt lat="43.61611" lon="5.56283">
        <ele>354</ele>
        <time>2017-12-21T11:51:14Z</time>
      </trkpt>
      <trkpt lat="43.61598" lon="5.56252">
        <ele>352</ele>
        <time>2017-12-21T11:51:22Z</time>
      </trkpt>
      <trkpt lat="43.61589" lon="5.56236">
        <ele>352</ele>
        <time>2017-12-21T11:51:27Z</time>
      </trkpt>
      <trkpt lat="43.61589" lon="5.56235">
        <ele>352</ele>
        <time>2017-12-21T11:51:35Z</time>
      </trkpt>
      <trkpt lat="43.6159" lon="5.56236">
        <ele>352</ele>
        <time>2017-12-21T11:51:55Z</time>
      </trkpt>
      <trkpt lat="43.6159" lon="5.56237">
        <ele>352</ele>
        <time>2017-12-21T11:52:10Z</time>
      </trkpt>
      <trkpt lat="43.6159" lon="5.56237">
        <ele>352</ele>
        <time>2017-12-21T11:52:11Z</time>
      </trkpt>
      <trkpt lat="43.61589" lon="5.56235">
        <ele>352</ele>
        <time>2017-12-21T11:52:12Z</time>
      </trkpt>
      <trkpt lat="43.61588" lon="5.56234">
        <ele>352</ele>
        <time>2017-12-21T11:52:13Z</time>
      </trkpt>
      <trkpt lat="43.61587" lon="5.56232">
        <ele>351</ele>
        <time>2017-12-21T11:52:14Z</time>
      </trkpt>
      <trkpt lat="43.61586" lon="5.5623">
        <ele>351</ele>
        <time>2017-12-21T11:52:15Z</time>
      </trkpt>
      <trkpt lat="43.61585" lon="5.56227">
        <ele>351</ele>
        <time>2017-12-21T11:52:16Z</time>
      </trkpt>
      <trkpt lat="43.61584" lon="5.56224">
        <ele>351</ele>
        <time>2017-12-21T11:52:17Z</time>
      </trkpt>
      <trkpt lat="43.61584" lon="5.56222">
        <ele>350</ele>
        <time>2017-12-21T11:52:18Z</time>
      </trkpt>
      <trkpt lat="43.61579" lon="5.56175">
        <ele>349</ele>
        <time>2017-12-21T11:52:27Z</time>
      </trkpt>
      <trkpt lat="43.61596" lon="5.56136">
        <ele>350</ele>
        <time>2017-12-21T11:52:37Z</time>
      </trkpt>
      <trkpt lat="43.616" lon="5.56133">
        <ele>349</ele>
        <time>2017-12-21T11:52:38Z</time>
      </trkpt>
      <trkpt lat="43.61604" lon="5.56132">
        <ele>349</ele>
        <time>2017-12-21T11:52:39Z</time>
      </trkpt>
      <trkpt lat="43.61624" lon="5.56125">
        <ele>347</ele>
        <time>2017-12-21T11:52:43Z</time>
      </trkpt>
      <trkpt lat="43.61629" lon="5.56122">
        <ele>347</ele>
        <time>2017-12-21T11:52:44Z</time>
      </trkpt>
      <trkpt lat="43.61637" lon="5.56114">
        <ele>346</ele>
        <time>2017-12-21T11:52:46Z</time>
      </trkpt>
      <trkpt lat="43.61674" lon="5.56075">
        <ele>343</ele>
        <time>2017-12-21T11:52:55Z</time>
      </trkpt>
      <trkpt lat="43.61695" lon="5.56043">
        <ele>343</ele>
        <time>2017-12-21T11:53:01Z</time>
      </trkpt>
      <trkpt lat="43.61706" lon="5.56013">
        <ele>342</ele>
        <time>2017-12-21T11:53:09Z</time>
      </trkpt>
      <trkpt lat="43.61708" lon="5.5601">
        <ele>342</ele>
        <time>2017-12-21T11:53:17Z</time>
      </trkpt>
      <trkpt lat="43.61708" lon="5.56009">
        <ele>341</ele>
        <time>2017-12-21T11:53:29Z</time>
      </trkpt>
      <trkpt lat="43.61707" lon="5.56009">
        <ele>341</ele>
        <time>2017-12-21T11:53:49Z</time>
      </trkpt>
      <trkpt lat="43.61707" lon="5.5601">
        <ele>341</ele>
        <time>2017-12-21T11:53:58Z</time>
      </trkpt>
      <trkpt lat="43.61702" lon="5.56017">
        <ele>341</ele>
        <time>2017-12-21T11:54:18Z</time>
      </trkpt>
      <trkpt lat="43.61706" lon="5.56006">
        <ele>341</ele>
        <time>2017-12-21T11:54:35Z</time>
      </trkpt>
      <trkpt lat="43.61714" lon="5.55998">
        <ele>341</ele>
        <time>2017-12-21T11:54:56Z</time>
      </trkpt>
      <trkpt lat="43.61715" lon="5.55994">
        <ele>341</ele>
        <time>2017-12-21T11:55:12Z</time>
      </trkpt>
      <trkpt lat="43.61727" lon="5.55972">
        <ele>340</ele>
        <time>2017-12-21T11:55:19Z</time>
      </trkpt>
      <trkpt lat="43.61755" lon="5.55945">
        <ele>339</ele>
        <time>2017-12-21T11:55:29Z</time>
      </trkpt>
      <trkpt lat="43.61766" lon="5.55938">
        <ele>337</ele>
        <time>2017-12-21T11:55:32Z</time>
      </trkpt>
      <trkpt lat="43.6177" lon="5.55936">
        <ele>337</ele>
        <time>2017-12-21T11:55:33Z</time>
      </trkpt>
      <trkpt lat="43.61791" lon="5.55928">
        <ele>336</ele>
        <time>2017-12-21T11:55:38Z</time>
      </trkpt>
      <trkpt lat="43.61795" lon="5.55927">
        <ele>336</ele>
        <time>2017-12-21T11:55:39Z</time>
      </trkpt>
      <trkpt lat="43.61817" lon="5.55925">
        <ele>335</ele>
        <time>2017-12-21T11:55:44Z</time>
      </trkpt>
      <trkpt lat="43.61846" lon="5.55919">
        <ele>333</ele>
        <time>2017-12-21T11:55:51Z</time>
      </trkpt>
      <trkpt lat="43.6185" lon="5.55917">
        <ele>332</ele>
        <time>2017-12-21T11:55:52Z</time>
      </trkpt>
      <trkpt lat="43.61854" lon="5.55915">
        <ele>332</ele>
        <time>2017-12-21T11:55:53Z</time>
      </trkpt>
      <trkpt lat="43.61862" lon="5.55911">
        <ele>332</ele>
        <time>2017-12-21T11:55:55Z</time>
      </trkpt>
      <trkpt lat="43.61885" lon="5.55895">
        <ele>331</ele>
        <time>2017-12-21T11:56:03Z</time>
      </trkpt>
      <trkpt lat="43.61888" lon="5.55896">
        <ele>331</ele>
        <time>2017-12-21T11:56:11Z</time>
      </trkpt>
      <trkpt lat="43.61888" lon="5.55891">
        <ele>331</ele>
        <time>2017-12-21T11:56:21Z</time>
      </trkpt>
      <trkpt lat="43.61889" lon="5.55889">
        <ele>331</ele>
        <time>2017-12-21T11:56:23Z</time>
      </trkpt>
      <trkpt lat="43.61884" lon="5.5587">
        <ele>332</ele>
        <time>2017-12-21T11:56:31Z</time>
      </trkpt>
      <trkpt lat="43.61879" lon="5.55844">
        <ele>335</ele>
        <time>2017-12-21T11:56:41Z</time>
      </trkpt>
      <trkpt lat="43.61863" lon="5.55828">
        <ele>338</ele>
        <time>2017-12-21T11:56:51Z</time>
      </trkpt>
      <trkpt lat="43.61843" lon="5.55821">
        <ele>339</ele>
        <time>2017-12-21T11:57:01Z</time>
      </trkpt>
      <trkpt lat="43.61831" lon="5.55827">
        <ele>341</ele>
        <time>2017-12-21T11:57:08Z</time>
      </trkpt>
      <trkpt lat="43.61829" lon="5.55828">
        <ele>341</ele>
        <time>2017-12-21T11:57:09Z</time>
      </trkpt>
      <trkpt lat="43.61804" lon="5.55841">
        <ele>343</ele>
        <time>2017-12-21T11:57:21Z</time>
      </trkpt>
      <trkpt lat="43.61791" lon="5.55849">
        <ele>344</ele>
        <time>2017-12-21T11:57:28Z</time>
      </trkpt>
      <trkpt lat="43.61778" lon="5.55844">
        <ele>344</ele>
        <time>2017-12-21T11:57:35Z</time>
      </trkpt>
      <trkpt lat="43.61776" lon="5.55841">
        <ele>344</ele>
        <time>2017-12-21T11:57:36Z</time>
      </trkpt>
      <trkpt lat="43.61775" lon="5.55839">
        <ele>344</ele>
        <time>2017-12-21T11:57:37Z</time>
      </trkpt>
      <trkpt lat="43.61774" lon="5.55836">
        <ele>344</ele>
        <time>2017-12-21T11:57:38Z</time>
      </trkpt>
      <trkpt lat="43.61774" lon="5.55833">
        <ele>344</ele>
        <time>2017-12-21T11:57:39Z</time>
      </trkpt>
      <trkpt lat="43.61774" lon="5.5583">
        <ele>344</ele>
        <time>2017-12-21T11:57:40Z</time>
      </trkpt>
      <trkpt lat="43.61774" lon="5.55827">
        <ele>344</ele>
        <time>2017-12-21T11:57:41Z</time>
      </trkpt>
      <trkpt lat="43.61774" lon="5.55825">
        <ele>344</ele>
        <time>2017-12-21T11:57:42Z</time>
      </trkpt>
      <trkpt lat="43.61774" lon="5.55822">
        <ele>344</ele>
        <time>2017-12-21T11:57:43Z</time>
      </trkpt>
      <trkpt lat="43.61772" lon="5.55796">
        <ele>344</ele>
        <time>2017-12-21T11:57:53Z</time>
      </trkpt>
      <trkpt lat="43.61781" lon="5.55772">
        <ele>345</ele>
        <time>2017-12-21T11:58:03Z</time>
      </trkpt>
      <trkpt lat="43.61809" lon="5.55746">
        <ele>348</ele>
        <time>2017-12-21T11:58:18Z</time>
      </trkpt>
      <trkpt lat="43.6182" lon="5.55714">
        <ele>350</ele>
        <time>2017-12-21T11:58:29Z</time>
      </trkpt>
      <trkpt lat="43.61819" lon="5.55668">
        <ele>352</ele>
        <time>2017-12-21T11:58:43Z</time>
      </trkpt>
      <trkpt lat="43.61818" lon="5.55635">
        <ele>355</ele>
        <time>2017-12-21T11:58:53Z</time>
      </trkpt>
      <trkpt lat="43.61817" lon="5.55607">
        <ele>358</ele>
        <time>2017-12-21T11:59:03Z</time>
      </trkpt>
      <trkpt lat="43.61831" lon="5.55573">
        <ele>360</ele>
        <time>2017-12-21T11:59:15Z</time>
      </trkpt>
      <trkpt lat="43.61849" lon="5.55574">
        <ele>361</ele>
        <time>2017-12-21T11:59:23Z</time>
      </trkpt>
      <trkpt lat="43.61871" lon="5.55598">
        <ele>364</ele>
        <time>2017-12-21T11:59:34Z</time>
      </trkpt>
      <trkpt lat="43.61892" lon="5.55598">
        <ele>367</ele>
        <time>2017-12-21T11:59:43Z</time>
      </trkpt>
      <trkpt lat="43.61911" lon="5.55596">
        <ele>369</ele>
        <time>2017-12-21T11:59:52Z</time>
      </trkpt>
      <trkpt lat="43.61927" lon="5.55586">
        <ele>372</ele>
        <time>2017-12-21T12:00:00Z</time>
      </trkpt>
      <trkpt lat="43.61949" lon="5.55568">
        <ele>375</ele>
        <time>2017-12-21T12:00:11Z</time>
      </trkpt>
      <trkpt lat="43.61976" lon="5.55564">
        <ele>377</ele>
        <time>2017-12-21T12:00:22Z</time>
      </trkpt>
      <trkpt lat="43.61996" lon="5.55563">
        <ele>381</ele>
        <time>2017-12-21T12:00:31Z</time>
      </trkpt>
      <trkpt lat="43.6202" lon="5.55559">
        <ele>385</ele>
        <time>2017-12-21T12:00:41Z</time>
      </trkpt>
      <trkpt lat="43.62036" lon="5.55549">
        <ele>388</ele>
        <time>2017-12-21T12:00:49Z</time>
      </trkpt>
      <trkpt lat="43.62052" lon="5.55521">
        <ele>388</ele>
        <time>2017-12-21T12:00:59Z</time>
      </trkpt>
      <trkpt lat="43.62068" lon="5.55489">
        <ele>389</ele>
        <time>2017-12-21T12:01:11Z</time>
      </trkpt>
      <trkpt lat="43.62073" lon="5.55444">
        <ele>389</ele>
        <time>2017-12-21T12:01:21Z</time>
      </trkpt>
      <trkpt lat="43.62078" lon="5.55409">
        <ele>389</ele>
        <time>2017-12-21T12:01:29Z</time>
      </trkpt>
      <trkpt lat="43.62073" lon="5.5537">
        <ele>389</ele>
        <time>2017-12-21T12:01:40Z</time>
      </trkpt>
      <trkpt lat="43.62064" lon="5.55345">
        <ele>390</ele>
        <time>2017-12-21T12:01:50Z</time>
      </trkpt>
      <trkpt lat="43.62043" lon="5.5533">
        <ele>391</ele>
        <time>2017-12-21T12:02:00Z</time>
      </trkpt>
      <trkpt lat="43.62017" lon="5.55315">
        <ele>391</ele>
        <time>2017-12-21T12:02:10Z</time>
      </trkpt>
      <trkpt lat="43.61988" lon="5.5529">
        <ele>393</ele>
        <time>2017-12-21T12:02:22Z</time>
      </trkpt>
      <trkpt lat="43.61962" lon="5.55269">
        <ele>396</ele>
        <time>2017-12-21T12:02:33Z</time>
      </trkpt>
      <trkpt lat="43.61958" lon="5.55266">
        <ele>396</ele>
        <time>2017-12-21T12:02:35Z</time>
      </trkpt>
      <trkpt lat="43.61956" lon="5.55264">
        <ele>397</ele>
        <time>2017-12-21T12:02:36Z</time>
      </trkpt>
      <trkpt lat="43.61955" lon="5.55262">
        <ele>397</ele>
        <time>2017-12-21T12:02:37Z</time>
      </trkpt>
      <trkpt lat="43.61953" lon="5.5526">
        <ele>398</ele>
        <time>2017-12-21T12:02:38Z</time>
      </trkpt>
      <trkpt lat="43.61951" lon="5.55257">
        <ele>398</ele>
        <time>2017-12-21T12:02:39Z</time>
      </trkpt>
      <trkpt lat="43.6193" lon="5.55234">
        <ele>399</ele>
        <time>2017-12-21T12:02:49Z</time>
      </trkpt>
      <trkpt lat="43.61903" lon="5.55199">
        <ele>400</ele>
        <time>2017-12-21T12:03:03Z</time>
      </trkpt>
      <trkpt lat="43.61891" lon="5.55191">
        <ele>402</ele>
        <time>2017-12-21T12:03:12Z</time>
      </trkpt>
      <trkpt lat="43.6189" lon="5.55185">
        <ele>402</ele>
        <time>2017-12-21T12:03:27Z</time>
      </trkpt>
      <trkpt lat="43.6189" lon="5.55183">
        <ele>402</ele>
        <time>2017-12-21T12:03:28Z</time>
      </trkpt>
      <trkpt lat="43.61891" lon="5.55181">
        <ele>402</ele>
        <time>2017-12-21T12:03:29Z</time>
      </trkpt>
      <trkpt lat="43.61891" lon="5.5518">
        <ele>402</ele>
        <time>2017-12-21T12:03:30Z</time>
      </trkpt>
      <trkpt lat="43.61891" lon="5.55177">
        <ele>402</ele>
        <time>2017-12-21T12:03:31Z</time>
      </trkpt>
      <trkpt lat="43.61892" lon="5.55176">
        <ele>402</ele>
        <time>2017-12-21T12:03:32Z</time>
      </trkpt>
      <trkpt lat="43.61892" lon="5.55174">
        <ele>402</ele>
        <time>2017-12-21T12:03:33Z</time>
      </trkpt>
      <trkpt lat="43.61893" lon="5.55173">
        <ele>402</ele>
        <time>2017-12-21T12:03:34Z</time>
      </trkpt>
      <trkpt lat="43.61894" lon="5.55172">
        <ele>402</ele>
        <time>2017-12-21T12:03:35Z</time>
      </trkpt>
      <trkpt lat="43.61895" lon="5.5517">
        <ele>402</ele>
        <time>2017-12-21T12:03:36Z</time>
      </trkpt>
      <trkpt lat="43.61895" lon="5.55169">
        <ele>402</ele>
        <time>2017-12-21T12:03:37Z</time>
      </trkpt>
      <trkpt lat="43.61896" lon="5.55167">
        <ele>402</ele>
        <time>2017-12-21T12:03:38Z</time>
      </trkpt>
      <trkpt lat="43.61898" lon="5.55165">
        <ele>402</ele>
        <time>2017-12-21T12:03:39Z</time>
      </trkpt>
      <trkpt lat="43.61899" lon="5.55163">
        <ele>402</ele>
        <time>2017-12-21T12:03:40Z</time>
      </trkpt>
      <trkpt lat="43.6191" lon="5.55146">
        <ele>402</ele>
        <time>2017-12-21T12:03:51Z</time>
      </trkpt>
      <trkpt lat="43.61917" lon="5.55136">
        <ele>402</ele>
        <time>2017-12-21T12:03:56Z</time>
      </trkpt>
      <trkpt lat="43.61925" lon="5.55111">
        <ele>403</ele>
        <time>2017-12-21T12:04:04Z</time>
      </trkpt>
      <trkpt lat="43.61928" lon="5.55102">
        <ele>403</ele>
        <time>2017-12-21T12:04:08Z</time>
      </trkpt>
      <trkpt lat="43.61929" lon="5.55101">
        <ele>403</ele>
        <time>2017-12-21T12:04:09Z</time>
      </trkpt>
      <trkpt lat="43.6193" lon="5.551">
        <ele>403</ele>
        <time>2017-12-21T12:04:10Z</time>
      </trkpt>
      <trkpt lat="43.61942" lon="5.55096">
        <ele>403</ele>
        <time>2017-12-21T12:04:16Z</time>
      </trkpt>
      <trkpt lat="43.61943" lon="5.55094">
        <ele>403</ele>
        <time>2017-12-21T12:04:17Z</time>
      </trkpt>
      <trkpt lat="43.61945" lon="5.55092">
        <ele>403</ele>
        <time>2017-12-21T12:04:18Z</time>
      </trkpt>
      <trkpt lat="43.61963" lon="5.55071">
        <ele>406</ele>
        <time>2017-12-21T12:04:29Z</time>
      </trkpt>
      <trkpt lat="43.6197" lon="5.55057">
        <ele>407</ele>
        <time>2017-12-21T12:04:36Z</time>
      </trkpt>
      <trkpt lat="43.61971" lon="5.55054">
        <ele>407</ele>
        <time>2017-12-21T12:04:37Z</time>
      </trkpt>
      <trkpt lat="43.61971" lon="5.55052">
        <ele>408</ele>
        <time>2017-12-21T12:04:38Z</time>
      </trkpt>
      <trkpt lat="43.61972" lon="5.55049">
        <ele>408</ele>
        <time>2017-12-21T12:04:39Z</time>
      </trkpt>
      <trkpt lat="43.61972" lon="5.55046">
        <ele>408</ele>
        <time>2017-12-21T12:04:40Z</time>
      </trkpt>
      <trkpt lat="43.61972" lon="5.55043">
        <ele>408</ele>
        <time>2017-12-21T12:04:41Z</time>
      </trkpt>
      <trkpt lat="43.61973" lon="5.55041">
        <ele>408</ele>
        <time>2017-12-21T12:04:42Z</time>
      </trkpt>
      <trkpt lat="43.61973" lon="5.55039">
        <ele>408</ele>
        <time>2017-12-21T12:04:43Z</time>
      </trkpt>
      <trkpt lat="43.61972" lon="5.55037">
        <ele>408</ele>
        <time>2017-12-21T12:04:44Z</time>
      </trkpt>
      <trkpt lat="43.61972" lon="5.55034">
        <ele>408</ele>
        <time>2017-12-21T12:04:45Z</time>
      </trkpt>
      <trkpt lat="43.61973" lon="5.55032">
        <ele>408</ele>
        <time>2017-12-21T12:04:46Z</time>
      </trkpt>
      <trkpt lat="43.61974" lon="5.55031">
        <ele>408</ele>
        <time>2017-12-21T12:04:54Z</time>
      </trkpt>
      <trkpt lat="43.61974" lon="5.55031">
        <ele>408</ele>
        <time>2017-12-21T12:04:58Z</time>
      </trkpt>
      <trkpt lat="43.61976" lon="5.55029">
        <ele>408</ele>
        <time>2017-12-21T12:04:59Z</time>
      </trkpt>
      <trkpt lat="43.61977" lon="5.55026">
        <ele>409</ele>
        <time>2017-12-21T12:05:00Z</time>
      </trkpt>
      <trkpt lat="43.61978" lon="5.55024">
        <ele>409</ele>
        <time>2017-12-21T12:05:01Z</time>
      </trkpt>
      <trkpt lat="43.61979" lon="5.55022">
        <ele>410</ele>
        <time>2017-12-21T12:05:02Z</time>
      </trkpt>
      <trkpt lat="43.61982" lon="5.54991">
        <ele>411</ele>
        <time>2017-12-21T12:05:13Z</time>
      </trkpt>
      <trkpt lat="43.61982" lon="5.54989">
        <ele>411</ele>
        <time>2017-12-21T12:05:14Z</time>
      </trkpt>
      <trkpt lat="43.61982" lon="5.54986">
        <ele>411</ele>
        <time>2017-12-21T12:05:15Z</time>
      </trkpt>
      <trkpt lat="43.61982" lon="5.54984">
        <ele>411</ele>
        <time>2017-12-21T12:05:16Z</time>
      </trkpt>
      <trkpt lat="43.61982" lon="5.54982">
        <ele>412</ele>
        <time>2017-12-21T12:05:17Z</time>
      </trkpt>
      <trkpt lat="43.61982" lon="5.54979">
        <ele>412</ele>
        <time>2017-12-21T12:05:18Z</time>
      </trkpt>
      <trkpt lat="43.61982" lon="5.54976">
        <ele>412</ele>
        <time>2017-12-21T12:05:19Z</time>
      </trkpt>
      <trkpt lat="43.61982" lon="5.54973">
        <ele>413</ele>
        <time>2017-12-21T12:05:20Z</time>
      </trkpt>
      <trkpt lat="43.61982" lon="5.5497">
        <ele>413</ele>
        <time>2017-12-21T12:05:21Z</time>
      </trkpt>
      <trkpt lat="43.61982" lon="5.54968">
        <ele>413</ele>
        <time>2017-12-21T12:05:22Z</time>
      </trkpt>
      <trkpt lat="43.61981" lon="5.54959">
        <ele>414</ele>
        <time>2017-12-21T12:05:25Z</time>
      </trkpt>
      <trkpt lat="43.61981" lon="5.54956">
        <ele>414</ele>
        <time>2017-12-21T12:05:26Z</time>
      </trkpt>
      <trkpt lat="43.6198" lon="5.54953">
        <ele>414</ele>
        <time>2017-12-21T12:05:27Z</time>
      </trkpt>
      <trkpt lat="43.6198" lon="5.5495">
        <ele>414</ele>
        <time>2017-12-21T12:05:28Z</time>
      </trkpt>
      <trkpt lat="43.61981" lon="5.54947">
        <ele>414</ele>
        <time>2017-12-21T12:05:29Z</time>
      </trkpt>
      <trkpt lat="43.61982" lon="5.54945">
        <ele>414</ele>
        <time>2017-12-21T12:05:30Z</time>
      </trkpt>
      <trkpt lat="43.61986" lon="5.54927">
        <ele>417</ele>
        <time>2017-12-21T12:05:37Z</time>
      </trkpt>
      <trkpt lat="43.61988" lon="5.54925">
        <ele>418</ele>
        <time>2017-12-21T12:05:44Z</time>
      </trkpt>
      <trkpt lat="43.61987" lon="5.54927">
        <ele>418</ele>
        <time>2017-12-21T12:05:58Z</time>
      </trkpt>
      <trkpt lat="43.61985" lon="5.5493">
        <ele>417</ele>
        <time>2017-12-21T12:06:03Z</time>
      </trkpt>
      <trkpt lat="43.61981" lon="5.54935">
        <ele>415</ele>
        <time>2017-12-21T12:06:11Z</time>
      </trkpt>
      <trkpt lat="43.61973" lon="5.54936">
        <ele>415</ele>
        <time>2017-12-21T12:06:24Z</time>
      </trkpt>
      <trkpt lat="43.61973" lon="5.54935">
        <ele>415</ele>
        <time>2017-12-21T12:06:43Z</time>
      </trkpt>
      <trkpt lat="43.61971" lon="5.54933">
        <ele>415</ele>
        <time>2017-12-21T12:06:59Z</time>
      </trkpt>
      <trkpt lat="43.61968" lon="5.54929">
        <ele>415</ele>
        <time>2017-12-21T12:07:08Z</time>
      </trkpt>
      <trkpt lat="43.61964" lon="5.54918">
        <ele>415</ele>
        <time>2017-12-21T12:07:20Z</time>
      </trkpt>
      <trkpt lat="43.61962" lon="5.54906">
        <ele>417</ele>
        <time>2017-12-21T12:07:32Z</time>
      </trkpt>
      <trkpt lat="43.61959" lon="5.549">
        <ele>418</ele>
        <time>2017-12-21T12:07:40Z</time>
      </trkpt>
      <trkpt lat="43.61952" lon="5.54897">
        <ele>418</ele>
        <time>2017-12-21T12:07:48Z</time>
      </trkpt>
      <trkpt lat="43.61946" lon="5.54889">
        <ele>418</ele>
        <time>2017-12-21T12:08:00Z</time>
      </trkpt>
      <trkpt lat="43.61948" lon="5.54888">
        <ele>418</ele>
        <time>2017-12-21T12:08:03Z</time>
      </trkpt>
      <trkpt lat="43.61949" lon="5.5488">
        <ele>419</ele>
        <time>2017-12-21T12:08:13Z</time>
      </trkpt>
      <trkpt lat="43.61948" lon="5.54874">
        <ele>420</ele>
        <time>2017-12-21T12:08:23Z</time>
      </trkpt>
      <trkpt lat="43.61945" lon="5.54865">
        <ele>421</ele>
        <time>2017-12-21T12:08:36Z</time>
      </trkpt>
      <trkpt lat="43.61945" lon="5.5486">
        <ele>422</ele>
        <time>2017-12-21T12:08:46Z</time>
      </trkpt>
      <trkpt lat="43.61945" lon="5.54859">
        <ele>421</ele>
        <time>2017-12-21T12:09:00Z</time>
      </trkpt>
      <trkpt lat="43.61945" lon="5.54859">
        <ele>421</ele>
        <time>2017-12-21T12:09:10Z</time>
      </trkpt>
      <trkpt lat="43.61944" lon="5.54857">
        <ele>421</ele>
        <time>2017-12-21T12:09:18Z</time>
      </trkpt>
      <trkpt lat="43.6194" lon="5.54849">
        <ele>422</ele>
        <time>2017-12-21T12:09:28Z</time>
      </trkpt>
      <trkpt lat="43.61939" lon="5.54845">
        <ele>422</ele>
        <time>2017-12-21T12:09:39Z</time>
      </trkpt>
      <trkpt lat="43.61939" lon="5.54843">
        <ele>422</ele>
        <time>2017-12-21T12:09:42Z</time>
      </trkpt>
      <trkpt lat="43.61939" lon="5.5484">
        <ele>422</ele>
        <time>2017-12-21T12:09:54Z</time>
      </trkpt>
      <trkpt lat="43.6194" lon="5.54842">
        <ele>422</ele>
        <time>2017-12-21T12:10:05Z</time>
      </trkpt>
      <trkpt lat="43.61943" lon="5.54839">
        <ele>423</ele>
        <time>2017-12-21T12:10:14Z</time>
      </trkpt>
      <trkpt lat="43.61944" lon="5.54838">
        <ele>423</ele>
        <time>2017-12-21T12:10:15Z</time>
      </trkpt>
      <trkpt lat="43.61949" lon="5.54831">
        <ele>425</ele>
        <time>2017-12-21T12:10:27Z</time>
      </trkpt>
      <trkpt lat="43.61952" lon="5.54828">
        <ele>425</ele>
        <time>2017-12-21T12:10:40Z</time>
      </trkpt>
      <trkpt lat="43.6195" lon="5.54825">
        <ele>425</ele>
        <time>2017-12-21T12:10:53Z</time>
      </trkpt>
      <trkpt lat="43.61949" lon="5.54829">
        <ele>425</ele>
        <time>2017-12-21T12:11:04Z</time>
      </trkpt>
      <trkpt lat="43.61946" lon="5.54832">
        <ele>424</ele>
        <time>2017-12-21T12:11:09Z</time>
      </trkpt>
      <trkpt lat="43.61943" lon="5.54837">
        <ele>423</ele>
        <time>2017-12-21T12:11:19Z</time>
      </trkpt>
      <trkpt lat="43.61939" lon="5.54837">
        <ele>422</ele>
        <time>2017-12-21T12:11:29Z</time>
      </trkpt>
      <trkpt lat="43.61937" lon="5.54837">
        <ele>422</ele>
        <time>2017-12-21T12:11:32Z</time>
      </trkpt>
      <trkpt lat="43.61927" lon="5.5484">
        <ele>422</ele>
        <time>2017-12-21T12:11:44Z</time>
      </trkpt>
      <trkpt lat="43.61926" lon="5.54839">
        <ele>422</ele>
        <time>2017-12-21T12:11:56Z</time>
      </trkpt>
      <trkpt lat="43.61921" lon="5.54837">
        <ele>422</ele>
        <time>2017-12-21T12:12:04Z</time>
      </trkpt>
      <trkpt lat="43.61918" lon="5.54836">
        <ele>422</ele>
        <time>2017-12-21T12:12:15Z</time>
      </trkpt>
      <trkpt lat="43.61922" lon="5.54837">
        <ele>422</ele>
        <time>2017-12-21T12:12:25Z</time>
      </trkpt>
      <trkpt lat="43.61925" lon="5.54838">
        <ele>422</ele>
        <time>2017-12-21T12:12:34Z</time>
      </trkpt>
      <trkpt lat="43.61928" lon="5.54839">
        <ele>421</ele>
        <time>2017-12-21T12:12:44Z</time>
      </trkpt>
      <trkpt lat="43.61926" lon="5.54838">
        <ele>421</ele>
        <time>2017-12-21T12:13:12Z</time>
      </trkpt>
      <trkpt lat="43.61925" lon="5.54838">
        <ele>421</ele>
        <time>2017-12-21T12:13:36Z</time>
      </trkpt>
      <trkpt lat="43.61927" lon="5.54838">
        <ele>422</ele>
        <time>2017-12-21T12:13:54Z</time>
      </trkpt>
      <trkpt lat="43.61933" lon="5.54838">
        <ele>422</ele>
        <time>2017-12-21T12:14:03Z</time>
      </trkpt>
      <trkpt lat="43.61932" lon="5.54838">
        <ele>422</ele>
        <time>2017-12-21T12:14:20Z</time>
      </trkpt>
      <trkpt lat="43.61932" lon="5.5484">
        <ele>422</ele>
        <time>2017-12-21T12:14:37Z</time>
      </trkpt>
      <trkpt lat="43.61933" lon="5.5484">
        <ele>422</ele>
        <time>2017-12-21T12:14:55Z</time>
      </trkpt>
      <trkpt lat="43.61933" lon="5.54839">
        <ele>422</ele>
        <time>2017-12-21T12:14:57Z</time>
      </trkpt>
      <trkpt lat="43.61936" lon="5.54832">
        <ele>422</ele>
        <time>2017-12-21T12:15:08Z</time>
      </trkpt>
      <trkpt lat="43.61938" lon="5.54831">
        <ele>422</ele>
        <time>2017-12-21T12:15:20Z</time>
      </trkpt>
      <trkpt lat="43.6194" lon="5.54825">
        <ele>424</ele>
        <time>2017-12-21T12:15:29Z</time>
      </trkpt>
      <trkpt lat="43.61942" lon="5.54822">
        <ele>424</ele>
        <time>2017-12-21T12:15:39Z</time>
      </trkpt>
      <trkpt lat="43.61945" lon="5.54817">
        <ele>425</ele>
        <time>2017-12-21T12:15:48Z</time>
      </trkpt>
      <trkpt lat="43.61947" lon="5.54811">
        <ele>425</ele>
        <time>2017-12-21T12:15:55Z</time>
      </trkpt>
      <trkpt lat="43.61948" lon="5.54798">
        <ele>425</ele>
        <time>2017-12-21T12:16:05Z</time>
      </trkpt>
      <trkpt lat="43.61951" lon="5.54785">
        <ele>426</ele>
        <time>2017-12-21T12:16:18Z</time>
      </trkpt>
      <trkpt lat="43.61952" lon="5.54777">
        <ele>428</ele>
        <time>2017-12-21T12:16:27Z</time>
      </trkpt>
      <trkpt lat="43.61953" lon="5.54764">
        <ele>429</ele>
        <time>2017-12-21T12:16:38Z</time>
      </trkpt>
      <trkpt lat="43.61953" lon="5.54755">
        <ele>430</ele>
        <time>2017-12-21T12:16:48Z</time>
      </trkpt>
      <trkpt lat="43.61953" lon="5.54752">
        <ele>430</ele>
        <time>2017-12-21T12:16:51Z</time>
      </trkpt>
      <trkpt lat="43.61954" lon="5.5475">
        <ele>430</ele>
        <time>2017-12-21T12:17:01Z</time>
      </trkpt>
      <trkpt lat="43.61956" lon="5.54745">
        <ele>430</ele>
        <time>2017-12-21T12:17:32Z</time>
      </trkpt>
      <trkpt lat="43.61954" lon="5.54746">
        <ele>431</ele>
        <time>2017-12-21T12:17:50Z</time>
      </trkpt>
      <trkpt lat="43.61952" lon="5.54747">
        <ele>431</ele>
        <time>2017-12-21T12:18:06Z</time>
      </trkpt>
      <trkpt lat="43.61952" lon="5.54746">
        <ele>431</ele>
        <time>2017-12-21T12:18:07Z</time>
      </trkpt>
      <trkpt lat="43.6195" lon="5.54732">
        <ele>433</ele>
        <time>2017-12-21T12:18:20Z</time>
      </trkpt>
      <trkpt lat="43.61947" lon="5.54718">
        <ele>435</ele>
        <time>2017-12-21T12:18:33Z</time>
      </trkpt>
      <trkpt lat="43.61946" lon="5.54708">
        <ele>437</ele>
        <time>2017-12-21T12:18:45Z</time>
      </trkpt>
      <trkpt lat="43.61948" lon="5.54705">
        <ele>437</ele>
        <time>2017-12-21T12:18:57Z</time>
      </trkpt>
      <trkpt lat="43.61947" lon="5.54706">
        <ele>437</ele>
        <time>2017-12-21T12:19:20Z</time>
      </trkpt>
      <trkpt lat="43.61948" lon="5.54706">
        <ele>437</ele>
        <time>2017-12-21T12:19:21Z</time>
      </trkpt>
      <trkpt lat="43.61954" lon="5.54703">
        <ele>437</ele>
        <time>2017-12-21T12:19:25Z</time>
      </trkpt>
      <trkpt lat="43.61956" lon="5.547">
        <ele>437</ele>
        <time>2017-12-21T12:19:26Z</time>
      </trkpt>
      <trkpt lat="43.61957" lon="5.54697">
        <ele>437</ele>
        <time>2017-12-21T12:19:27Z</time>
      </trkpt>
      <trkpt lat="43.61957" lon="5.54694">
        <ele>437</ele>
        <time>2017-12-21T12:19:28Z</time>
      </trkpt>
      <trkpt lat="43.61958" lon="5.54691">
        <ele>437</ele>
        <time>2017-12-21T12:19:29Z</time>
      </trkpt>
      <trkpt lat="43.61961" lon="5.5466">
        <ele>438</ele>
        <time>2017-12-21T12:19:39Z</time>
      </trkpt>
      <trkpt lat="43.61976" lon="5.54642">
        <ele>438</ele>
        <time>2017-12-21T12:19:48Z</time>
      </trkpt>
      <trkpt lat="43.61984" lon="5.54639">
        <ele>439</ele>
        <time>2017-12-21T12:19:56Z</time>
      </trkpt>
      <trkpt lat="43.61988" lon="5.54638">
        <ele>439</ele>
        <time>2017-12-21T12:20:02Z</time>
      </trkpt>
      <trkpt lat="43.61988" lon="5.54634">
        <ele>440</ele>
        <time>2017-12-21T12:20:06Z</time>
      </trkpt>
      <trkpt lat="43.61987" lon="5.54635">
        <ele>440</ele>
        <time>2017-12-21T12:20:07Z</time>
      </trkpt>
      <trkpt lat="43.61987" lon="5.54636">
        <ele>440</ele>
        <time>2017-12-21T12:20:08Z</time>
      </trkpt>
      <trkpt lat="43.61986" lon="5.54637">
        <ele>440</ele>
        <time>2017-12-21T12:20:09Z</time>
      </trkpt>
      <trkpt lat="43.61984" lon="5.54637">
        <ele>440</ele>
        <time>2017-12-21T12:20:10Z</time>
      </trkpt>
      <trkpt lat="43.61982" lon="5.54638">
        <ele>440</ele>
        <time>2017-12-21T12:20:11Z</time>
      </trkpt>
      <trkpt lat="43.6198" lon="5.54638">
        <ele>440</ele>
        <time>2017-12-21T12:20:12Z</time>
      </trkpt>
      <trkpt lat="43.61978" lon="5.54639">
        <ele>440</ele>
        <time>2017-12-21T12:20:13Z</time>
      </trkpt>
      <trkpt lat="43.61976" lon="5.5464">
        <ele>440</ele>
        <time>2017-12-21T12:20:14Z</time>
      </trkpt>
      <trkpt lat="43.6197" lon="5.54645">
        <ele>438</ele>
        <time>2017-12-21T12:20:17Z</time>
      </trkpt>
      <trkpt lat="43.61962" lon="5.54647">
        <ele>438</ele>
        <time>2017-12-21T12:20:25Z</time>
      </trkpt>
      <trkpt lat="43.6196" lon="5.54647">
        <ele>438</ele>
        <time>2017-12-21T12:20:32Z</time>
      </trkpt>
      <trkpt lat="43.6196" lon="5.54646">
        <ele>438</ele>
        <time>2017-12-21T12:20:33Z</time>
      </trkpt>
      <trkpt lat="43.61959" lon="5.54643">
        <ele>438</ele>
        <time>2017-12-21T12:20:34Z</time>
      </trkpt>
      <trkpt lat="43.61959" lon="5.5464">
        <ele>437</ele>
        <time>2017-12-21T12:20:35Z</time>
      </trkpt>
      <trkpt lat="43.61959" lon="5.54636">
        <ele>437</ele>
        <time>2017-12-21T12:20:36Z</time>
      </trkpt>
      <trkpt lat="43.61959" lon="5.54632">
        <ele>436</ele>
        <time>2017-12-21T12:20:37Z</time>
      </trkpt>
      <trkpt lat="43.61959" lon="5.54627">
        <ele>436</ele>
        <time>2017-12-21T12:20:38Z</time>
      </trkpt>
      <trkpt lat="43.6196" lon="5.54622">
        <ele>435</ele>
        <time>2017-12-21T12:20:39Z</time>
      </trkpt>
      <trkpt lat="43.6196" lon="5.54593">
        <ele>431</ele>
        <time>2017-12-21T12:20:43Z</time>
      </trkpt>
      <trkpt lat="43.6196" lon="5.54586">
        <ele>430</ele>
        <time>2017-12-21T12:20:44Z</time>
      </trkpt>
      <trkpt lat="43.61961" lon="5.54579">
        <ele>430</ele>
        <time>2017-12-21T12:20:45Z</time>
      </trkpt>
      <trkpt lat="43.61963" lon="5.54574">
        <ele>430</ele>
        <time>2017-12-21T12:20:46Z</time>
      </trkpt>
      <trkpt lat="43.61966" lon="5.5457">
        <ele>430</ele>
        <time>2017-12-21T12:20:47Z</time>
      </trkpt>
      <trkpt lat="43.61969" lon="5.54567">
        <ele>429</ele>
        <time>2017-12-21T12:20:48Z</time>
      </trkpt>
      <trkpt lat="43.61972" lon="5.54565">
        <ele>429</ele>
        <time>2017-12-21T12:20:49Z</time>
      </trkpt>
      <trkpt lat="43.61976" lon="5.54563">
        <ele>428</ele>
        <time>2017-12-21T12:20:50Z</time>
      </trkpt>
      <trkpt lat="43.6198" lon="5.54562">
        <ele>428</ele>
        <time>2017-12-21T12:20:51Z</time>
      </trkpt>
      <trkpt lat="43.61988" lon="5.54559">
        <ele>426</ele>
        <time>2017-12-21T12:20:53Z</time>
      </trkpt>
      <trkpt lat="43.61991" lon="5.54556">
        <ele>426</ele>
        <time>2017-12-21T12:20:54Z</time>
      </trkpt>
      <trkpt lat="43.61993" lon="5.54552">
        <ele>426</ele>
        <time>2017-12-21T12:20:55Z</time>
      </trkpt>
      <trkpt lat="43.61995" lon="5.54546">
        <ele>426</ele>
        <time>2017-12-21T12:20:56Z</time>
      </trkpt>
      <trkpt lat="43.61995" lon="5.5454">
        <ele>425</ele>
        <time>2017-12-21T12:20:57Z</time>
      </trkpt>
      <trkpt lat="43.61994" lon="5.54534">
        <ele>425</ele>
        <time>2017-12-21T12:20:58Z</time>
      </trkpt>
      <trkpt lat="43.61994" lon="5.54528">
        <ele>424</ele>
        <time>2017-12-21T12:20:59Z</time>
      </trkpt>
      <trkpt lat="43.61993" lon="5.54521">
        <ele>424</ele>
        <time>2017-12-21T12:21:00Z</time>
      </trkpt>
      <trkpt lat="43.61992" lon="5.54514">
        <ele>424</ele>
        <time>2017-12-21T12:21:01Z</time>
      </trkpt>
      <trkpt lat="43.61991" lon="5.54507">
        <ele>424</ele>
        <time>2017-12-21T12:21:02Z</time>
      </trkpt>
      <trkpt lat="43.6199" lon="5.54479">
        <ele>422</ele>
        <time>2017-12-21T12:21:06Z</time>
      </trkpt>
      <trkpt lat="43.61992" lon="5.54457">
        <ele>421</ele>
        <time>2017-12-21T12:21:09Z</time>
      </trkpt>
      <trkpt lat="43.61995" lon="5.54443">
        <ele>421</ele>
        <time>2017-12-21T12:21:11Z</time>
      </trkpt>
      <trkpt lat="43.61995" lon="5.54437">
        <ele>421</ele>
        <time>2017-12-21T12:21:12Z</time>
      </trkpt>
      <trkpt lat="43.61996" lon="5.54431">
        <ele>421</ele>
        <time>2017-12-21T12:21:13Z</time>
      </trkpt>
      <trkpt lat="43.61996" lon="5.54425">
        <ele>421</ele>
        <time>2017-12-21T12:21:14Z</time>
      </trkpt>
      <trkpt lat="43.61995" lon="5.5442">
        <ele>421</ele>
        <time>2017-12-21T12:21:15Z</time>
      </trkpt>
      <trkpt lat="43.61997" lon="5.54412">
        <ele>421</ele>
        <time>2017-12-21T12:21:17Z</time>
      </trkpt>
      <trkpt lat="43.61999" lon="5.5441">
        <ele>421</ele>
        <time>2017-12-21T12:21:18Z</time>
      </trkpt>
      <trkpt lat="43.62001" lon="5.54408">
        <ele>420</ele>
        <time>2017-12-21T12:21:19Z</time>
      </trkpt>
      <trkpt lat="43.62004" lon="5.54408">
        <ele>419</ele>
        <time>2017-12-21T12:21:20Z</time>
      </trkpt>
      <trkpt lat="43.62007" lon="5.54408">
        <ele>419</ele>
        <time>2017-12-21T12:21:21Z</time>
      </trkpt>
      <trkpt lat="43.62011" lon="5.54408">
        <ele>419</ele>
        <time>2017-12-21T12:21:22Z</time>
      </trkpt>
      <trkpt lat="43.62015" lon="5.54408">
        <ele>418</ele>
        <time>2017-12-21T12:21:23Z</time>
      </trkpt>
      <trkpt lat="43.62023" lon="5.54409">
        <ele>416</ele>
        <time>2017-12-21T12:21:25Z</time>
      </trkpt>
      <trkpt lat="43.62031" lon="5.54408">
        <ele>416</ele>
        <time>2017-12-21T12:21:27Z</time>
      </trkpt>
      <trkpt lat="43.6204" lon="5.54405">
        <ele>415</ele>
        <time>2017-12-21T12:21:29Z</time>
      </trkpt>
      <trkpt lat="43.62044" lon="5.54401">
        <ele>414</ele>
        <time>2017-12-21T12:21:30Z</time>
      </trkpt>
      <trkpt lat="43.62047" lon="5.54396">
        <ele>413</ele>
        <time>2017-12-21T12:21:31Z</time>
      </trkpt>
      <trkpt lat="43.6205" lon="5.54391">
        <ele>413</ele>
        <time>2017-12-21T12:21:32Z</time>
      </trkpt>
      <trkpt lat="43.62051" lon="5.54384">
        <ele>412</ele>
        <time>2017-12-21T12:21:33Z</time>
      </trkpt>
      <trkpt lat="43.62051" lon="5.54376">
        <ele>411</ele>
        <time>2017-12-21T12:21:34Z</time>
      </trkpt>
      <trkpt lat="43.62051" lon="5.54369">
        <ele>410</ele>
        <time>2017-12-21T12:21:35Z</time>
      </trkpt>
      <trkpt lat="43.62051" lon="5.54362">
        <ele>409</ele>
        <time>2017-12-21T12:21:36Z</time>
      </trkpt>
      <trkpt lat="43.62052" lon="5.54356">
        <ele>409</ele>
        <time>2017-12-21T12:21:37Z</time>
      </trkpt>
      <trkpt lat="43.62054" lon="5.54353">
        <ele>409</ele>
        <time>2017-12-21T12:21:38Z</time>
      </trkpt>
      <trkpt lat="43.62056" lon="5.54351">
        <ele>409</ele>
        <time>2017-12-21T12:21:39Z</time>
      </trkpt>
      <trkpt lat="43.62059" lon="5.54351">
        <ele>409</ele>
        <time>2017-12-21T12:21:40Z</time>
      </trkpt>
      <trkpt lat="43.62061" lon="5.54351">
        <ele>408</ele>
        <time>2017-12-21T12:21:41Z</time>
      </trkpt>
      <trkpt lat="43.62065" lon="5.54352">
        <ele>407</ele>
        <time>2017-12-21T12:21:42Z</time>
      </trkpt>
      <trkpt lat="43.62068" lon="5.54355">
        <ele>407</ele>
        <time>2017-12-21T12:21:43Z</time>
      </trkpt>
      <trkpt lat="43.62071" lon="5.54357">
        <ele>406</ele>
        <time>2017-12-21T12:21:44Z</time>
      </trkpt>
      <trkpt lat="43.62075" lon="5.5436">
        <ele>406</ele>
        <time>2017-12-21T12:21:45Z</time>
      </trkpt>
      <trkpt lat="43.62079" lon="5.54363">
        <ele>405</ele>
        <time>2017-12-21T12:21:46Z</time>
      </trkpt>
      <trkpt lat="43.62083" lon="5.54365">
        <ele>404</ele>
        <time>2017-12-21T12:21:47Z</time>
      </trkpt>
      <trkpt lat="43.62087" lon="5.54366">
        <ele>403</ele>
        <time>2017-12-21T12:21:48Z</time>
      </trkpt>
      <trkpt lat="43.62091" lon="5.54364">
        <ele>402</ele>
        <time>2017-12-21T12:21:49Z</time>
      </trkpt>
      <trkpt lat="43.62095" lon="5.54361">
        <ele>402</ele>
        <time>2017-12-21T12:21:50Z</time>
      </trkpt>
      <trkpt lat="43.62098" lon="5.54357">
        <ele>402</ele>
        <time>2017-12-21T12:21:51Z</time>
      </trkpt>
      <trkpt lat="43.621" lon="5.54353">
        <ele>401</ele>
        <time>2017-12-21T12:21:52Z</time>
      </trkpt>
      <trkpt lat="43.62101" lon="5.54348">
        <ele>401</ele>
        <time>2017-12-21T12:21:53Z</time>
      </trkpt>
      <trkpt lat="43.62103" lon="5.54342">
        <ele>400</ele>
        <time>2017-12-21T12:21:54Z</time>
      </trkpt>
      <trkpt lat="43.62109" lon="5.54326">
        <ele>397</ele>
        <time>2017-12-21T12:21:57Z</time>
      </trkpt>
      <trkpt lat="43.62121" lon="5.54308">
        <ele>393</ele>
        <time>2017-12-21T12:22:01Z</time>
      </trkpt>
      <trkpt lat="43.62124" lon="5.54304">
        <ele>393</ele>
        <time>2017-12-21T12:22:02Z</time>
      </trkpt>
      <trkpt lat="43.62127" lon="5.543">
        <ele>393</ele>
        <time>2017-12-21T12:22:03Z</time>
      </trkpt>
      <trkpt lat="43.6213" lon="5.54295">
        <ele>391</ele>
        <time>2017-12-21T12:22:04Z</time>
      </trkpt>
      <trkpt lat="43.62142" lon="5.54278">
        <ele>388</ele>
        <time>2017-12-21T12:22:08Z</time>
      </trkpt>
      <trkpt lat="43.62148" lon="5.5426">
        <ele>387</ele>
        <time>2017-12-21T12:22:15Z</time>
      </trkpt>
      <trkpt lat="43.62143" lon="5.54236">
        <ele>385</ele>
        <time>2017-12-21T12:22:21Z</time>
      </trkpt>
      <trkpt lat="43.62127" lon="5.54203">
        <ele>383</ele>
        <time>2017-12-21T12:22:27Z</time>
      </trkpt>
      <trkpt lat="43.6212" lon="5.54193">
        <ele>382</ele>
        <time>2017-12-21T12:22:29Z</time>
      </trkpt>
      <trkpt lat="43.62095" lon="5.54143">
        <ele>379</ele>
        <time>2017-12-21T12:22:37Z</time>
      </trkpt>
      <trkpt lat="43.62093" lon="5.54137">
        <ele>378</ele>
        <time>2017-12-21T12:22:38Z</time>
      </trkpt>
      <trkpt lat="43.62092" lon="5.5413">
        <ele>378</ele>
        <time>2017-12-21T12:22:39Z</time>
      </trkpt>
      <trkpt lat="43.62091" lon="5.54124">
        <ele>377</ele>
        <time>2017-12-21T12:22:40Z</time>
      </trkpt>
      <trkpt lat="43.62092" lon="5.54118">
        <ele>377</ele>
        <time>2017-12-21T12:22:41Z</time>
      </trkpt>
      <trkpt lat="43.62092" lon="5.54112">
        <ele>376</ele>
        <time>2017-12-21T12:22:42Z</time>
      </trkpt>
      <trkpt lat="43.62093" lon="5.54106">
        <ele>376</ele>
        <time>2017-12-21T12:22:43Z</time>
      </trkpt>
      <trkpt lat="43.62094" lon="5.541">
        <ele>376</ele>
        <time>2017-12-21T12:22:44Z</time>
      </trkpt>
      <trkpt lat="43.62097" lon="5.54094">
        <ele>375</ele>
        <time>2017-12-21T12:22:45Z</time>
      </trkpt>
      <trkpt lat="43.62099" lon="5.54088">
        <ele>374</ele>
        <time>2017-12-21T12:22:46Z</time>
      </trkpt>
      <trkpt lat="43.62109" lon="5.54058">
        <ele>371</ele>
        <time>2017-12-21T12:22:50Z</time>
      </trkpt>
      <trkpt lat="43.62117" lon="5.54012">
        <ele>367</ele>
        <time>2017-12-21T12:22:56Z</time>
      </trkpt>
      <trkpt lat="43.62119" lon="5.53989">
        <ele>365</ele>
        <time>2017-12-21T12:22:59Z</time>
      </trkpt>
      <trkpt lat="43.62119" lon="5.53981">
        <ele>365</ele>
        <time>2017-12-21T12:23:00Z</time>
      </trkpt>
      <trkpt lat="43.62118" lon="5.53973">
        <ele>364</ele>
        <time>2017-12-21T12:23:01Z</time>
      </trkpt>
      <trkpt lat="43.62116" lon="5.53966">
        <ele>364</ele>
        <time>2017-12-21T12:23:02Z</time>
      </trkpt>
      <trkpt lat="43.62114" lon="5.5396">
        <ele>364</ele>
        <time>2017-12-21T12:23:03Z</time>
      </trkpt>
      <trkpt lat="43.62108" lon="5.53941">
        <ele>364</ele>
        <time>2017-12-21T12:23:06Z</time>
      </trkpt>
      <trkpt lat="43.62107" lon="5.53935">
        <ele>363</ele>
        <time>2017-12-21T12:23:07Z</time>
      </trkpt>
      <trkpt lat="43.62107" lon="5.53929">
        <ele>363</ele>
        <time>2017-12-21T12:23:08Z</time>
      </trkpt>
      <trkpt lat="43.62107" lon="5.53923">
        <ele>363</ele>
        <time>2017-12-21T12:23:09Z</time>
      </trkpt>
      <trkpt lat="43.62108" lon="5.53916">
        <ele>362</ele>
        <time>2017-12-21T12:23:10Z</time>
      </trkpt>
      <trkpt lat="43.6211" lon="5.5391">
        <ele>362</ele>
        <time>2017-12-21T12:23:11Z</time>
      </trkpt>
      <trkpt lat="43.62112" lon="5.53904">
        <ele>362</ele>
        <time>2017-12-21T12:23:12Z</time>
      </trkpt>
      <trkpt lat="43.62114" lon="5.539">
        <ele>361</ele>
        <time>2017-12-21T12:23:13Z</time>
      </trkpt>
      <trkpt lat="43.62117" lon="5.53896">
        <ele>361</ele>
        <time>2017-12-21T12:23:14Z</time>
      </trkpt>
      <trkpt lat="43.6212" lon="5.53893">
        <ele>361</ele>
        <time>2017-12-21T12:23:15Z</time>
      </trkpt>
      <trkpt lat="43.62123" lon="5.5389">
        <ele>360</ele>
        <time>2017-12-21T12:23:16Z</time>
      </trkpt>
      <trkpt lat="43.62131" lon="5.53885">
        <ele>359</ele>
        <time>2017-12-21T12:23:19Z</time>
      </trkpt>
      <trkpt lat="43.62132" lon="5.53884">
        <ele>359</ele>
        <time>2017-12-21T12:23:28Z</time>
      </trkpt>
      <trkpt lat="43.62131" lon="5.53881">
        <ele>359</ele>
        <time>2017-12-21T12:23:52Z</time>
      </trkpt>
      <trkpt lat="43.62132" lon="5.53881">
        <ele>359</ele>
        <time>2017-12-21T12:24:01Z</time>
      </trkpt>
      <trkpt lat="43.62134" lon="5.5388">
        <ele>359</ele>
        <time>2017-12-21T12:24:02Z</time>
      </trkpt>
      <trkpt lat="43.62136" lon="5.53879">
        <ele>358</ele>
        <time>2017-12-21T12:24:03Z</time>
      </trkpt>
      <trkpt lat="43.62139" lon="5.53878">
        <ele>358</ele>
        <time>2017-12-21T12:24:04Z</time>
      </trkpt>
      <trkpt lat="43.62143" lon="5.53877">
        <ele>357</ele>
        <time>2017-12-21T12:24:05Z</time>
      </trkpt>
      <trkpt lat="43.62147" lon="5.53876">
        <ele>357</ele>
        <time>2017-12-21T12:24:06Z</time>
      </trkpt>
      <trkpt lat="43.62169" lon="5.53873">
        <ele>354</ele>
        <time>2017-12-21T12:24:10Z</time>
      </trkpt>
      <trkpt lat="43.62175" lon="5.53872">
        <ele>352</ele>
        <time>2017-12-21T12:24:11Z</time>
      </trkpt>
      <trkpt lat="43.62186" lon="5.53873">
        <ele>351</ele>
        <time>2017-12-21T12:24:13Z</time>
      </trkpt>
      <trkpt lat="43.62208" lon="5.53875">
        <ele>347</ele>
        <time>2017-12-21T12:24:17Z</time>
      </trkpt>
      <trkpt lat="43.6223" lon="5.53878">
        <ele>345</ele>
        <time>2017-12-21T12:24:21Z</time>
      </trkpt>
      <trkpt lat="43.62251" lon="5.53882">
        <ele>341</ele>
        <time>2017-12-21T12:24:25Z</time>
      </trkpt>
      <trkpt lat="43.62256" lon="5.53882">
        <ele>341</ele>
        <time>2017-12-21T12:24:26Z</time>
      </trkpt>
      <trkpt lat="43.62259" lon="5.53882">
        <ele>340</ele>
        <time>2017-12-21T12:24:27Z</time>
      </trkpt>
      <trkpt lat="43.62266" lon="5.5388">
        <ele>339</ele>
        <time>2017-12-21T12:24:28Z</time>
      </trkpt>
      <trkpt lat="43.62271" lon="5.53878">
        <ele>339</ele>
        <time>2017-12-21T12:24:29Z</time>
      </trkpt>
      <trkpt lat="43.62289" lon="5.53864">
        <ele>336</ele>
        <time>2017-12-21T12:24:34Z</time>
      </trkpt>
      <trkpt lat="43.62295" lon="5.53858">
        <ele>336</ele>
        <time>2017-12-21T12:24:36Z</time>
      </trkpt>
      <trkpt lat="43.62316" lon="5.53841">
        <ele>332</ele>
        <time>2017-12-21T12:24:44Z</time>
      </trkpt>
      <trkpt lat="43.62321" lon="5.53836">
        <ele>332</ele>
        <time>2017-12-21T12:24:47Z</time>
      </trkpt>
      <trkpt lat="43.6233" lon="5.5382">
        <ele>329</ele>
        <time>2017-12-21T12:24:53Z</time>
      </trkpt>
      <trkpt lat="43.62332" lon="5.53812">
        <ele>329</ele>
        <time>2017-12-21T12:24:54Z</time>
      </trkpt>
      <trkpt lat="43.62333" lon="5.53807">
        <ele>328</ele>
        <time>2017-12-21T12:24:55Z</time>
      </trkpt>
      <trkpt lat="43.62339" lon="5.53784">
        <ele>326</ele>
        <time>2017-12-21T12:24:58Z</time>
      </trkpt>
      <trkpt lat="43.62342" lon="5.53776">
        <ele>325</ele>
        <time>2017-12-21T12:24:59Z</time>
      </trkpt>
      <trkpt lat="43.62345" lon="5.53769">
        <ele>325</ele>
        <time>2017-12-21T12:25:00Z</time>
      </trkpt>
      <trkpt lat="43.62351" lon="5.53758">
        <ele>325</ele>
        <time>2017-12-21T12:25:02Z</time>
      </trkpt>
      <trkpt lat="43.62355" lon="5.53754">
        <ele>325</ele>
        <time>2017-12-21T12:25:03Z</time>
      </trkpt>
      <trkpt lat="43.62359" lon="5.5375">
        <ele>325</ele>
        <time>2017-12-21T12:25:04Z</time>
      </trkpt>
      <trkpt lat="43.62364" lon="5.53747">
        <ele>325</ele>
        <time>2017-12-21T12:25:05Z</time>
      </trkpt>
      <trkpt lat="43.62367" lon="5.53746">
        <ele>325</ele>
        <time>2017-12-21T12:25:06Z</time>
      </trkpt>
      <trkpt lat="43.62371" lon="5.53746">
        <ele>326</ele>
        <time>2017-12-21T12:25:07Z</time>
      </trkpt>
      <trkpt lat="43.62374" lon="5.53746">
        <ele>326</ele>
        <time>2017-12-21T12:25:08Z</time>
      </trkpt>
      <trkpt lat="43.62397" lon="5.53763">
        <ele>324</ele>
        <time>2017-12-21T12:25:17Z</time>
      </trkpt>
      <trkpt lat="43.62413" lon="5.5378">
        <ele>320</ele>
        <time>2017-12-21T12:25:21Z</time>
      </trkpt>
      <trkpt lat="43.62433" lon="5.53795">
        <ele>318</ele>
        <time>2017-12-21T12:25:25Z</time>
      </trkpt>
      <trkpt lat="43.62439" lon="5.53797">
        <ele>317</ele>
        <time>2017-12-21T12:25:26Z</time>
      </trkpt>
      <trkpt lat="43.62444" lon="5.53799">
        <ele>317</ele>
        <time>2017-12-21T12:25:27Z</time>
      </trkpt>
      <trkpt lat="43.62494" lon="5.53813">
        <ele>317</ele>
        <time>2017-12-21T12:25:38Z</time>
      </trkpt>
      <trkpt lat="43.62528" lon="5.53819">
        <ele>316</ele>
        <time>2017-12-21T12:25:47Z</time>
      </trkpt>
      <trkpt lat="43.62532" lon="5.53818">
        <ele>316</ele>
        <time>2017-12-21T12:25:48Z</time>
      </trkpt>
      <trkpt lat="43.62537" lon="5.53816">
        <ele>316</ele>
        <time>2017-12-21T12:25:49Z</time>
      </trkpt>
      <trkpt lat="43.62541" lon="5.53813">
        <ele>316</ele>
        <time>2017-12-21T12:25:50Z</time>
      </trkpt>
      <trkpt lat="43.62545" lon="5.5381">
        <ele>316</ele>
        <time>2017-12-21T12:25:51Z</time>
      </trkpt>
      <trkpt lat="43.62548" lon="5.53806">
        <ele>316</ele>
        <time>2017-12-21T12:25:52Z</time>
      </trkpt>
      <trkpt lat="43.62551" lon="5.53802">
        <ele>316</ele>
        <time>2017-12-21T12:25:53Z</time>
      </trkpt>
      <trkpt lat="43.62584" lon="5.53751">
        <ele>314</ele>
        <time>2017-12-21T12:26:05Z</time>
      </trkpt>
      <trkpt lat="43.62589" lon="5.5374">
        <ele>314</ele>
        <time>2017-12-21T12:26:07Z</time>
      </trkpt>
      <trkpt lat="43.62591" lon="5.53734">
        <ele>314</ele>
        <time>2017-12-21T12:26:08Z</time>
      </trkpt>
      <trkpt lat="43.62593" lon="5.5369">
        <ele>310</ele>
        <time>2017-12-21T12:26:16Z</time>
      </trkpt>
      <trkpt lat="43.62594" lon="5.53683">
        <ele>309</ele>
        <time>2017-12-21T12:26:17Z</time>
      </trkpt>
      <trkpt lat="43.62596" lon="5.53675">
        <ele>309</ele>
        <time>2017-12-21T12:26:18Z</time>
      </trkpt>
      <trkpt lat="43.62601" lon="5.53658">
        <ele>309</ele>
        <time>2017-12-21T12:26:21Z</time>
      </trkpt>
      <trkpt lat="43.62604" lon="5.53655">
        <ele>309</ele>
        <time>2017-12-21T12:26:22Z</time>
      </trkpt>
      <trkpt lat="43.62607" lon="5.53653">
        <ele>309</ele>
        <time>2017-12-21T12:26:23Z</time>
      </trkpt>
      <trkpt lat="43.6263" lon="5.53637">
        <ele>308</ele>
        <time>2017-12-21T12:26:31Z</time>
      </trkpt>
      <trkpt lat="43.62637" lon="5.53629">
        <ele>307</ele>
        <time>2017-12-21T12:26:33Z</time>
      </trkpt>
      <trkpt lat="43.62641" lon="5.53625">
        <ele>307</ele>
        <time>2017-12-21T12:26:34Z</time>
      </trkpt>
      <trkpt lat="43.62646" lon="5.53621">
        <ele>307</ele>
        <time>2017-12-21T12:26:35Z</time>
      </trkpt>
      <trkpt lat="43.6265" lon="5.53619">
        <ele>307</ele>
        <time>2017-12-21T12:26:36Z</time>
      </trkpt>
      <trkpt lat="43.62654" lon="5.53617">
        <ele>307</ele>
        <time>2017-12-21T12:26:37Z</time>
      </trkpt>
      <trkpt lat="43.62658" lon="5.53616">
        <ele>306</ele>
        <time>2017-12-21T12:26:38Z</time>
      </trkpt>
      <trkpt lat="43.6268" lon="5.53602">
        <ele>306</ele>
        <time>2017-12-21T12:26:45Z</time>
      </trkpt>
      <trkpt lat="43.62704" lon="5.53582">
        <ele>305</ele>
        <time>2017-12-21T12:26:53Z</time>
      </trkpt>
      <trkpt lat="43.62728" lon="5.53567">
        <ele>305</ele>
        <time>2017-12-21T12:27:01Z</time>
      </trkpt>
      <trkpt lat="43.62735" lon="5.5356">
        <ele>304</ele>
        <time>2017-12-21T12:27:03Z</time>
      </trkpt>
      <trkpt lat="43.6274" lon="5.53557">
        <ele>303</ele>
        <time>2017-12-21T12:27:04Z</time>
      </trkpt>
      <trkpt lat="43.62785" lon="5.53537">
        <ele>301</ele>
        <time>2017-12-21T12:27:13Z</time>
      </trkpt>
      <trkpt lat="43.62791" lon="5.53536">
        <ele>301</ele>
        <time>2017-12-21T12:27:14Z</time>
      </trkpt>
      <trkpt lat="43.62797" lon="5.53535">
        <ele>300</ele>
        <time>2017-12-21T12:27:15Z</time>
      </trkpt>
      <trkpt lat="43.62802" lon="5.53534">
        <ele>300</ele>
        <time>2017-12-21T12:27:16Z</time>
      </trkpt>
      <trkpt lat="43.62808" lon="5.53534">
        <ele>300</ele>
        <time>2017-12-21T12:27:17Z</time>
      </trkpt>
      <trkpt lat="43.62814" lon="5.53533">
        <ele>299</ele>
        <time>2017-12-21T12:27:18Z</time>
      </trkpt>
      <trkpt lat="43.62834" lon="5.53532">
        <ele>299</ele>
        <time>2017-12-21T12:27:22Z</time>
      </trkpt>
      <trkpt lat="43.62839" lon="5.53532">
        <ele>299</ele>
        <time>2017-12-21T12:27:23Z</time>
      </trkpt>
      <trkpt lat="43.62843" lon="5.53533">
        <ele>298</ele>
        <time>2017-12-21T12:27:24Z</time>
      </trkpt>
      <trkpt lat="43.62847" lon="5.53534">
        <ele>298</ele>
        <time>2017-12-21T12:27:25Z</time>
      </trkpt>
      <trkpt lat="43.62851" lon="5.53535">
        <ele>297</ele>
        <time>2017-12-21T12:27:26Z</time>
      </trkpt>
      <trkpt lat="43.62855" lon="5.53537">
        <ele>297</ele>
        <time>2017-12-21T12:27:27Z</time>
      </trkpt>
      <trkpt lat="43.62861" lon="5.53538">
        <ele>297</ele>
        <time>2017-12-21T12:27:28Z</time>
      </trkpt>
      <trkpt lat="43.62867" lon="5.53539">
        <ele>297</ele>
        <time>2017-12-21T12:27:29Z</time>
      </trkpt>
      <trkpt lat="43.62875" lon="5.53539">
        <ele>296</ele>
        <time>2017-12-21T12:27:30Z</time>
      </trkpt>
      <trkpt lat="43.62882" lon="5.53538">
        <ele>295</ele>
        <time>2017-12-21T12:27:31Z</time>
      </trkpt>
      <trkpt lat="43.6289" lon="5.53534">
        <ele>294</ele>
        <time>2017-12-21T12:27:32Z</time>
      </trkpt>
      <trkpt lat="43.62897" lon="5.53527">
        <ele>293</ele>
        <time>2017-12-21T12:27:33Z</time>
      </trkpt>
      <trkpt lat="43.62903" lon="5.53518">
        <ele>291</ele>
        <time>2017-12-21T12:27:34Z</time>
      </trkpt>
      <trkpt lat="43.62909" lon="5.53507">
        <ele>289</ele>
        <time>2017-12-21T12:27:35Z</time>
      </trkpt>
      <trkpt lat="43.62917" lon="5.53497">
        <ele>286</ele>
        <time>2017-12-21T12:27:36Z</time>
      </trkpt>
      <trkpt lat="43.62925" lon="5.53487">
        <ele>285</ele>
        <time>2017-12-21T12:27:37Z</time>
      </trkpt>
      <trkpt lat="43.62933" lon="5.53476">
        <ele>284</ele>
        <time>2017-12-21T12:27:38Z</time>
      </trkpt>
      <trkpt lat="43.62941" lon="5.53465">
        <ele>283</ele>
        <time>2017-12-21T12:27:39Z</time>
      </trkpt>
      <trkpt lat="43.62963" lon="5.53433">
        <ele>281</ele>
        <time>2017-12-21T12:27:42Z</time>
      </trkpt>
      <trkpt lat="43.62972" lon="5.53424">
        <ele>279</ele>
        <time>2017-12-21T12:27:43Z</time>
      </trkpt>
      <trkpt lat="43.6299" lon="5.5341">
        <ele>278</ele>
        <time>2017-12-21T12:27:45Z</time>
      </trkpt>
      <trkpt lat="43.62996" lon="5.53408">
        <ele>278</ele>
        <time>2017-12-21T12:27:46Z</time>
      </trkpt>
      <trkpt lat="43.63002" lon="5.5341">
        <ele>278</ele>
        <time>2017-12-21T12:27:47Z</time>
      </trkpt>
      <trkpt lat="43.63007" lon="5.53413">
        <ele>277</ele>
        <time>2017-12-21T12:27:48Z</time>
      </trkpt>
      <trkpt lat="43.63013" lon="5.53418">
        <ele>277</ele>
        <time>2017-12-21T12:27:49Z</time>
      </trkpt>
      <trkpt lat="43.63017" lon="5.53426">
        <ele>276</ele>
        <time>2017-12-21T12:27:50Z</time>
      </trkpt>
      <trkpt lat="43.63026" lon="5.53442">
        <ele>275</ele>
        <time>2017-12-21T12:27:52Z</time>
      </trkpt>
      <trkpt lat="43.63034" lon="5.53455">
        <ele>275</ele>
        <time>2017-12-21T12:27:54Z</time>
      </trkpt>
      <trkpt lat="43.63038" lon="5.5346">
        <ele>275</ele>
        <time>2017-12-21T12:27:55Z</time>
      </trkpt>
      <trkpt lat="43.63042" lon="5.53464">
        <ele>275</ele>
        <time>2017-12-21T12:27:56Z</time>
      </trkpt>
      <trkpt lat="43.63048" lon="5.53469">
        <ele>275</ele>
        <time>2017-12-21T12:27:57Z</time>
      </trkpt>
      <trkpt lat="43.63052" lon="5.53473">
        <ele>275</ele>
        <time>2017-12-21T12:27:58Z</time>
      </trkpt>
      <trkpt lat="43.63057" lon="5.53478">
        <ele>275</ele>
        <time>2017-12-21T12:27:59Z</time>
      </trkpt>
      <trkpt lat="43.63062" lon="5.53482">
        <ele>275</ele>
        <time>2017-12-21T12:28:00Z</time>
      </trkpt>
      <trkpt lat="43.63071" lon="5.53487">
        <ele>275</ele>
        <time>2017-12-21T12:28:02Z</time>
      </trkpt>
      <trkpt lat="43.63075" lon="5.53489">
        <ele>275</ele>
        <time>2017-12-21T12:28:03Z</time>
      </trkpt>
      <trkpt lat="43.63082" lon="5.53492">
        <ele>276</ele>
        <time>2017-12-21T12:28:05Z</time>
      </trkpt>
      <trkpt lat="43.63103" lon="5.53504">
        <ele>276</ele>
        <time>2017-12-21T12:28:10Z</time>
      </trkpt>
      <trkpt lat="43.63108" lon="5.53505">
        <ele>276</ele>
        <time>2017-12-21T12:28:11Z</time>
      </trkpt>
      <trkpt lat="43.63113" lon="5.53506">
        <ele>276</ele>
        <time>2017-12-21T12:28:12Z</time>
      </trkpt>
      <trkpt lat="43.63118" lon="5.53506">
        <ele>276</ele>
        <time>2017-12-21T12:28:13Z</time>
      </trkpt>
      <trkpt lat="43.63122" lon="5.53506">
        <ele>276</ele>
        <time>2017-12-21T12:28:14Z</time>
      </trkpt>
      <trkpt lat="43.63127" lon="5.53504">
        <ele>276</ele>
        <time>2017-12-21T12:28:15Z</time>
      </trkpt>
      <trkpt lat="43.63131" lon="5.535">
        <ele>276</ele>
        <time>2017-12-21T12:28:16Z</time>
      </trkpt>
      <trkpt lat="43.63134" lon="5.53496">
        <ele>276</ele>
        <time>2017-12-21T12:28:17Z</time>
      </trkpt>
      <trkpt lat="43.63137" lon="5.53491">
        <ele>276</ele>
        <time>2017-12-21T12:28:18Z</time>
      </trkpt>
      <trkpt lat="43.6314" lon="5.53485">
        <ele>276</ele>
        <time>2017-12-21T12:28:19Z</time>
      </trkpt>
      <trkpt lat="43.63141" lon="5.53478">
        <ele>274</ele>
        <time>2017-12-21T12:28:20Z</time>
      </trkpt>
      <trkpt lat="43.63141" lon="5.5347">
        <ele>274</ele>
        <time>2017-12-21T12:28:21Z</time>
      </trkpt>
      <trkpt lat="43.6314" lon="5.5346">
        <ele>273</ele>
        <time>2017-12-21T12:28:22Z</time>
      </trkpt>
      <trkpt lat="43.63136" lon="5.53452">
        <ele>272</ele>
        <time>2017-12-21T12:28:23Z</time>
      </trkpt>
      <trkpt lat="43.63132" lon="5.53444">
        <ele>271</ele>
        <time>2017-12-21T12:28:24Z</time>
      </trkpt>
      <trkpt lat="43.6313" lon="5.53437">
        <ele>270</ele>
        <time>2017-12-21T12:28:25Z</time>
      </trkpt>
      <trkpt lat="43.6313" lon="5.53429">
        <ele>269</ele>
        <time>2017-12-21T12:28:26Z</time>
      </trkpt>
      <trkpt lat="43.63133" lon="5.53422">
        <ele>269</ele>
        <time>2017-12-21T12:28:27Z</time>
      </trkpt>
      <trkpt lat="43.63138" lon="5.53417">
        <ele>268</ele>
        <time>2017-12-21T12:28:28Z</time>
      </trkpt>
      <trkpt lat="43.63144" lon="5.53415">
        <ele>268</ele>
        <time>2017-12-21T12:28:29Z</time>
      </trkpt>
      <trkpt lat="43.6315" lon="5.53417">
        <ele>268</ele>
        <time>2017-12-21T12:28:30Z</time>
      </trkpt>
      <trkpt lat="43.63155" lon="5.53421">
        <ele>268</ele>
        <time>2017-12-21T12:28:31Z</time>
      </trkpt>
      <trkpt lat="43.6316" lon="5.53425">
        <ele>268</ele>
        <time>2017-12-21T12:28:32Z</time>
      </trkpt>
      <trkpt lat="43.63179" lon="5.53441">
        <ele>268</ele>
        <time>2017-12-21T12:28:36Z</time>
      </trkpt>
      <trkpt lat="43.63213" lon="5.5346">
        <ele>267</ele>
        <time>2017-12-21T12:28:43Z</time>
      </trkpt>
      <trkpt lat="43.63218" lon="5.53461">
        <ele>267</ele>
        <time>2017-12-21T12:28:44Z</time>
      </trkpt>
      <trkpt lat="43.63223" lon="5.53461">
        <ele>266</ele>
        <time>2017-12-21T12:28:45Z</time>
      </trkpt>
      <trkpt lat="43.63229" lon="5.5346">
        <ele>266</ele>
        <time>2017-12-21T12:28:46Z</time>
      </trkpt>
      <trkpt lat="43.63233" lon="5.53458">
        <ele>266</ele>
        <time>2017-12-21T12:28:47Z</time>
      </trkpt>
      <trkpt lat="43.63239" lon="5.53456">
        <ele>266</ele>
        <time>2017-12-21T12:28:48Z</time>
      </trkpt>
      <trkpt lat="43.6325" lon="5.53449">
        <ele>264</ele>
        <time>2017-12-21T12:28:50Z</time>
      </trkpt>
      <trkpt lat="43.63256" lon="5.53445">
        <ele>264</ele>
        <time>2017-12-21T12:28:51Z</time>
      </trkpt>
      <trkpt lat="43.63261" lon="5.53439">
        <ele>264</ele>
        <time>2017-12-21T12:28:52Z</time>
      </trkpt>
      <trkpt lat="43.63308" lon="5.53374">
        <ele>262</ele>
        <time>2017-12-21T12:29:02Z</time>
      </trkpt>
      <trkpt lat="43.63334" lon="5.5334">
        <ele>261</ele>
        <time>2017-12-21T12:29:08Z</time>
      </trkpt>
      <trkpt lat="43.63336" lon="5.53333">
        <ele>261</ele>
        <time>2017-12-21T12:29:09Z</time>
      </trkpt>
      <trkpt lat="43.63337" lon="5.53327">
        <ele>261</ele>
        <time>2017-12-21T12:29:10Z</time>
      </trkpt>
      <trkpt lat="43.63337" lon="5.53322">
        <ele>261</ele>
        <time>2017-12-21T12:29:11Z</time>
      </trkpt>
      <trkpt lat="43.63337" lon="5.53317">
        <ele>261</ele>
        <time>2017-12-21T12:29:12Z</time>
      </trkpt>
      <trkpt lat="43.63337" lon="5.53312">
        <ele>262</ele>
        <time>2017-12-21T12:29:13Z</time>
      </trkpt>
      <trkpt lat="43.63338" lon="5.53307">
        <ele>262</ele>
        <time>2017-12-21T12:29:14Z</time>
      </trkpt>
      <trkpt lat="43.63338" lon="5.53302">
        <ele>263</ele>
        <time>2017-12-21T12:29:15Z</time>
      </trkpt>
      <trkpt lat="43.63339" lon="5.53268">
        <ele>265</ele>
        <time>2017-12-21T12:29:24Z</time>
      </trkpt>
      <trkpt lat="43.63353" lon="5.53245">
        <ele>264</ele>
        <time>2017-12-21T12:29:31Z</time>
      </trkpt>
      <trkpt lat="43.63388" lon="5.53223">
        <ele>260</ele>
        <time>2017-12-21T12:29:37Z</time>
      </trkpt>
      <trkpt lat="43.63401" lon="5.53215">
        <ele>260</ele>
        <time>2017-12-21T12:29:39Z</time>
      </trkpt>
      <trkpt lat="43.63414" lon="5.53207">
        <ele>259</ele>
        <time>2017-12-21T12:29:41Z</time>
      </trkpt>
      <trkpt lat="43.63449" lon="5.53185">
        <ele>257</ele>
        <time>2017-12-21T12:29:46Z</time>
      </trkpt>
      <trkpt lat="43.63473" lon="5.5317">
        <ele>256</ele>
        <time>2017-12-21T12:29:51Z</time>
      </trkpt>
      <trkpt lat="43.63496" lon="5.53156">
        <ele>255</ele>
        <time>2017-12-21T12:30:01Z</time>
      </trkpt>
      <trkpt lat="43.63547" lon="5.53122">
        <ele>253</ele>
        <time>2017-12-21T12:30:13Z</time>
      </trkpt>
      <trkpt lat="43.63587" lon="5.53095">
        <ele>251</ele>
        <time>2017-12-21T12:30:22Z</time>
      </trkpt>
      <trkpt lat="43.63592" lon="5.53094">
        <ele>251</ele>
        <time>2017-12-21T12:30:23Z</time>
      </trkpt>
      <trkpt lat="43.63598" lon="5.53094">
        <ele>251</ele>
        <time>2017-12-21T12:30:24Z</time>
      </trkpt>
      <trkpt lat="43.63624" lon="5.53099">
        <ele>250</ele>
        <time>2017-12-21T12:30:29Z</time>
      </trkpt>
      <trkpt lat="43.63628" lon="5.53098">
        <ele>250</ele>
        <time>2017-12-21T12:30:30Z</time>
      </trkpt>
      <trkpt lat="43.63633" lon="5.53096">
        <ele>250</ele>
        <time>2017-12-21T12:30:31Z</time>
      </trkpt>
      <trkpt lat="43.63636" lon="5.53093">
        <ele>250</ele>
        <time>2017-12-21T12:30:32Z</time>
      </trkpt>
      <trkpt lat="43.63639" lon="5.53089">
        <ele>250</ele>
        <time>2017-12-21T12:30:33Z</time>
      </trkpt>
      <trkpt lat="43.63641" lon="5.53085">
        <ele>250</ele>
        <time>2017-12-21T12:30:34Z</time>
      </trkpt>
      <trkpt lat="43.63642" lon="5.53079">
        <ele>250</ele>
        <time>2017-12-21T12:30:35Z</time>
      </trkpt>
      <trkpt lat="43.63643" lon="5.53074">
        <ele>250</ele>
        <time>2017-12-21T12:30:36Z</time>
      </trkpt>
      <trkpt lat="43.63644" lon="5.53068">
        <ele>250</ele>
        <time>2017-12-21T12:30:37Z</time>
      </trkpt>
      <trkpt lat="43.63644" lon="5.53062">
        <ele>250</ele>
        <time>2017-12-21T12:30:38Z</time>
      </trkpt>
      <trkpt lat="43.63647" lon="5.53033">
        <ele>250</ele>
        <time>2017-12-21T12:30:43Z</time>
      </trkpt>
      <trkpt lat="43.63647" lon="5.53027">
        <ele>250</ele>
        <time>2017-12-21T12:30:44Z</time>
      </trkpt>
      <trkpt lat="43.63648" lon="5.53022">
        <ele>250</ele>
        <time>2017-12-21T12:30:45Z</time>
      </trkpt>
      <trkpt lat="43.63653" lon="5.52968">
        <ele>249</ele>
        <time>2017-12-21T12:30:54Z</time>
      </trkpt>
      <trkpt lat="43.6366" lon="5.52892">
        <ele>248</ele>
        <time>2017-12-21T12:31:07Z</time>
      </trkpt>
      <trkpt lat="43.63664" lon="5.52869">
        <ele>248</ele>
        <time>2017-12-21T12:31:11Z</time>
      </trkpt>
      <trkpt lat="43.63666" lon="5.52865">
        <ele>247</ele>
        <time>2017-12-21T12:31:12Z</time>
      </trkpt>
      <trkpt lat="43.63668" lon="5.52861">
        <ele>247</ele>
        <time>2017-12-21T12:31:13Z</time>
      </trkpt>
      <trkpt lat="43.63669" lon="5.52857">
        <ele>247</ele>
        <time>2017-12-21T12:31:14Z</time>
      </trkpt>
      <trkpt lat="43.63671" lon="5.52853">
        <ele>247</ele>
        <time>2017-12-21T12:31:15Z</time>
      </trkpt>
      <trkpt lat="43.63672" lon="5.52849">
        <ele>247</ele>
        <time>2017-12-21T12:31:16Z</time>
      </trkpt>
      <trkpt lat="43.6368" lon="5.52825">
        <ele>246</ele>
        <time>2017-12-21T12:31:25Z</time>
      </trkpt>
      <trkpt lat="43.63679" lon="5.52822">
        <ele>246</ele>
        <time>2017-12-21T12:31:26Z</time>
      </trkpt>
      <trkpt lat="43.63658" lon="5.52816">
        <ele>246</ele>
        <time>2017-12-21T12:31:33Z</time>
      </trkpt>
      <trkpt lat="43.63605" lon="5.52817">
        <ele>246</ele>
        <time>2017-12-21T12:31:45Z</time>
      </trkpt>
      <trkpt lat="43.63588" lon="5.5282">
        <ele>246</ele>
        <time>2017-12-21T12:31:49Z</time>
      </trkpt>
      <trkpt lat="43.6358" lon="5.52822">
        <ele>247</ele>
        <time>2017-12-21T12:31:51Z</time>
      </trkpt>
      <trkpt lat="43.63543" lon="5.52822">
        <ele>249</ele>
        <time>2017-12-21T12:32:01Z</time>
      </trkpt>
      <trkpt lat="43.6348" lon="5.52806">
        <ele>246</ele>
        <time>2017-12-21T12:32:14Z</time>
      </trkpt>
      <trkpt lat="43.6343" lon="5.52801">
        <ele>246</ele>
        <time>2017-12-21T12:32:25Z</time>
      </trkpt>
      <trkpt lat="43.63378" lon="5.52809">
        <ele>246</ele>
        <time>2017-12-21T12:32:36Z</time>
      </trkpt>
      <trkpt lat="43.63346" lon="5.52822">
        <ele>246</ele>
        <time>2017-12-21T12:32:45Z</time>
      </trkpt>
      <trkpt lat="43.63314" lon="5.52833">
        <ele>246</ele>
        <time>2017-12-21T12:32:56Z</time>
      </trkpt>
      <trkpt lat="43.63277" lon="5.52828">
        <ele>246</ele>
        <time>2017-12-21T12:33:06Z</time>
      </trkpt>
      <trkpt lat="43.63248" lon="5.52791">
        <ele>246</ele>
        <time>2017-12-21T12:33:17Z</time>
      </trkpt>
      <trkpt lat="43.63236" lon="5.52745">
        <ele>246</ele>
        <time>2017-12-21T12:33:27Z</time>
      </trkpt>
      <trkpt lat="43.63235" lon="5.5273">
        <ele>247</ele>
        <time>2017-12-21T12:33:30Z</time>
      </trkpt>
      <trkpt lat="43.63236" lon="5.52672">
        <ele>248</ele>
        <time>2017-12-21T12:33:41Z</time>
      </trkpt>
      <trkpt lat="43.63241" lon="5.52604">
        <ele>249</ele>
        <time>2017-12-21T12:33:53Z</time>
      </trkpt>
      <trkpt lat="43.63249" lon="5.52534">
        <ele>251</ele>
        <time>2017-12-21T12:34:05Z</time>
      </trkpt>
      <trkpt lat="43.63271" lon="5.52445">
        <ele>252</ele>
        <time>2017-12-21T12:34:20Z</time>
      </trkpt>
      <trkpt lat="43.63286" lon="5.52385">
        <ele>252</ele>
        <time>2017-12-21T12:34:30Z</time>
      </trkpt>
      <trkpt lat="43.63289" lon="5.52316">
        <ele>252</ele>
        <time>2017-12-21T12:34:40Z</time>
      </trkpt>
      <trkpt lat="43.6328" lon="5.52278">
        <ele>252</ele>
        <time>2017-12-21T12:34:46Z</time>
      </trkpt>
      <trkpt lat="43.63264" lon="5.52219">
        <ele>253</ele>
        <time>2017-12-21T12:34:56Z</time>
      </trkpt>
      <trkpt lat="43.6326" lon="5.52198">
        <ele>253</ele>
        <time>2017-12-21T12:34:59Z</time>
      </trkpt>
      <trkpt lat="43.63255" lon="5.52182">
        <ele>253</ele>
        <time>2017-12-21T12:35:02Z</time>
      </trkpt>
      <trkpt lat="43.63212" lon="5.52112">
        <ele>253</ele>
        <time>2017-12-21T12:35:15Z</time>
      </trkpt>
      <trkpt lat="43.63168" lon="5.52055">
        <ele>253</ele>
        <time>2017-12-21T12:35:28Z</time>
      </trkpt>
      <trkpt lat="43.6316" lon="5.52056">
        <ele>253</ele>
        <time>2017-12-21T12:35:30Z</time>
      </trkpt>
      <trkpt lat="43.63156" lon="5.52057">
        <ele>253</ele>
        <time>2017-12-21T12:35:31Z</time>
      </trkpt>
      <trkpt lat="43.63153" lon="5.52058">
        <ele>253</ele>
        <time>2017-12-21T12:35:32Z</time>
      </trkpt>
      <trkpt lat="43.63136" lon="5.52071">
        <ele>254</ele>
        <time>2017-12-21T12:35:37Z</time>
      </trkpt>
      <trkpt lat="43.63132" lon="5.52073">
        <ele>254</ele>
        <time>2017-12-21T12:35:38Z</time>
      </trkpt>
      <trkpt lat="43.63102" lon="5.52088">
        <ele>255</ele>
        <time>2017-12-21T12:35:45Z</time>
      </trkpt>
      <trkpt lat="43.63098" lon="5.52091">
        <ele>255</ele>
        <time>2017-12-21T12:35:46Z</time>
      </trkpt>
      <trkpt lat="43.63044" lon="5.5213">
        <ele>254</ele>
        <time>2017-12-21T12:35:58Z</time>
      </trkpt>
      <trkpt lat="43.6304" lon="5.52135">
        <ele>254</ele>
        <time>2017-12-21T12:35:59Z</time>
      </trkpt>
      <trkpt lat="43.63034" lon="5.52146">
        <ele>254</ele>
        <time>2017-12-21T12:36:01Z</time>
      </trkpt>
      <trkpt lat="43.63031" lon="5.52153">
        <ele>254</ele>
        <time>2017-12-21T12:36:02Z</time>
      </trkpt>
      <trkpt lat="43.63029" lon="5.52159">
        <ele>254</ele>
        <time>2017-12-21T12:36:03Z</time>
      </trkpt>
      <trkpt lat="43.63027" lon="5.52166">
        <ele>254</ele>
        <time>2017-12-21T12:36:04Z</time>
      </trkpt>
      <trkpt lat="43.63026" lon="5.52173">
        <ele>254</ele>
        <time>2017-12-21T12:36:05Z</time>
      </trkpt>
      <trkpt lat="43.63001" lon="5.52257">
        <ele>254</ele>
        <time>2017-12-21T12:36:18Z</time>
      </trkpt>
      <trkpt lat="43.62984" lon="5.52287">
        <ele>254</ele>
        <time>2017-12-21T12:36:23Z</time>
      </trkpt>
      <trkpt lat="43.62972" lon="5.523">
        <ele>254</ele>
        <time>2017-12-21T12:36:26Z</time>
      </trkpt>
      <trkpt lat="43.62968" lon="5.52304">
        <ele>254</ele>
        <time>2017-12-21T12:36:27Z</time>
      </trkpt>
      <trkpt lat="43.62963" lon="5.52307">
        <ele>255</ele>
        <time>2017-12-21T12:36:28Z</time>
      </trkpt>
      <trkpt lat="43.62958" lon="5.52308">
        <ele>255</ele>
        <time>2017-12-21T12:36:29Z</time>
      </trkpt>
      <trkpt lat="43.62953" lon="5.52307">
        <ele>255</ele>
        <time>2017-12-21T12:36:30Z</time>
      </trkpt>
      <trkpt lat="43.62949" lon="5.52305">
        <ele>255</ele>
        <time>2017-12-21T12:36:31Z</time>
      </trkpt>
      <trkpt lat="43.62944" lon="5.52302">
        <ele>255</ele>
        <time>2017-12-21T12:36:32Z</time>
      </trkpt>
      <trkpt lat="43.62941" lon="5.52298">
        <ele>255</ele>
        <time>2017-12-21T12:36:33Z</time>
      </trkpt>
      <trkpt lat="43.62937" lon="5.52294">
        <ele>255</ele>
        <time>2017-12-21T12:36:34Z</time>
      </trkpt>
      <trkpt lat="43.62888" lon="5.52253">
        <ele>256</ele>
        <time>2017-12-21T12:36:46Z</time>
      </trkpt>
      <trkpt lat="43.62869" lon="5.5224">
        <ele>257</ele>
        <time>2017-12-21T12:36:51Z</time>
      </trkpt>
      <trkpt lat="43.62865" lon="5.52238">
        <ele>258</ele>
        <time>2017-12-21T12:36:52Z</time>
      </trkpt>
      <trkpt lat="43.62862" lon="5.52236">
        <ele>258</ele>
        <time>2017-12-21T12:36:53Z</time>
      </trkpt>
      <trkpt lat="43.62859" lon="5.52234">
        <ele>258</ele>
        <time>2017-12-21T12:36:54Z</time>
      </trkpt>
      <trkpt lat="43.62856" lon="5.52231">
        <ele>258</ele>
        <time>2017-12-21T12:36:55Z</time>
      </trkpt>
      <trkpt lat="43.62854" lon="5.52229">
        <ele>259</ele>
        <time>2017-12-21T12:36:56Z</time>
      </trkpt>
      <trkpt lat="43.62852" lon="5.52226">
        <ele>260</ele>
        <time>2017-12-21T12:36:57Z</time>
      </trkpt>
      <trkpt lat="43.6285" lon="5.52224">
        <ele>260</ele>
        <time>2017-12-21T12:36:58Z</time>
      </trkpt>
      <trkpt lat="43.62838" lon="5.52197">
        <ele>263</ele>
        <time>2017-12-21T12:37:08Z</time>
      </trkpt>
      <trkpt lat="43.62832" lon="5.52164">
        <ele>265</ele>
        <time>2017-12-21T12:37:18Z</time>
      </trkpt>
      <trkpt lat="43.62829" lon="5.52143">
        <ele>266</ele>
        <time>2017-12-21T12:37:24Z</time>
      </trkpt>
      <trkpt lat="43.62827" lon="5.52141">
        <ele>266</ele>
        <time>2017-12-21T12:37:25Z</time>
      </trkpt>
      <trkpt lat="43.62824" lon="5.52141">
        <ele>266</ele>
        <time>2017-12-21T12:37:26Z</time>
      </trkpt>
      <trkpt lat="43.62794" lon="5.52145">
        <ele>263</ele>
        <time>2017-12-21T12:37:36Z</time>
      </trkpt>
      <trkpt lat="43.62762" lon="5.52137">
        <ele>260</ele>
        <time>2017-12-21T12:37:43Z</time>
      </trkpt>
      <trkpt lat="43.62731" lon="5.52129">
        <ele>258</ele>
        <time>2017-12-21T12:37:48Z</time>
      </trkpt>
      <trkpt lat="43.62715" lon="5.52121">
        <ele>258</ele>
        <time>2017-12-21T12:37:51Z</time>
      </trkpt>
      <trkpt lat="43.62692" lon="5.52099">
        <ele>260</ele>
        <time>2017-12-21T12:37:59Z</time>
      </trkpt>
      <trkpt lat="43.62689" lon="5.52098">
        <ele>260</ele>
        <time>2017-12-21T12:38:00Z</time>
      </trkpt>
      <trkpt lat="43.62659" lon="5.52104">
        <ele>262</ele>
        <time>2017-12-21T12:38:09Z</time>
      </trkpt>
      <trkpt lat="43.62624" lon="5.52085">
        <ele>262</ele>
        <time>2017-12-21T12:38:18Z</time>
      </trkpt>
      <trkpt lat="43.62593" lon="5.52066">
        <ele>263</ele>
        <time>2017-12-21T12:38:25Z</time>
      </trkpt>
      <trkpt lat="43.6254" lon="5.5203">
        <ele>264</ele>
        <time>2017-12-21T12:38:38Z</time>
      </trkpt>
      <trkpt lat="43.62536" lon="5.52027">
        <ele>264</ele>
        <time>2017-12-21T12:38:39Z</time>
      </trkpt>
      <trkpt lat="43.62532" lon="5.52025">
        <ele>264</ele>
        <time>2017-12-21T12:38:40Z</time>
      </trkpt>
      <trkpt lat="43.62528" lon="5.52022">
        <ele>264</ele>
        <time>2017-12-21T12:38:41Z</time>
      </trkpt>
      <trkpt lat="43.62475" lon="5.51993">
        <ele>264</ele>
        <time>2017-12-21T12:38:54Z</time>
      </trkpt>
      <trkpt lat="43.62422" lon="5.51967">
        <ele>266</ele>
        <time>2017-12-21T12:39:08Z</time>
      </trkpt>
      <trkpt lat="43.62397" lon="5.51966">
        <ele>267</ele>
        <time>2017-12-21T12:39:16Z</time>
      </trkpt>
      <trkpt lat="43.62396" lon="5.51969">
        <ele>267</ele>
        <time>2017-12-21T12:39:17Z</time>
      </trkpt>
      <trkpt lat="43.62396" lon="5.51973">
        <ele>268</ele>
        <time>2017-12-21T12:39:18Z</time>
      </trkpt>
      <trkpt lat="43.62396" lon="5.51977">
        <ele>268</ele>
        <time>2017-12-21T12:39:19Z</time>
      </trkpt>
      <trkpt lat="43.62395" lon="5.5198">
        <ele>268</ele>
        <time>2017-12-21T12:39:20Z</time>
      </trkpt>
      <trkpt lat="43.62393" lon="5.51984">
        <ele>268</ele>
        <time>2017-12-21T12:39:21Z</time>
      </trkpt>
      <trkpt lat="43.62391" lon="5.51986">
        <ele>268</ele>
        <time>2017-12-21T12:39:22Z</time>
      </trkpt>
      <trkpt lat="43.62388" lon="5.51987">
        <ele>268</ele>
        <time>2017-12-21T12:39:23Z</time>
      </trkpt>
      <trkpt lat="43.62385" lon="5.51986">
        <ele>268</ele>
        <time>2017-12-21T12:39:24Z</time>
      </trkpt>
      <trkpt lat="43.62381" lon="5.51985">
        <ele>268</ele>
        <time>2017-12-21T12:39:25Z</time>
      </trkpt>
      <trkpt lat="43.62378" lon="5.51984">
        <ele>268</ele>
        <time>2017-12-21T12:39:26Z</time>
      </trkpt>
      <trkpt lat="43.62348" lon="5.51982">
        <ele>270</ele>
        <time>2017-12-21T12:39:35Z</time>
      </trkpt>
      <trkpt lat="43.62307" lon="5.51984">
        <ele>273</ele>
        <time>2017-12-21T12:39:47Z</time>
      </trkpt>
      <trkpt lat="43.6226" lon="5.51991">
        <ele>275</ele>
        <time>2017-12-21T12:40:01Z</time>
      </trkpt>
      <trkpt lat="43.62211" lon="5.52004">
        <ele>275</ele>
        <time>2017-12-21T12:40:14Z</time>
      </trkpt>
      <trkpt lat="43.62182" lon="5.52019">
        <ele>271</ele>
        <time>2017-12-21T12:40:20Z</time>
      </trkpt>
      <trkpt lat="43.62177" lon="5.52022">
        <ele>271</ele>
        <time>2017-12-21T12:40:21Z</time>
      </trkpt>
      <trkpt lat="43.62173" lon="5.52025">
        <ele>271</ele>
        <time>2017-12-21T12:40:22Z</time>
      </trkpt>
      <trkpt lat="43.6217" lon="5.52029">
        <ele>271</ele>
        <time>2017-12-21T12:40:23Z</time>
      </trkpt>
      <trkpt lat="43.62166" lon="5.52034">
        <ele>271</ele>
        <time>2017-12-21T12:40:24Z</time>
      </trkpt>
      <trkpt lat="43.62162" lon="5.52039">
        <ele>271</ele>
        <time>2017-12-21T12:40:25Z</time>
      </trkpt>
      <trkpt lat="43.62159" lon="5.52045">
        <ele>271</ele>
        <time>2017-12-21T12:40:26Z</time>
      </trkpt>
      <trkpt lat="43.62116" lon="5.52093">
        <ele>270</ele>
        <time>2017-12-21T12:40:37Z</time>
      </trkpt>
      <trkpt lat="43.621" lon="5.52102">
        <ele>270</ele>
        <time>2017-12-21T12:40:41Z</time>
      </trkpt>
      <trkpt lat="43.62068" lon="5.52107">
        <ele>270</ele>
        <time>2017-12-21T12:40:48Z</time>
      </trkpt>
      <trkpt lat="43.62064" lon="5.52107">
        <ele>270</ele>
        <time>2017-12-21T12:40:49Z</time>
      </trkpt>
      <trkpt lat="43.62037" lon="5.52113">
        <ele>270</ele>
        <time>2017-12-21T12:40:55Z</time>
      </trkpt>
      <trkpt lat="43.62028" lon="5.52115">
        <ele>271</ele>
        <time>2017-12-21T12:40:57Z</time>
      </trkpt>
      <trkpt lat="43.61982" lon="5.52122">
        <ele>272</ele>
        <time>2017-12-21T12:41:08Z</time>
      </trkpt>
      <trkpt lat="43.61956" lon="5.52127">
        <ele>272</ele>
        <time>2017-12-21T12:41:14Z</time>
      </trkpt>
      <trkpt lat="43.61952" lon="5.52129">
        <ele>273</ele>
        <time>2017-12-21T12:41:15Z</time>
      </trkpt>
      <trkpt lat="43.6191" lon="5.52148">
        <ele>275</ele>
        <time>2017-12-21T12:41:26Z</time>
      </trkpt>
      <trkpt lat="43.61906" lon="5.52151">
        <ele>275</ele>
        <time>2017-12-21T12:41:27Z</time>
      </trkpt>
      <trkpt lat="43.61866" lon="5.52171">
        <ele>277</ele>
        <time>2017-12-21T12:41:38Z</time>
      </trkpt>
      <trkpt lat="43.6184" lon="5.52184">
        <ele>278</ele>
        <time>2017-12-21T12:41:48Z</time>
      </trkpt>
      <trkpt lat="43.61838" lon="5.52186">
        <ele>278</ele>
        <time>2017-12-21T12:41:56Z</time>
      </trkpt>
      <trkpt lat="43.61838" lon="5.52187">
        <ele>279</ele>
        <time>2017-12-21T12:42:13Z</time>
      </trkpt>
      <trkpt lat="43.61837" lon="5.52186">
        <ele>279</ele>
        <time>2017-12-21T12:42:34Z</time>
      </trkpt>
      <trkpt lat="43.61836" lon="5.52183">
        <ele>279</ele>
        <time>2017-12-21T12:42:51Z</time>
      </trkpt>
      <trkpt lat="43.61836" lon="5.52188">
        <ele>279</ele>
        <time>2017-12-21T12:43:11Z</time>
      </trkpt>
      <trkpt lat="43.61833" lon="5.52191">
        <ele>279</ele>
        <time>2017-12-21T12:43:21Z</time>
      </trkpt>
      <trkpt lat="43.61832" lon="5.52192">
        <ele>279</ele>
        <time>2017-12-21T12:43:22Z</time>
      </trkpt>
      <trkpt lat="43.61831" lon="5.52193">
        <ele>279</ele>
        <time>2017-12-21T12:43:23Z</time>
      </trkpt>
      <trkpt lat="43.61828" lon="5.52194">
        <ele>279</ele>
        <time>2017-12-21T12:43:24Z</time>
      </trkpt>
      <trkpt lat="43.61826" lon="5.52194">
        <ele>279</ele>
        <time>2017-12-21T12:43:25Z</time>
      </trkpt>
      <trkpt lat="43.61822" lon="5.52196">
        <ele>279</ele>
        <time>2017-12-21T12:43:26Z</time>
      </trkpt>
      <trkpt lat="43.61812" lon="5.52203">
        <ele>277</ele>
        <time>2017-12-21T12:43:29Z</time>
      </trkpt>
      <trkpt lat="43.61789" lon="5.52214">
        <ele>274</ele>
        <time>2017-12-21T12:43:33Z</time>
      </trkpt>
      <trkpt lat="43.61742" lon="5.52235">
        <ele>274</ele>
        <time>2017-12-21T12:43:41Z</time>
      </trkpt>
      <trkpt lat="43.61704" lon="5.52243">
        <ele>277</ele>
        <time>2017-12-21T12:43:51Z</time>
      </trkpt>
      <trkpt lat="43.617" lon="5.52244">
        <ele>278</ele>
        <time>2017-12-21T12:43:52Z</time>
      </trkpt>
      <trkpt lat="43.61692" lon="5.52245">
        <ele>278</ele>
        <time>2017-12-21T12:43:54Z</time>
      </trkpt>
      <trkpt lat="43.61637" lon="5.52255">
        <ele>278</ele>
        <time>2017-12-21T12:44:06Z</time>
      </trkpt>
      <trkpt lat="43.61574" lon="5.52259">
        <ele>282</ele>
        <time>2017-12-21T12:44:20Z</time>
      </trkpt>
      <trkpt lat="43.61549" lon="5.52256">
        <ele>281</ele>
        <time>2017-12-21T12:44:26Z</time>
      </trkpt>
      <trkpt lat="43.61527" lon="5.52251">
        <ele>280</ele>
        <time>2017-12-21T12:44:31Z</time>
      </trkpt>
      <trkpt lat="43.61486" lon="5.52256">
        <ele>281</ele>
        <time>2017-12-21T12:44:42Z</time>
      </trkpt>
      <trkpt lat="43.61482" lon="5.52256">
        <ele>281</ele>
        <time>2017-12-21T12:44:43Z</time>
      </trkpt>
      <trkpt lat="43.61478" lon="5.52254">
        <ele>281</ele>
        <time>2017-12-21T12:44:44Z</time>
      </trkpt>
      <trkpt lat="43.61475" lon="5.5225">
        <ele>281</ele>
        <time>2017-12-21T12:44:45Z</time>
      </trkpt>
      <trkpt lat="43.61473" lon="5.52246">
        <ele>281</ele>
        <time>2017-12-21T12:44:46Z</time>
      </trkpt>
      <trkpt lat="43.6146" lon="5.52235">
        <ele>283</ele>
        <time>2017-12-21T12:44:51Z</time>
      </trkpt>
      <trkpt lat="43.6142" lon="5.52226">
        <ele>285</ele>
        <time>2017-12-21T12:45:02Z</time>
      </trkpt>
      <trkpt lat="43.61403" lon="5.52223">
        <ele>285</ele>
        <time>2017-12-21T12:45:06Z</time>
      </trkpt>
      <trkpt lat="43.61355" lon="5.52212">
        <ele>286</ele>
        <time>2017-12-21T12:45:18Z</time>
      </trkpt>
      <trkpt lat="43.61343" lon="5.5221">
        <ele>287</ele>
        <time>2017-12-21T12:45:21Z</time>
      </trkpt>
      <trkpt lat="43.61338" lon="5.52209">
        <ele>287</ele>
        <time>2017-12-21T12:45:22Z</time>
      </trkpt>
      <trkpt lat="43.6132" lon="5.52206">
        <ele>284</ele>
        <time>2017-12-21T12:45:25Z</time>
      </trkpt>
      <trkpt lat="43.61315" lon="5.52204">
        <ele>284</ele>
        <time>2017-12-21T12:45:26Z</time>
      </trkpt>
      <trkpt lat="43.61304" lon="5.522">
        <ele>284</ele>
        <time>2017-12-21T12:45:28Z</time>
      </trkpt>
      <trkpt lat="43.613" lon="5.52199">
        <ele>284</ele>
        <time>2017-12-21T12:45:29Z</time>
      </trkpt>
      <trkpt lat="43.61274" lon="5.52196">
        <ele>285</ele>
        <time>2017-12-21T12:45:35Z</time>
      </trkpt>
      <trkpt lat="43.61266" lon="5.52194">
        <ele>285</ele>
        <time>2017-12-21T12:45:37Z</time>
      </trkpt>
      <trkpt lat="43.61261" lon="5.52193">
        <ele>286</ele>
        <time>2017-12-21T12:45:38Z</time>
      </trkpt>
      <trkpt lat="43.6124" lon="5.52187">
        <ele>289</ele>
        <time>2017-12-21T12:45:43Z</time>
      </trkpt>
      <trkpt lat="43.6122" lon="5.52183">
        <ele>289</ele>
        <time>2017-12-21T12:45:48Z</time>
      </trkpt>
      <trkpt lat="43.61203" lon="5.52179">
        <ele>286</ele>
        <time>2017-12-21T12:45:51Z</time>
      </trkpt>
      <trkpt lat="43.61196" lon="5.52178">
        <ele>286</ele>
        <time>2017-12-21T12:45:52Z</time>
      </trkpt>
      <trkpt lat="43.61189" lon="5.52177">
        <ele>286</ele>
        <time>2017-12-21T12:45:53Z</time>
      </trkpt>
      <trkpt lat="43.61178" lon="5.52177">
        <ele>286</ele>
        <time>2017-12-21T12:45:55Z</time>
      </trkpt>
      <trkpt lat="43.61173" lon="5.52176">
        <ele>286</ele>
        <time>2017-12-21T12:45:56Z</time>
      </trkpt>
      <trkpt lat="43.61168" lon="5.52175">
        <ele>286</ele>
        <time>2017-12-21T12:45:57Z</time>
      </trkpt>
      <trkpt lat="43.61157" lon="5.52173">
        <ele>286</ele>
        <time>2017-12-21T12:45:59Z</time>
      </trkpt>
      <trkpt lat="43.61153" lon="5.52174">
        <ele>286</ele>
        <time>2017-12-21T12:46:00Z</time>
      </trkpt>
      <trkpt lat="43.61139" lon="5.52176">
        <ele>286</ele>
        <time>2017-12-21T12:46:03Z</time>
      </trkpt>
      <trkpt lat="43.6111" lon="5.52172">
        <ele>288</ele>
        <time>2017-12-21T12:46:10Z</time>
      </trkpt>
      <trkpt lat="43.6107" lon="5.52167">
        <ele>289</ele>
        <time>2017-12-21T12:46:20Z</time>
      </trkpt>
      <trkpt lat="43.61047" lon="5.52168">
        <ele>289</ele>
        <time>2017-12-21T12:46:25Z</time>
      </trkpt>
      <trkpt lat="43.61042" lon="5.52169">
        <ele>289</ele>
        <time>2017-12-21T12:46:26Z</time>
      </trkpt>
      <trkpt lat="43.61038" lon="5.52168">
        <ele>289</ele>
        <time>2017-12-21T12:46:27Z</time>
      </trkpt>
      <trkpt lat="43.60996" lon="5.52154">
        <ele>289</ele>
        <time>2017-12-21T12:46:37Z</time>
      </trkpt>
      <trkpt lat="43.60945" lon="5.52134">
        <ele>291</ele>
        <time>2017-12-21T12:46:49Z</time>
      </trkpt>
      <trkpt lat="43.60889" lon="5.52103">
        <ele>291</ele>
        <time>2017-12-21T12:47:03Z</time>
      </trkpt>
      <trkpt lat="43.60881" lon="5.52096">
        <ele>291</ele>
        <time>2017-12-21T12:47:05Z</time>
      </trkpt>
      <trkpt lat="43.60874" lon="5.52089">
        <ele>291</ele>
        <time>2017-12-21T12:47:07Z</time>
      </trkpt>
      <trkpt lat="43.6087" lon="5.52086">
        <ele>291</ele>
        <time>2017-12-21T12:47:08Z</time>
      </trkpt>
      <trkpt lat="43.60866" lon="5.52084">
        <ele>291</ele>
        <time>2017-12-21T12:47:09Z</time>
      </trkpt>
      <trkpt lat="43.60826" lon="5.52053">
        <ele>290</ele>
        <time>2017-12-21T12:47:20Z</time>
      </trkpt>
      <trkpt lat="43.60805" lon="5.52033">
        <ele>289</ele>
        <time>2017-12-21T12:47:25Z</time>
      </trkpt>
      <trkpt lat="43.608" lon="5.5203">
        <ele>289</ele>
        <time>2017-12-21T12:47:26Z</time>
      </trkpt>
      <trkpt lat="43.60785" lon="5.52015">
        <ele>289</ele>
        <time>2017-12-21T12:47:31Z</time>
      </trkpt>
      <trkpt lat="43.60781" lon="5.52012">
        <ele>289</ele>
        <time>2017-12-21T12:47:32Z</time>
      </trkpt>
      <trkpt lat="43.60762" lon="5.51993">
        <ele>289</ele>
        <time>2017-12-21T12:47:39Z</time>
      </trkpt>
      <trkpt lat="43.60735" lon="5.51976">
        <ele>287</ele>
        <time>2017-12-21T12:47:46Z</time>
      </trkpt>
      <trkpt lat="43.60731" lon="5.51972">
        <ele>286</ele>
        <time>2017-12-21T12:47:47Z</time>
      </trkpt>
      <trkpt lat="43.60721" lon="5.51963">
        <ele>286</ele>
        <time>2017-12-21T12:47:50Z</time>
      </trkpt>
      <trkpt lat="43.60719" lon="5.51954">
        <ele>288</ele>
        <time>2017-12-21T12:47:53Z</time>
      </trkpt>
      <trkpt lat="43.60718" lon="5.51947">
        <ele>289</ele>
        <time>2017-12-21T12:47:57Z</time>
      </trkpt>
      <trkpt lat="43.60716" lon="5.51945">
        <ele>289</ele>
        <time>2017-12-21T12:47:58Z</time>
      </trkpt>
      <trkpt lat="43.60715" lon="5.51943">
        <ele>289</ele>
        <time>2017-12-21T12:47:59Z</time>
      </trkpt>
      <trkpt lat="43.60712" lon="5.51941">
        <ele>289</ele>
        <time>2017-12-21T12:48:00Z</time>
      </trkpt>
      <trkpt lat="43.60711" lon="5.5194">
        <ele>289</ele>
        <time>2017-12-21T12:48:01Z</time>
      </trkpt>
      <trkpt lat="43.60708" lon="5.51938">
        <ele>289</ele>
        <time>2017-12-21T12:48:02Z</time>
      </trkpt>
      <trkpt lat="43.60707" lon="5.51936">
        <ele>290</ele>
        <time>2017-12-21T12:48:03Z</time>
      </trkpt>
      <trkpt lat="43.60707" lon="5.51934">
        <ele>290</ele>
        <time>2017-12-21T12:48:10Z</time>
      </trkpt>
      <trkpt lat="43.60706" lon="5.51933">
        <ele>290</ele>
        <time>2017-12-21T12:48:21Z</time>
      </trkpt>
      <trkpt lat="43.60699" lon="5.51926">
        <ele>291</ele>
        <time>2017-12-21T12:48:26Z</time>
      </trkpt>
      <trkpt lat="43.60698" lon="5.51923">
        <ele>291</ele>
        <time>2017-12-21T12:48:27Z</time>
      </trkpt>
      <trkpt lat="43.60696" lon="5.51921">
        <ele>291</ele>
        <time>2017-12-21T12:48:28Z</time>
      </trkpt>
      <trkpt lat="43.60695" lon="5.51919">
        <ele>291</ele>
        <time>2017-12-21T12:48:29Z</time>
      </trkpt>
      <trkpt lat="43.60693" lon="5.51916">
        <ele>291</ele>
        <time>2017-12-21T12:48:30Z</time>
      </trkpt>
      <trkpt lat="43.60667" lon="5.51891">
        <ele>294</ele>
        <time>2017-12-21T12:48:41Z</time>
      </trkpt>
      <trkpt lat="43.60628" lon="5.51854">
        <ele>294</ele>
        <time>2017-12-21T12:48:54Z</time>
      </trkpt>
      <trkpt lat="43.6058" lon="5.51808">
        <ele>295</ele>
        <time>2017-12-21T12:49:09Z</time>
      </trkpt>
      <trkpt lat="43.60556" lon="5.51783">
        <ele>295</ele>
        <time>2017-12-21T12:49:17Z</time>
      </trkpt>
      <trkpt lat="43.60517" lon="5.51736">
        <ele>295</ele>
        <time>2017-12-21T12:49:29Z</time>
      </trkpt>
      <trkpt lat="43.60483" lon="5.51701">
        <ele>296</ele>
        <time>2017-12-21T12:49:40Z</time>
      </trkpt>
      <trkpt lat="43.60458" lon="5.51678">
        <ele>296</ele>
        <time>2017-12-21T12:49:47Z</time>
      </trkpt>
      <trkpt lat="43.60454" lon="5.51676">
        <ele>296</ele>
        <time>2017-12-21T12:49:48Z</time>
      </trkpt>
      <trkpt lat="43.60451" lon="5.51674">
        <ele>296</ele>
        <time>2017-12-21T12:49:49Z</time>
      </trkpt>
      <trkpt lat="43.6041" lon="5.51644">
        <ele>296</ele>
        <time>2017-12-21T12:50:01Z</time>
      </trkpt>
      <trkpt lat="43.60378" lon="5.51627">
        <ele>296</ele>
        <time>2017-12-21T12:50:12Z</time>
      </trkpt>
      <trkpt lat="43.6035" lon="5.51613">
        <ele>297</ele>
        <time>2017-12-21T12:50:21Z</time>
      </trkpt>
      <trkpt lat="43.60314" lon="5.51607">
        <ele>297</ele>
        <time>2017-12-21T12:50:31Z</time>
      </trkpt>
      <trkpt lat="43.60278" lon="5.51616">
        <ele>297</ele>
        <time>2017-12-21T12:50:41Z</time>
      </trkpt>
      <trkpt lat="43.60233" lon="5.51632">
        <ele>298</ele>
        <time>2017-12-21T12:50:53Z</time>
      </trkpt>
      <trkpt lat="43.60198" lon="5.51632">
        <ele>299</ele>
        <time>2017-12-21T12:51:02Z</time>
      </trkpt>
      <trkpt lat="43.60194" lon="5.51634">
        <ele>299</ele>
        <time>2017-12-21T12:51:03Z</time>
      </trkpt>
      <trkpt lat="43.60168" lon="5.51647">
        <ele>299</ele>
        <time>2017-12-21T12:51:13Z</time>
      </trkpt>
      <trkpt lat="43.60167" lon="5.51648">
        <ele>299</ele>
        <time>2017-12-21T12:51:27Z</time>
      </trkpt>
      <trkpt lat="43.60162" lon="5.51651">
        <ele>299</ele>
        <time>2017-12-21T12:51:37Z</time>
      </trkpt>
      <trkpt lat="43.6016" lon="5.51644">
        <ele>299</ele>
        <time>2017-12-21T12:52:04Z</time>
      </trkpt>
      <trkpt lat="43.60161" lon="5.51649">
        <ele>299</ele>
        <time>2017-12-21T12:52:27Z</time>
      </trkpt>
      <trkpt lat="43.60161" lon="5.51648">
        <ele>299</ele>
        <time>2017-12-21T12:52:48Z</time>
      </trkpt>
      <trkpt lat="43.60163" lon="5.51653">
        <ele>299</ele>
        <time>2017-12-21T12:53:15Z</time>
      </trkpt>
      <trkpt lat="43.60158" lon="5.51648">
        <ele>299</ele>
        <time>2017-12-21T12:53:41Z</time>
      </trkpt>
      <trkpt lat="43.60161" lon="5.5165">
        <ele>299</ele>
        <time>2017-12-21T12:54:05Z</time>
      </trkpt>
      <trkpt lat="43.60159" lon="5.51656">
        <ele>299</ele>
        <time>2017-12-21T12:54:32Z</time>
      </trkpt>
      <trkpt lat="43.60157" lon="5.51658">
        <ele>298</ele>
        <time>2017-12-21T12:54:41Z</time>
      </trkpt>
      <trkpt lat="43.60135" lon="5.5167">
        <ele>298</ele>
        <time>2017-12-21T12:54:52Z</time>
      </trkpt>
      <trkpt lat="43.60084" lon="5.517">
        <ele>299</ele>
        <time>2017-12-21T12:55:07Z</time>
      </trkpt>
      <trkpt lat="43.60035" lon="5.51712">
        <ele>300</ele>
        <time>2017-12-21T12:55:20Z</time>
      </trkpt>
      <trkpt lat="43.59996" lon="5.5173">
        <ele>301</ele>
        <time>2017-12-21T12:55:31Z</time>
      </trkpt>
      <trkpt lat="43.59967" lon="5.51784">
        <ele>302</ele>
        <time>2017-12-21T12:55:44Z</time>
      </trkpt>
      <trkpt lat="43.59948" lon="5.51802">
        <ele>302</ele>
        <time>2017-12-21T12:55:53Z</time>
      </trkpt>
      <trkpt lat="43.59946" lon="5.51799">
        <ele>302</ele>
        <time>2017-12-21T12:55:54Z</time>
      </trkpt>
      <trkpt lat="43.5993" lon="5.51747">
        <ele>302</ele>
        <time>2017-12-21T12:56:06Z</time>
      </trkpt>
      <trkpt lat="43.59918" lon="5.51708">
        <ele>303</ele>
        <time>2017-12-21T12:56:15Z</time>
      </trkpt>
      <trkpt lat="43.59911" lon="5.51697">
        <ele>305</ele>
        <time>2017-12-21T12:56:22Z</time>
      </trkpt>
      <trkpt lat="43.5991" lon="5.51697">
        <ele>305</ele>
        <time>2017-12-21T12:56:23Z</time>
      </trkpt>
      <trkpt lat="43.59908" lon="5.51698">
        <ele>305</ele>
        <time>2017-12-21T12:56:24Z</time>
      </trkpt>
      <trkpt lat="43.59907" lon="5.51699">
        <ele>305</ele>
        <time>2017-12-21T12:56:25Z</time>
      </trkpt>
      <trkpt lat="43.59906" lon="5.51699">
        <ele>305</ele>
        <time>2017-12-21T12:56:26Z</time>
      </trkpt>
      <trkpt lat="43.59904" lon="5.517">
        <ele>305</ele>
        <time>2017-12-21T12:56:27Z</time>
      </trkpt>
      <trkpt lat="43.59902" lon="5.517">
        <ele>305</ele>
        <time>2017-12-21T12:56:28Z</time>
      </trkpt>
      <trkpt lat="43.59901" lon="5.51699">
        <ele>305</ele>
        <time>2017-12-21T12:56:29Z</time>
      </trkpt>
      <trkpt lat="43.599" lon="5.51697">
        <ele>305</ele>
        <time>2017-12-21T12:56:30Z</time>
      </trkpt>
      <trkpt lat="43.59899" lon="5.51696">
        <ele>306</ele>
        <time>2017-12-21T12:56:31Z</time>
      </trkpt>
      <trkpt lat="43.59898" lon="5.51693">
        <ele>306</ele>
        <time>2017-12-21T12:56:32Z</time>
      </trkpt>
      <trkpt lat="43.59897" lon="5.51689">
        <ele>306</ele>
        <time>2017-12-21T12:56:34Z</time>
      </trkpt>
      <trkpt lat="43.59898" lon="5.51687">
        <ele>306</ele>
        <time>2017-12-21T12:56:35Z</time>
      </trkpt>
      <trkpt lat="43.59898" lon="5.51684">
        <ele>306</ele>
        <time>2017-12-21T12:56:36Z</time>
      </trkpt>
      <trkpt lat="43.59899" lon="5.51682">
        <ele>307</ele>
        <time>2017-12-21T12:56:37Z</time>
      </trkpt>
      <trkpt lat="43.599" lon="5.51679">
        <ele>307</ele>
        <time>2017-12-21T12:56:38Z</time>
      </trkpt>
      <trkpt lat="43.59901" lon="5.51677">
        <ele>307</ele>
        <time>2017-12-21T12:56:39Z</time>
      </trkpt>
      <trkpt lat="43.59903" lon="5.51675">
        <ele>307</ele>
        <time>2017-12-21T12:56:40Z</time>
      </trkpt>
      <trkpt lat="43.59926" lon="5.51653">
        <ele>308</ele>
        <time>2017-12-21T12:56:51Z</time>
      </trkpt>
      <trkpt lat="43.59958" lon="5.51631">
        <ele>306</ele>
        <time>2017-12-21T12:57:01Z</time>
      </trkpt>
      <trkpt lat="43.59997" lon="5.516">
        <ele>305</ele>
        <time>2017-12-21T12:57:11Z</time>
      </trkpt>
      <trkpt lat="43.60025" lon="5.51577">
        <ele>303</ele>
        <time>2017-12-21T12:57:18Z</time>
      </trkpt>
      <trkpt lat="43.60028" lon="5.51573">
        <ele>303</ele>
        <time>2017-12-21T12:57:19Z</time>
      </trkpt>
      <trkpt lat="43.60031" lon="5.51569">
        <ele>303</ele>
        <time>2017-12-21T12:57:20Z</time>
      </trkpt>
      <trkpt lat="43.60047" lon="5.5154">
        <ele>307</ele>
        <time>2017-12-21T12:57:28Z</time>
      </trkpt>
      <trkpt lat="43.60064" lon="5.51508">
        <ele>310</ele>
        <time>2017-12-21T12:57:39Z</time>
      </trkpt>
      <trkpt lat="43.60079" lon="5.51474">
        <ele>313</ele>
        <time>2017-12-21T12:57:50Z</time>
      </trkpt>
      <trkpt lat="43.60102" lon="5.51443">
        <ele>316</ele>
        <time>2017-12-21T12:58:02Z</time>
      </trkpt>
      <trkpt lat="43.60132" lon="5.51416">
        <ele>318</ele>
        <time>2017-12-21T12:58:16Z</time>
      </trkpt>
      <trkpt lat="43.6014" lon="5.51407">
        <ele>320</ele>
        <time>2017-12-21T12:58:20Z</time>
      </trkpt>
      <trkpt lat="43.60156" lon="5.51379">
        <ele>323</ele>
        <time>2017-12-21T12:58:31Z</time>
      </trkpt>
      <trkpt lat="43.60179" lon="5.51363">
        <ele>326</ele>
        <time>2017-12-21T12:58:41Z</time>
      </trkpt>
      <trkpt lat="43.60202" lon="5.51359">
        <ele>329</ele>
        <time>2017-12-21T12:58:50Z</time>
      </trkpt>
      <trkpt lat="43.60218" lon="5.51355">
        <ele>333</ele>
        <time>2017-12-21T12:58:58Z</time>
      </trkpt>
      <trkpt lat="43.60236" lon="5.51348">
        <ele>336</ele>
        <time>2017-12-21T12:59:07Z</time>
      </trkpt>
      <trkpt lat="43.60257" lon="5.51333">
        <ele>339</ele>
        <time>2017-12-21T12:59:18Z</time>
      </trkpt>
      <trkpt lat="43.60277" lon="5.51323">
        <ele>341</ele>
        <time>2017-12-21T12:59:28Z</time>
      </trkpt>
      <trkpt lat="43.60299" lon="5.5131">
        <ele>344</ele>
        <time>2017-12-21T12:59:39Z</time>
      </trkpt>
      <trkpt lat="43.60319" lon="5.51286">
        <ele>346</ele>
        <time>2017-12-21T12:59:50Z</time>
      </trkpt>
      <trkpt lat="43.60341" lon="5.51258">
        <ele>349</ele>
        <time>2017-12-21T13:00:03Z</time>
      </trkpt>
      <trkpt lat="43.6036" lon="5.51227">
        <ele>351</ele>
        <time>2017-12-21T13:00:15Z</time>
      </trkpt>
      <trkpt lat="43.6038" lon="5.51205">
        <ele>353</ele>
        <time>2017-12-21T13:00:27Z</time>
      </trkpt>
      <trkpt lat="43.604" lon="5.51186">
        <ele>356</ele>
        <time>2017-12-21T13:00:38Z</time>
      </trkpt>
      <trkpt lat="43.60425" lon="5.51163">
        <ele>359</ele>
        <time>2017-12-21T13:00:51Z</time>
      </trkpt>
      <trkpt lat="43.60451" lon="5.51137">
        <ele>360</ele>
        <time>2017-12-21T13:01:03Z</time>
      </trkpt>
      <trkpt lat="43.60476" lon="5.51104">
        <ele>361</ele>
        <time>2017-12-21T13:01:15Z</time>
      </trkpt>
      <trkpt lat="43.60485" lon="5.51088">
        <ele>359</ele>
        <time>2017-12-21T13:01:19Z</time>
      </trkpt>
      <trkpt lat="43.60505" lon="5.51047">
        <ele>356</ele>
        <time>2017-12-21T13:01:26Z</time>
      </trkpt>
      <trkpt lat="43.60531" lon="5.50999">
        <ele>353</ele>
        <time>2017-12-21T13:01:34Z</time>
      </trkpt>
      <trkpt lat="43.60532" lon="5.50994">
        <ele>353</ele>
        <time>2017-12-21T13:01:35Z</time>
      </trkpt>
      <trkpt lat="43.60531" lon="5.50989">
        <ele>353</ele>
        <time>2017-12-21T13:01:36Z</time>
      </trkpt>
      <trkpt lat="43.60531" lon="5.50984">
        <ele>353</ele>
        <time>2017-12-21T13:01:37Z</time>
      </trkpt>
      <trkpt lat="43.60528" lon="5.50974">
        <ele>353</ele>
        <time>2017-12-21T13:01:39Z</time>
      </trkpt>
      <trkpt lat="43.60526" lon="5.5097">
        <ele>353</ele>
        <time>2017-12-21T13:01:40Z</time>
      </trkpt>
      <trkpt lat="43.60523" lon="5.50968">
        <ele>353</ele>
        <time>2017-12-21T13:01:41Z</time>
      </trkpt>
      <trkpt lat="43.60521" lon="5.50966">
        <ele>353</ele>
        <time>2017-12-21T13:01:42Z</time>
      </trkpt>
      <trkpt lat="43.60518" lon="5.50964">
        <ele>353</ele>
        <time>2017-12-21T13:01:43Z</time>
      </trkpt>
      <trkpt lat="43.60516" lon="5.50963">
        <ele>353</ele>
        <time>2017-12-21T13:01:44Z</time>
      </trkpt>
      <trkpt lat="43.60513" lon="5.50961">
        <ele>353</ele>
        <time>2017-12-21T13:01:45Z</time>
      </trkpt>
      <trkpt lat="43.6051" lon="5.5096">
        <ele>353</ele>
        <time>2017-12-21T13:01:46Z</time>
      </trkpt>
      <trkpt lat="43.60507" lon="5.50959">
        <ele>353</ele>
        <time>2017-12-21T13:01:47Z</time>
      </trkpt>
      <trkpt lat="43.60504" lon="5.50959">
        <ele>353</ele>
        <time>2017-12-21T13:01:48Z</time>
      </trkpt>
      <trkpt lat="43.60501" lon="5.50959">
        <ele>354</ele>
        <time>2017-12-21T13:01:49Z</time>
      </trkpt>
      <trkpt lat="43.60499" lon="5.50958">
        <ele>354</ele>
        <time>2017-12-21T13:01:50Z</time>
      </trkpt>
      <trkpt lat="43.60496" lon="5.50958">
        <ele>354</ele>
        <time>2017-12-21T13:01:51Z</time>
      </trkpt>
      <trkpt lat="43.60493" lon="5.50957">
        <ele>354</ele>
        <time>2017-12-21T13:01:52Z</time>
      </trkpt>
      <trkpt lat="43.60463" lon="5.50954">
        <ele>357</ele>
        <time>2017-12-21T13:02:03Z</time>
      </trkpt>
      <trkpt lat="43.60434" lon="5.50952">
        <ele>359</ele>
        <time>2017-12-21T13:02:14Z</time>
      </trkpt>
      <trkpt lat="43.60414" lon="5.50948">
        <ele>360</ele>
        <time>2017-12-21T13:02:22Z</time>
      </trkpt>
      <trkpt lat="43.60376" lon="5.50954">
        <ele>362</ele>
        <time>2017-12-21T13:02:35Z</time>
      </trkpt>
      <trkpt lat="43.60342" lon="5.50939">
        <ele>364</ele>
        <time>2017-12-21T13:02:47Z</time>
      </trkpt>
      <trkpt lat="43.60315" lon="5.50925">
        <ele>365</ele>
        <time>2017-12-21T13:02:57Z</time>
      </trkpt>
      <trkpt lat="43.60285" lon="5.50911">
        <ele>367</ele>
        <time>2017-12-21T13:03:08Z</time>
      </trkpt>
      <trkpt lat="43.60256" lon="5.50901">
        <ele>369</ele>
        <time>2017-12-21T13:03:18Z</time>
      </trkpt>
      <trkpt lat="43.60218" lon="5.50887">
        <ele>372</ele>
        <time>2017-12-21T13:03:32Z</time>
      </trkpt>
      <trkpt lat="43.60201" lon="5.509">
        <ele>375</ele>
        <time>2017-12-21T13:03:39Z</time>
      </trkpt>
      <trkpt lat="43.60187" lon="5.50914">
        <ele>377</ele>
        <time>2017-12-21T13:03:45Z</time>
      </trkpt>
      <trkpt lat="43.60173" lon="5.5092">
        <ele>381</ele>
        <time>2017-12-21T13:03:52Z</time>
      </trkpt>
      <trkpt lat="43.60154" lon="5.50926">
        <ele>384</ele>
        <time>2017-12-21T13:04:00Z</time>
      </trkpt>
      <trkpt lat="43.60141" lon="5.50937">
        <ele>387</ele>
        <time>2017-12-21T13:04:08Z</time>
      </trkpt>
      <trkpt lat="43.60124" lon="5.50952">
        <ele>390</ele>
        <time>2017-12-21T13:04:18Z</time>
      </trkpt>
      <trkpt lat="43.60105" lon="5.50963">
        <ele>393</ele>
        <time>2017-12-21T13:04:27Z</time>
      </trkpt>
      <trkpt lat="43.60086" lon="5.5097">
        <ele>396</ele>
        <time>2017-12-21T13:04:36Z</time>
      </trkpt>
      <trkpt lat="43.60066" lon="5.50978">
        <ele>400</ele>
        <time>2017-12-21T13:04:46Z</time>
      </trkpt>
      <trkpt lat="43.60059" lon="5.50977">
        <ele>400</ele>
        <time>2017-12-21T13:04:49Z</time>
      </trkpt>
      <trkpt lat="43.60042" lon="5.50961">
        <ele>401</ele>
        <time>2017-12-21T13:04:59Z</time>
      </trkpt>
      <trkpt lat="43.60027" lon="5.50935">
        <ele>402</ele>
        <time>2017-12-21T13:05:09Z</time>
      </trkpt>
      <trkpt lat="43.59999" lon="5.50918">
        <ele>401</ele>
        <time>2017-12-21T13:05:18Z</time>
      </trkpt>
      <trkpt lat="43.59962" lon="5.50903">
        <ele>400</ele>
        <time>2017-12-21T13:05:29Z</time>
      </trkpt>
      <trkpt lat="43.59935" lon="5.50881">
        <ele>399</ele>
        <time>2017-12-21T13:05:38Z</time>
      </trkpt>
      <trkpt lat="43.59904" lon="5.50856">
        <ele>398</ele>
        <time>2017-12-21T13:05:48Z</time>
      </trkpt>
      <trkpt lat="43.59893" lon="5.50848">
        <ele>400</ele>
        <time>2017-12-21T13:05:52Z</time>
      </trkpt>
      <trkpt lat="43.59875" lon="5.5082">
        <ele>401</ele>
        <time>2017-12-21T13:06:02Z</time>
      </trkpt>
      <trkpt lat="43.59868" lon="5.50782">
        <ele>401</ele>
        <time>2017-12-21T13:06:11Z</time>
      </trkpt>
      <trkpt lat="43.59862" lon="5.50736">
        <ele>402</ele>
        <time>2017-12-21T13:06:22Z</time>
      </trkpt>
      <trkpt lat="43.59866" lon="5.50683">
        <ele>403</ele>
        <time>2017-12-21T13:06:35Z</time>
      </trkpt>
      <trkpt lat="43.59881" lon="5.50638">
        <ele>405</ele>
        <time>2017-12-21T13:06:47Z</time>
      </trkpt>
      <trkpt lat="43.59894" lon="5.50598">
        <ele>408</ele>
        <time>2017-12-21T13:06:58Z</time>
      </trkpt>
      <trkpt lat="43.59906" lon="5.50557">
        <ele>409</ele>
        <time>2017-12-21T13:07:09Z</time>
      </trkpt>
      <trkpt lat="43.59924" lon="5.50527">
        <ele>413</ele>
        <time>2017-12-21T13:07:19Z</time>
      </trkpt>
      <trkpt lat="43.59936" lon="5.50489">
        <ele>415</ele>
        <time>2017-12-21T13:07:30Z</time>
      </trkpt>
      <trkpt lat="43.5994" lon="5.50443">
        <ele>417</ele>
        <time>2017-12-21T13:07:42Z</time>
      </trkpt>
      <trkpt lat="43.59924" lon="5.504">
        <ele>417</ele>
        <time>2017-12-21T13:07:54Z</time>
      </trkpt>
      <trkpt lat="43.59908" lon="5.50357">
        <ele>417</ele>
        <time>2017-12-21T13:08:05Z</time>
      </trkpt>
      <trkpt lat="43.59915" lon="5.50321">
        <ele>421</ele>
        <time>2017-12-21T13:08:15Z</time>
      </trkpt>
      <trkpt lat="43.59924" lon="5.50286">
        <ele>423</ele>
        <time>2017-12-21T13:08:25Z</time>
      </trkpt>
      <trkpt lat="43.59921" lon="5.50247">
        <ele>425</ele>
        <time>2017-12-21T13:08:35Z</time>
      </trkpt>
      <trkpt lat="43.59901" lon="5.50225">
        <ele>425</ele>
        <time>2017-12-21T13:08:44Z</time>
      </trkpt>
      <trkpt lat="43.59861" lon="5.50226">
        <ele>424</ele>
        <time>2017-12-21T13:08:56Z</time>
      </trkpt>
      <trkpt lat="43.59841" lon="5.5023">
        <ele>421</ele>
        <time>2017-12-21T13:09:00Z</time>
      </trkpt>
      <trkpt lat="43.59835" lon="5.50228">
        <ele>420</ele>
        <time>2017-12-21T13:09:01Z</time>
      </trkpt>
      <trkpt lat="43.59829" lon="5.50225">
        <ele>420</ele>
        <time>2017-12-21T13:09:02Z</time>
      </trkpt>
      <trkpt lat="43.59824" lon="5.50219">
        <ele>419</ele>
        <time>2017-12-21T13:09:03Z</time>
      </trkpt>
      <trkpt lat="43.5982" lon="5.50213">
        <ele>419</ele>
        <time>2017-12-21T13:09:04Z</time>
      </trkpt>
      <trkpt lat="43.59798" lon="5.50182">
        <ele>417</ele>
        <time>2017-12-21T13:09:09Z</time>
      </trkpt>
      <trkpt lat="43.59788" lon="5.50168">
        <ele>416</ele>
        <time>2017-12-21T13:09:11Z</time>
      </trkpt>
      <trkpt lat="43.59784" lon="5.50161">
        <ele>416</ele>
        <time>2017-12-21T13:09:12Z</time>
      </trkpt>
      <trkpt lat="43.5978" lon="5.50153">
        <ele>416</ele>
        <time>2017-12-21T13:09:13Z</time>
      </trkpt>
      <trkpt lat="43.59777" lon="5.50145">
        <ele>416</ele>
        <time>2017-12-21T13:09:14Z</time>
      </trkpt>
      <trkpt lat="43.59776" lon="5.50139">
        <ele>416</ele>
        <time>2017-12-21T13:09:15Z</time>
      </trkpt>
      <trkpt lat="43.59774" lon="5.50132">
        <ele>416</ele>
        <time>2017-12-21T13:09:16Z</time>
      </trkpt>
      <trkpt lat="43.59756" lon="5.50064">
        <ele>415</ele>
        <time>2017-12-21T13:09:29Z</time>
      </trkpt>
      <trkpt lat="43.59747" lon="5.5003">
        <ele>414</ele>
        <time>2017-12-21T13:09:35Z</time>
      </trkpt>
      <trkpt lat="43.59743" lon="5.49993">
        <ele>412</ele>
        <time>2017-12-21T13:09:40Z</time>
      </trkpt>
      <trkpt lat="43.59737" lon="5.49943">
        <ele>410</ele>
        <time>2017-12-21T13:09:46Z</time>
      </trkpt>
      <trkpt lat="43.59736" lon="5.49935">
        <ele>410</ele>
        <time>2017-12-21T13:09:47Z</time>
      </trkpt>
      <trkpt lat="43.59736" lon="5.49861">
        <ele>409</ele>
        <time>2017-12-21T13:09:58Z</time>
      </trkpt>
      <trkpt lat="43.59737" lon="5.49848">
        <ele>409</ele>
        <time>2017-12-21T13:10:00Z</time>
      </trkpt>
      <trkpt lat="43.59749" lon="5.49784">
        <ele>409</ele>
        <time>2017-12-21T13:10:11Z</time>
      </trkpt>
      <trkpt lat="43.59756" lon="5.49737">
        <ele>411</ele>
        <time>2017-12-21T13:10:21Z</time>
      </trkpt>
      <trkpt lat="43.59766" lon="5.49697">
        <ele>409</ele>
        <time>2017-12-21T13:10:30Z</time>
      </trkpt>
      <trkpt lat="43.59768" lon="5.49692">
        <ele>409</ele>
        <time>2017-12-21T13:10:31Z</time>
      </trkpt>
      <trkpt lat="43.59773" lon="5.4968">
        <ele>408</ele>
        <time>2017-12-21T13:10:33Z</time>
      </trkpt>
      <trkpt lat="43.59775" lon="5.49673">
        <ele>407</ele>
        <time>2017-12-21T13:10:34Z</time>
      </trkpt>
      <trkpt lat="43.59788" lon="5.49617">
        <ele>404</ele>
        <time>2017-12-21T13:10:41Z</time>
      </trkpt>
      <trkpt lat="43.59794" lon="5.49582">
        <ele>403</ele>
        <time>2017-12-21T13:10:45Z</time>
      </trkpt>
      <trkpt lat="43.598" lon="5.49526">
        <ele>401</ele>
        <time>2017-12-21T13:10:51Z</time>
      </trkpt>
      <trkpt lat="43.598" lon="5.49517">
        <ele>401</ele>
        <time>2017-12-21T13:10:52Z</time>
      </trkpt>
      <trkpt lat="43.59789" lon="5.49427">
        <ele>399</ele>
        <time>2017-12-21T13:11:02Z</time>
      </trkpt>
      <trkpt lat="43.59767" lon="5.49356">
        <ele>401</ele>
        <time>2017-12-21T13:11:14Z</time>
      </trkpt>
      <trkpt lat="43.59746" lon="5.49294">
        <ele>403</ele>
        <time>2017-12-21T13:11:26Z</time>
      </trkpt>
      <trkpt lat="43.5972" lon="5.49244">
        <ele>406</ele>
        <time>2017-12-21T13:11:38Z</time>
      </trkpt>
      <trkpt lat="43.59717" lon="5.49241">
        <ele>406</ele>
        <time>2017-12-21T13:11:39Z</time>
      </trkpt>
      <trkpt lat="43.59713" lon="5.49239">
        <ele>406</ele>
        <time>2017-12-21T13:11:40Z</time>
      </trkpt>
      <trkpt lat="43.59709" lon="5.49237">
        <ele>406</ele>
        <time>2017-12-21T13:11:41Z</time>
      </trkpt>
      <trkpt lat="43.59706" lon="5.49235">
        <ele>406</ele>
        <time>2017-12-21T13:11:42Z</time>
      </trkpt>
      <trkpt lat="43.59702" lon="5.49234">
        <ele>406</ele>
        <time>2017-12-21T13:11:43Z</time>
      </trkpt>
      <trkpt lat="43.59698" lon="5.49233">
        <ele>406</ele>
        <time>2017-12-21T13:11:44Z</time>
      </trkpt>
      <trkpt lat="43.59671" lon="5.49234">
        <ele>406</ele>
        <time>2017-12-21T13:11:51Z</time>
      </trkpt>
      <trkpt lat="43.59667" lon="5.49236">
        <ele>405</ele>
        <time>2017-12-21T13:11:52Z</time>
      </trkpt>
      <trkpt lat="43.59663" lon="5.49239">
        <ele>405</ele>
        <time>2017-12-21T13:11:53Z</time>
      </trkpt>
      <trkpt lat="43.59659" lon="5.49242">
        <ele>404</ele>
        <time>2017-12-21T13:11:54Z</time>
      </trkpt>
      <trkpt lat="43.59655" lon="5.49246">
        <ele>404</ele>
        <time>2017-12-21T13:11:55Z</time>
      </trkpt>
      <trkpt lat="43.59651" lon="5.49251">
        <ele>403</ele>
        <time>2017-12-21T13:11:56Z</time>
      </trkpt>
      <trkpt lat="43.59643" lon="5.49263">
        <ele>402</ele>
        <time>2017-12-21T13:11:58Z</time>
      </trkpt>
      <trkpt lat="43.59639" lon="5.49269">
        <ele>402</ele>
        <time>2017-12-21T13:11:59Z</time>
      </trkpt>
      <trkpt lat="43.59613" lon="5.49311">
        <ele>400</ele>
        <time>2017-12-21T13:12:05Z</time>
      </trkpt>
      <trkpt lat="43.59608" lon="5.49318">
        <ele>399</ele>
        <time>2017-12-21T13:12:06Z</time>
      </trkpt>
      <trkpt lat="43.59602" lon="5.49323">
        <ele>399</ele>
        <time>2017-12-21T13:12:07Z</time>
      </trkpt>
      <trkpt lat="43.59596" lon="5.49326">
        <ele>398</ele>
        <time>2017-12-21T13:12:08Z</time>
      </trkpt>
      <trkpt lat="43.59589" lon="5.49329">
        <ele>397</ele>
        <time>2017-12-21T13:12:09Z</time>
      </trkpt>
      <trkpt lat="43.59583" lon="5.49331">
        <ele>397</ele>
        <time>2017-12-21T13:12:10Z</time>
      </trkpt>
      <trkpt lat="43.59576" lon="5.49331">
        <ele>397</ele>
        <time>2017-12-21T13:12:11Z</time>
      </trkpt>
      <trkpt lat="43.59569" lon="5.49329">
        <ele>396</ele>
        <time>2017-12-21T13:12:12Z</time>
      </trkpt>
      <trkpt lat="43.59563" lon="5.49325">
        <ele>395</ele>
        <time>2017-12-21T13:12:13Z</time>
      </trkpt>
      <trkpt lat="43.59557" lon="5.4932">
        <ele>395</ele>
        <time>2017-12-21T13:12:14Z</time>
      </trkpt>
      <trkpt lat="43.59548" lon="5.4931">
        <ele>394</ele>
        <time>2017-12-21T13:12:16Z</time>
      </trkpt>
      <trkpt lat="43.59527" lon="5.49283">
        <ele>394</ele>
        <time>2017-12-21T13:12:23Z</time>
      </trkpt>
      <trkpt lat="43.59523" lon="5.49281">
        <ele>393</ele>
        <time>2017-12-21T13:12:24Z</time>
      </trkpt>
      <trkpt lat="43.59519" lon="5.4928">
        <ele>393</ele>
        <time>2017-12-21T13:12:25Z</time>
      </trkpt>
      <trkpt lat="43.59515" lon="5.49278">
        <ele>393</ele>
        <time>2017-12-21T13:12:26Z</time>
      </trkpt>
      <trkpt lat="43.59513" lon="5.49274">
        <ele>393</ele>
        <time>2017-12-21T13:12:27Z</time>
      </trkpt>
      <trkpt lat="43.59511" lon="5.4927">
        <ele>393</ele>
        <time>2017-12-21T13:12:28Z</time>
      </trkpt>
      <trkpt lat="43.5951" lon="5.49264">
        <ele>392</ele>
        <time>2017-12-21T13:12:29Z</time>
      </trkpt>
      <trkpt lat="43.5951" lon="5.4926">
        <ele>392</ele>
        <time>2017-12-21T13:12:30Z</time>
      </trkpt>
      <trkpt lat="43.59511" lon="5.49257">
        <ele>392</ele>
        <time>2017-12-21T13:12:31Z</time>
      </trkpt>
      <trkpt lat="43.59516" lon="5.49255">
        <ele>392</ele>
        <time>2017-12-21T13:12:36Z</time>
      </trkpt>
      <trkpt lat="43.59517" lon="5.49255">
        <ele>393</ele>
        <time>2017-12-21T13:12:57Z</time>
      </trkpt>
      <trkpt lat="43.59517" lon="5.49255">
        <ele>391</ele>
        <time>2017-12-21T13:13:06Z</time>
      </trkpt>
    </trkseg>
  </trk>
</gpx>